[[{"header":{"parameterUnit":"m.s-1","parameterCategory":1,"la1":31.0,"la2":29.5877,"lo1":-88.7671,"lo2":-86.6584,"dx":0.0162,"dy":0.0185,"nx":115,"ny":88,"refTime":"2022-12-01T18:00:00:Z","depth":0,"parameterNumber":2,"parameterNumberName":"U-component_of_WINDS"},"data":[0.0,0.0,0.0,0.0,0.0,0.0,0.0,0.0,0.0,0.0,0.0,0.0,0.0,0.0,0.0,0.0,0.0,0.0,0.0,0.0,0.0,0.0,0.0,0.0,0.0,0.0,0.0,0.0,0.0,0.0,0.0,0.0,0.0,0.0,0.0,0.0,0.0,0.0,0.0,0.0,0.0,0.0,0.0,0.0,0.0,0.0,0.0,0.0,0.0,0.0,0.0,0.0,0.0,0.0,0.0,0.0,0.0,0.0,0.0,0.0,0.0,0.0,0.0,0.0,0.0,0.0,0.0,0.0,0.0,0.0,0.0,0.0,0.0,0.0,0.0,0.0,0.0,0.0,0.0,0.0,0.0,0.0,0.0,0.0,0.0,0.0,0.0,0.0,0.0,0.0,0.0,0.0,0.0,0.0,0.0,0.0,0.0,0.0,0.0,0.0,0.0,0.0,0.0,0.0,0.0,0.0,0.0,0.0,0.0,0.0,0.0,0.0,0.0,0.0,0.0,0.0,0.0,0.0,0.0,0.0,0.0,0.0,0.0,0.0,0.0,0.0,0.0,0.0,0.0,0.0,0.0,0.0,0.0,0.0,0.0,0.0,0.0,0.0,0.0,0.0,0.0,0.0,0.0,0.0,0.0,0.0,0.0,0.0,0.0,0.0,0.0,0.0,0.0,0.0,0.0,0.0,0.0,0.0,0.0,0.0,0.0,0.0,0.0,0.0,0.0,0.0,0.0,0.0,0.0,0.0,0.0,0.0,0.0,0.0,0.0,0.0,0.0,0.0,0.0,0.0,0.0,0.0,0.0,0.0,0.0,0.0,0.0,0.0,0.0,0.0,0.0,0.0,0.0,0.0,0.0,0.0,0.0,0.0,0.0,0.0,0.0,0.0,0.0,0.0,0.0,0.0,0.0,0.0,0.0,0.0,0.0,0.0,0.0,0.0,0.0,0.0,0.0,0.0,0.0,0.0,0.0,0.0,0.0,0.0,0.0,0.0,0.0,0.0,0.0,0.0,0.0,0.0,0.0,0.0,0.0,0.0,0.0,0.0,0.0,0.0,0.0,0.0,0.0,0.0,0.0,0.0,0.0,0.0,0.0,0.0,0.0,0.0,0.0,0.0,0.0,0.0,0.0,0.0,0.0,0.0,0.0,0.0,0.0,0.0,0.0,0.0,0.0,0.0,0.0,0.0,0.0,0.0,0.0,0.0,0.0,0.0,0.0,0.0,0.0,0.0,0.0,0.0,0.0,0.0,0.0,0.0,0.0,0.0,0.0,0.0,0.0,0.0,0.0,0.0,0.0,0.0,0.0,0.0,0.0,0.0,0.0,0.0,0.0,0.0,0.0,0.0,0.0,0.0,0.0,0.0,0.0,0.0,0.0,0.0,0.0,0.0,0.0,0.0,0.0,0.0,0.0,0.0,0.0,0.0,0.0,0.0,0.0,0.0,0.0,0.0,0.0,0.0,0.0,0.0,0.0,0.0,0.0,0.0,0.0,0.0,0.0,0.0,0.0,0.0,0.0,0.0,0.0,0.0,0.0,0.0,0.0,0.0,0.0,0.0,0.0,0.0,0.0,0.0,0.0,0.0,0.0,0.0,0.0,0.0,0.0,0.0,0.0,0.0,0.0,0.0,0.0,0.0,0.0,0.0,0.0,0.0,0.0,0.0,0.0,0.0,0.0,0.0,0.0,0.0,0.0,0.0,0.0,0.0,0.0,0.0,0.0,0.0,0.0,0.0,0.0,0.0,0.0,0.0,0.0,0.0,0.0,0.0,0.0,0.0,0.0,0.0,0.0,0.0,0.0,0.0,0.0,0.0,0.0,0.0,0.0,0.0,0.0,0.0,0.0,0.0,0.0,0.0,0.0,0.0,0.0,0.0,0.0,0.0,0.0,0.0,0.0,0.0,0.0,0.0,0.0,0.0,0.0,0.0,0.0,0.0,0.0,0.0,0.0,0.0,0.0,0.0,0.0,0.0,0.0,0.0,0.0,0.0,0.0,0.0,0.0,0.0,0.0,0.0,0.0,0.0,0.0,0.0,0.0,0.0,0.0,0.0,0.0,0.0,0.0,0.0,0.0,0.0,0.0,0.0,0.0,0.0,0.0,0.0,0.0,0.0,0.0,0.0,0.0,0.0,0.0,0.0,0.0,0.0,0.0,0.0,0.0,0.0,0.0,0.0,0.0,0.0,0.0,0.0,0.0,0.0,0.0,0.0,0.0,0.0,0.0,0.0,0.0,0.0,0.0,0.0,0.0,0.0,0.0,0.0,0.0,0.0,0.0,0.0,0.0,0.0,0.0,0.0,0.0,0.0,0.0,0.0,0.0,0.0,0.0,0.0,0.0,0.0,0.0,0.0,0.0,0.0,0.0,0.0,0.0,0.0,0.0,0.0,0.0,0.0,0.0,0.0,0.0,0.0,0.0,0.0,0.0,0.0,0.0,0.0,0.0,0.0,0.0,0.0,0.0,0.0,0.0,0.0,0.0,0.0,0.0,0.0,0.0,0.0,0.0,0.0,0.0,0.0,0.0,0.0,0.0,0.0,0.0,0.0,0.0,0.0,0.0,0.0,0.0,0.0,0.0,0.0,0.0,0.0,0.0,0.0,0.0,0.0,0.0,0.0,0.0,0.0,0.0,0.0,0.0,0.0,0.0,0.0,0.0,0.0,0.0,0.0,0.0,0.0,0.0,0.0,0.0,0.0,0.0,0.0,0.0,0.0,0.0,0.0,0.0,0.0,0.0,0.0,0.0,0.0,0.0,0.0,0.0,0.0,0.0,0.0,0.0,0.0,0.0,0.0,0.0,0.0,0.0,0.0,0.0,0.0,0.0,0.0,0.0,0.0,0.0,0.0,0.0,0.0,0.0,0.0,0.0,0.0,0.0,0.0,0.0,0.0,0.0,0.0,0.0,0.0,0.0,0.0,0.0,0.0,0.0,0.0,0.0,0.0,0.0,0.0,0.0,0.0,0.0,0.0,0.0,0.0,0.0,0.0,0.0,0.0,0.0,0.0,0.0,0.0,0.0,0.0,0.0,0.0,0.0,0.0,0.0,0.0,0.0,0.0,0.0,0.0,0.0,0.0,0.0,0.0,0.0,0.0,0.0,0.0,0.0,0.0,0.0,0.0,0.0,0.0,0.0,0.0,0.0,0.0,0.0,0.0,0.0,0.0,0.0,0.0,0.0,0.0,0.0,0.0,0.0,0.0,0.0,0.0,0.0,0.0,0.0,0.0,0.0,0.0,0.0,0.0,0.0,0.0,0.0,0.0,0.0,0.0,0.0,0.0,0.0,0.0,0.0,0.0,0.0,0.0,0.0,0.0,0.0,0.0,0.0,0.0,0.0,0.0,0.0,0.0,0.0,0.0,0.0,0.0,0.0,0.0,0.0,0.0,0.0,0.0,0.0,0.0,0.0,0.0,0.0,0.0,0.0,0.0,0.0,0.0,0.0,0.0,0.0,0.0,0.0,0.0,0.0,0.0,0.0,0.0,0.0,0.0,0.0,0.0,0.0,0.0,0.0,0.0,0.0,0.0,0.0,0.0,0.0,0.0,0.0,0.0,0.0,0.0,0.0,0.0,0.0,0.0,0.0,0.0,0.0,0.0,0.0,0.0,0.0,0.0,0.0,0.0,0.0,0.0,0.0,0.0,0.0,0.0,0.0,0.0,0.0,0.0,0.0,0.0,0.0,0.0,0.0,0.0,0.0,0.0,0.0,0.0,0.0,0.0,0.0,0.0,0.0,0.0,0.0,0.0,0.0,0.0,0.0,0.0,0.0,0.0,0.0,0.0,0.0,0.0,0.0,0.0,0.0,0.0,0.0,0.0,0.0,0.0,0.0,0.0,0.0,0.0,0.0,0.0,0.0,0.0,0.0,0.0,0.0,0.0,0.0,0.0,0.0,0.0,0.0,0.0,0.0,0.0,0.0,0.0,0.0,0.0,0.0,0.0,0.0,0.0,0.0,0.0,0.0,0.0,0.0,0.0,0.0,0.0,0.0,0.0,0.0,0.0,0.0,0.0,0.0,0.0,0.0,0.0,0.0,0.0,0.0,0.0,0.0,0.0,0.0,0.0,0.0,0.0,0.0,0.0,0.0,0.0,0.0,0.0,0.0,0.0,0.0,0.0,0.0,0.0,0.0,0.0,0.0,0.0,0.0,0.0,0.0,0.0,0.0,0.0,0.0,0.0,0.0,0.0,0.0,0.0,0.0,0.0,0.0,0.0,0.0,0.0,0.0,0.0,0.0,0.0,-0.9347,0.0,0.0,0.0,-0.9342,0.0,0.0,0.0,0.0,0.0,0.0,0.0,0.0,0.0,0.0,0.0,0.0,0.0,0.0,0.0,0.0,0.0,0.0,0.0,0.0,0.0,0.0,0.0,0.0,0.0,0.0,0.0,0.0,0.0,0.0,0.0,0.0,0.0,0.0,0.0,0.0,0.0,0.0,0.0,0.0,0.0,0.0,0.0,0.0,0.0,0.0,0.0,0.0,0.0,0.0,0.0,0.0,0.0,0.0,0.0,0.0,0.0,0.0,0.0,0.0,0.0,0.0,0.0,0.0,0.0,0.0,0.0,0.0,0.0,0.0,0.0,0.0,0.0,0.0,0.0,0.0,0.0,0.0,0.0,0.0,0.0,0.0,0.0,0.0,0.0,0.0,0.0,0.0,0.0,0.0,0.0,0.0,0.0,0.0,0.0,0.0,0.0,0.0,0.0,0.0,0.0,0.0,0.0,0.0,0.0,0.0,0.0,0.0,0.0,0.0,-0.9261,-0.9231,-0.9512,-0.9515,-0.9126,0.0,0.0,0.0,0.0,0.0,0.0,0.0,0.0,0.0,0.0,0.0,0.0,0.0,0.0,0.0,0.0,0.0,0.0,0.0,0.0,0.0,0.0,0.0,0.0,0.0,0.0,0.0,0.0,0.0,0.0,0.0,0.0,0.0,0.0,0.0,0.0,0.0,0.0,0.0,0.0,0.0,0.0,0.0,0.0,0.0,0.0,0.0,0.0,0.0,0.0,0.0,0.0,0.0,0.0,0.0,0.0,0.0,0.0,0.0,0.0,0.0,0.0,0.0,0.0,0.0,0.0,0.0,0.0,0.0,0.0,0.0,0.0,0.0,0.0,0.0,0.0,0.0,0.0,0.0,0.0,0.0,0.0,0.0,0.0,0.0,0.0,0.0,0.0,0.0,0.0,0.0,0.0,0.0,0.0,0.0,0.0,0.0,0.0,0.0,0.0,0.0,0.0,0.0,0.0,0.0,0.0,0.0,0.0,0.0,0.0,0.0,0.0,-0.9227,-0.9092,-0.9092,0.0,0.0,0.0,0.0,0.0,0.0,0.0,0.0,0.0,0.0,0.0,0.0,0.0,0.0,0.0,0.0,0.0,0.0,0.0,0.0,0.0,0.0,0.0,0.0,0.0,0.0,0.0,0.0,0.0,0.0,0.0,0.0,0.0,0.0,0.0,0.0,0.0,0.0,0.0,0.0,0.0,0.0,0.0,0.0,0.0,0.0,0.0,0.0,0.0,0.0,0.0,0.0,0.0,0.0,0.0,0.0,0.0,0.0,0.0,0.0,0.0,0.0,0.0,0.0,0.0,0.0,0.0,0.0,0.0,0.0,0.0,0.0,0.0,0.0,0.0,0.0,0.0,0.0,0.0,0.0,0.0,0.0,0.0,0.0,0.0,0.0,0.0,0.0,0.0,0.0,0.0,0.0,0.0,0.0,0.0,0.0,0.0,0.0,0.0,0.0,0.0,0.0,0.0,0.0,0.0,0.0,0.0,0.0,0.0,0.0,-0.953,-1.0187,-0.9489,0.0,-0.9099,0.0,0.0,0.0,0.0,0.0,0.0,0.0,0.0,0.0,0.0,0.0,0.0,0.0,0.0,0.0,0.0,0.0,0.0,0.0,0.0,0.0,0.0,0.0,0.0,0.0,0.0,0.0,0.0,0.0,0.0,0.0,0.0,0.0,0.0,0.0,0.0,0.0,0.0,0.0,0.0,0.0,0.0,0.0,0.0,0.0,0.0,0.0,0.0,0.0,0.0,0.0,0.0,0.0,0.0,0.0,0.0,0.0,0.0,0.0,0.0,0.0,0.0,0.0,0.0,0.0,0.0,0.0,0.0,0.0,0.0,0.0,0.0,0.0,0.0,0.0,0.0,0.0,0.0,0.0,0.0,0.0,0.0,0.0,0.0,0.0,0.0,0.0,0.0,0.0,0.0,0.0,0.0,0.0,0.0,0.0,0.0,0.0,0.0,0.0,0.0,0.0,0.0,0.0,0.0,0.0,0.0,0.0,0.0,0.0,0.0,-1.0008,-1.0285,-0.995,-0.983,0.0,0.0,0.0,0.0,0.0,0.0,0.0,0.0,0.0,0.0,0.0,0.0,0.0,0.0,0.0,0.0,0.0,0.0,0.0,0.0,0.0,0.0,0.0,0.0,0.0,0.0,0.0,0.0,0.0,0.0,0.0,0.0,0.0,0.0,0.0,0.0,0.0,0.0,0.0,0.0,0.0,0.0,0.0,0.0,0.0,0.0,0.0,0.0,0.0,0.0,0.0,0.0,0.0,0.0,0.0,0.0,0.0,0.0,0.0,0.0,0.0,0.0,0.0,0.0,0.0,0.0,0.0,0.0,0.0,0.0,0.0,0.0,0.0,0.0,0.0,0.0,0.0,0.0,0.0,0.0,0.0,0.0,0.0,0.0,0.0,0.0,0.0,0.0,0.0,0.0,0.0,0.0,0.0,0.0,0.0,0.0,0.0,0.0,0.0,0.0,0.0,0.0,0.0,0.0,0.0,0.0,0.0,0.0,0.0,0.0,-0.991,-1.0388,-1.0554,-1.0529,-1.0402,-1.0154,0.0,0.0,0.0,0.0,0.0,0.0,0.0,0.0,0.0,0.0,0.0,0.0,0.0,0.0,0.0,0.0,0.0,0.0,0.0,0.0,0.0,0.0,0.0,0.0,0.0,0.0,0.0,0.0,0.0,0.0,0.0,0.0,0.0,0.0,0.0,0.0,0.0,0.0,0.0,0.0,0.0,0.0,0.0,0.0,0.0,0.0,0.0,0.0,0.0,0.0,0.0,0.0,0.0,0.0,0.0,0.0,0.0,0.0,0.0,0.0,0.0,0.0,0.0,0.0,0.0,0.0,0.0,0.0,0.0,0.0,0.0,0.0,0.0,0.0,0.0,0.0,0.0,0.0,0.0,0.0,0.0,0.0,0.0,0.0,0.0,0.0,0.0,0.0,0.0,0.0,0.0,0.0,0.0,0.0,0.0,0.0,0.0,0.0,0.0,0.0,0.0,0.0,0.0,0.0,0.0,0.0,0.0,0.0,-0.9151,-0.9898,-1.0623,-1.1264,-1.1267,-1.0577,0.0,0.0,0.0,0.0,0.0,0.0,0.0,0.0,0.0,0.0,0.0,0.0,0.0,0.0,0.0,0.0,0.0,0.0,0.0,0.0,0.0,0.0,0.0,0.0,0.0,0.0,0.0,0.0,0.0,0.0,0.0,0.0,0.0,0.0,0.0,0.0,0.0,0.0,0.0,0.0,0.0,0.0,0.0,0.0,0.0,0.0,0.0,0.0,0.0,0.0,0.0,0.0,0.0,0.0,0.0,0.0,0.0,0.0,0.0,0.0,0.0,0.0,0.0,0.0,0.0,0.0,0.0,0.0,0.0,0.0,0.0,0.0,0.0,0.0,0.0,0.0,0.0,0.0,0.0,0.0,0.0,0.0,0.0,0.0,0.0,0.0,0.0,0.0,0.0,0.0,0.0,0.0,0.0,0.0,0.0,0.0,0.0,0.0,0.0,0.0,0.0,0.0,0.0,0.0,0.0,0.0,0.0,0.0,0.0,-1.0544,-1.1321,-1.1998,-1.2593,-1.1727,-1.0991,0.0,0.0,0.0,0.0,0.0,0.0,0.0,0.0,0.0,0.0,0.0,0.0,0.0,0.0,0.0,0.0,0.0,0.0,0.0,0.0,0.0,0.0,0.0,0.0,0.0,0.0,0.0,0.0,0.0,0.0,0.0,0.0,0.0,0.0,0.0,0.0,0.0,0.0,0.0,0.0,0.0,0.0,0.0,0.0,0.0,0.0,0.0,0.0,0.0,0.0,0.0,0.0,0.0,0.0,0.0,0.0,0.0,0.0,0.0,0.0,0.0,0.0,0.0,0.0,0.0,0.0,0.0,0.0,0.0,0.0,0.0,0.0,0.0,0.0,0.0,0.0,0.0,0.0,0.0,0.0,0.0,0.0,0.0,0.0,0.0,0.0,0.0,0.0,0.0,0.0,0.0,0.0,0.0,0.0,0.0,0.0,0.0,0.0,0.0,0.0,0.0,0.0,0.0,0.0,0.0,0.0,0.0,0.0,0.0,-1.1646,-1.2175,-1.2728,-1.3261,-1.2146,-1.1393,0.0,0.0,0.0,0.0,0.0,0.0,0.0,0.0,0.0,0.0,0.0,0.0,0.0,0.0,0.0,0.0,0.0,0.0,0.0,0.0,0.0,0.0,0.0,0.0,0.0,0.0,0.0,0.0,0.0,0.0,0.0,0.0,0.0,0.0,0.0,0.0,0.0,0.0,0.0,0.0,0.0,0.0,0.0,0.0,0.0,0.0,0.0,0.0,0.0,0.0,0.0,0.0,0.0,0.0,0.0,0.0,0.0,0.0,0.0,0.0,0.0,0.0,0.0,0.0,0.0,0.0,0.0,0.0,0.0,0.0,0.0,0.0,0.0,0.0,0.0,0.0,0.0,0.0,0.0,0.0,0.0,0.0,0.0,0.0,0.0,0.0,0.0,0.0,0.0,0.0,0.0,0.0,0.0,0.0,0.0,0.0,0.0,0.0,0.0,0.0,0.0,0.0,0.0,0.0,0.0,0.0,0.0,0.0,-1.0912,-1.2241,-1.2343,-1.2687,-1.3176,-1.2489,-1.1774,0.0,0.0,0.0,0.0,0.0,0.0,0.0,0.0,0.0,0.0,0.0,0.0,0.0,0.0,0.0,0.0,0.0,0.0,0.0,0.0,0.0,0.0,0.0,0.0,0.0,0.0,0.0,0.0,0.0,0.0,0.0,0.0,0.0,0.0,0.0,0.0,0.0,0.0,0.0,0.0,0.0,0.0,0.0,0.0,0.0,0.0,0.0,0.0,0.0,0.0,0.0,0.0,0.0,0.0,0.0,0.0,0.0,0.0,0.0,0.0,0.0,0.0,0.0,0.0,0.0,0.0,0.0,0.0,0.0,0.0,0.0,0.0,0.0,0.0,0.0,0.0,0.0,0.0,0.0,0.0,0.0,0.0,0.0,0.0,0.0,0.0,0.0,0.0,0.0,0.0,0.0,0.0,0.0,0.0,0.0,0.0,0.0,0.0,0.0,0.0,0.0,0.0,0.0,0.0,0.0,0.0,0.0,0.0,0.0,-1.2841,-1.3411,-1.3707,-1.3724,-1.303,-1.2556,0.0,0.0,0.0,0.0,0.0,0.0,0.0,0.0,0.0,0.0,0.0,0.0,0.0,0.0,0.0,0.0,0.0,0.0,0.0,0.0,0.0,0.0,0.0,0.0,0.0,0.0,0.0,0.0,0.0,0.0,0.0,0.0,0.0,0.0,0.0,0.0,0.0,0.0,0.0,0.0,0.0,0.0,0.0,0.0,0.0,0.0,0.0,0.0,0.0,0.0,0.0,0.0,0.0,0.0,0.0,0.0,0.0,0.0,0.0,0.0,0.0,0.0,0.0,0.0,0.0,0.0,0.0,0.0,0.0,0.0,0.0,0.0,0.0,0.0,0.0,0.0,0.0,0.0,0.0,0.0,0.0,0.0,0.0,0.0,0.0,0.0,0.0,0.0,0.0,0.0,0.0,0.0,0.0,0.0,0.0,0.0,0.0,0.0,0.0,0.0,0.0,0.0,0.0,0.0,0.0,0.0,0.0,0.0,0.0,-1.4894,-1.4961,-1.4887,-1.4681,-1.3946,-1.3325,-1.277,0.0,0.0,0.0,0.0,0.0,0.0,0.0,0.0,0.0,0.0,0.0,0.0,0.0,0.0,0.0,0.0,0.0,0.0,0.0,0.0,0.0,0.0,0.0,0.0,0.0,0.0,0.0,0.0,0.0,0.0,0.0,0.0,0.0,0.0,0.0,0.0,0.0,0.0,0.0,0.0,0.0,0.0,0.0,0.0,0.0,0.0,0.0,0.0,0.0,0.0,0.0,0.0,0.0,0.0,0.0,0.0,0.0,0.0,0.0,0.0,0.0,0.0,0.0,0.0,0.0,0.0,0.0,0.0,0.0,0.0,0.0,0.0,0.0,0.0,0.0,0.0,0.0,0.0,0.0,0.0,0.0,0.0,0.0,0.0,0.0,0.0,0.0,0.0,0.0,0.0,0.0,0.0,0.0,0.0,0.0,0.0,0.0,0.0,0.0,0.0,0.0,0.0,0.0,0.0,0.0,0.0,0.0,0.0,-1.8022,-1.6978,-1.6305,-1.5935,-1.5216,-1.4098,0.0,0.0,0.0,0.0,0.0,0.0,0.0,0.0,0.0,0.0,0.0,0.0,0.0,0.0,0.0,0.0,0.0,0.0,0.0,0.0,0.0,0.0,0.0,0.0,0.0,0.0,0.0,0.0,0.0,0.0,0.0,0.0,0.0,0.0,0.0,0.0,0.0,0.0,0.0,0.0,0.0,0.0,0.0,0.0,0.0,0.0,0.0,0.0,0.0,0.0,0.0,0.0,0.0,0.0,0.0,0.0,0.0,0.0,0.0,0.0,0.0,0.0,0.0,0.0,0.0,0.0,0.0,0.0,0.0,0.0,0.0,0.0,0.0,0.0,0.0,0.0,0.0,0.0,0.0,0.0,0.0,0.0,0.0,0.0,0.0,0.0,0.0,0.0,0.0,0.0,0.0,0.0,0.0,0.0,0.0,0.0,0.0,0.0,0.0,0.0,0.0,0.0,0.0,0.0,0.0,0.0,0.0,0.0,0.0,-1.8582,-1.9808,-1.959,-1.7791,-1.6622,-1.4872,0.0,0.0,0.0,0.0,0.0,0.0,0.0,0.0,0.0,0.0,0.0,0.0,0.0,0.0,0.0,0.0,0.0,0.0,0.0,0.0,0.0,0.0,0.0,0.0,0.0,0.0,0.0,0.0,0.0,0.0,0.0,0.0,0.0,0.0,0.0,0.0,0.0,0.0,0.0,0.0,0.0,0.0,0.0,0.0,0.0,0.0,0.0,0.0,0.0,0.0,0.0,0.0,0.0,0.0,0.0,0.0,0.0,0.0,0.0,0.0,0.0,0.0,0.0,0.0,0.0,0.0,0.0,0.0,0.0,0.0,0.0,0.0,0.0,0.0,0.0,0.0,0.0,0.0,0.0,0.0,0.0,0.0,0.0,0.0,0.0,0.0,0.0,0.0,0.0,0.0,0.0,0.0,0.0,0.0,0.0,0.0,0.0,0.0,0.0,0.0,0.0,0.0,0.0,0.0,0.0,0.0,0.0,0.0,-1.8429,-2.0036,-2.1453,-2.1608,-2.0362,-1.833,-1.6196,0.0,0.0,0.0,0.0,0.0,0.0,0.0,0.0,0.0,0.0,0.0,0.0,0.0,0.0,0.0,0.0,0.0,0.0,0.0,0.0,0.0,0.0,0.0,0.0,0.0,0.0,0.0,0.0,0.0,0.0,0.0,0.0,0.0,0.0,0.0,0.0,0.0,0.0,0.0,0.0,0.0,0.0,0.0,0.0,0.0,0.0,0.0,0.0,0.0,0.0,0.0,0.0,0.0,0.0,0.0,0.0,0.0,0.0,0.0,0.0,0.0,0.0,0.0,0.0,0.0,0.0,0.0,0.0,0.0,0.0,0.0,0.0,0.0,0.0,0.0,0.0,0.0,0.0,0.0,0.0,0.0,0.0,0.0,0.0,0.0,0.0,0.0,0.0,0.0,0.0,0.0,0.0,0.0,0.0,0.0,0.0,0.0,0.0,0.0,0.0,0.0,0.0,0.0,0.0,0.0,0.0,0.0,0.0,-1.972,-2.1745,-2.2304,-2.2701,-2.292,-2.0043,-1.7745,0.0,0.0,0.0,0.0,0.0,0.0,0.0,0.0,0.0,0.0,0.0,0.0,0.0,0.0,0.0,0.0,0.0,0.0,0.0,0.0,0.0,0.0,0.0,0.0,0.0,0.0,0.0,0.0,0.0,0.0,0.0,0.0,0.0,0.0,0.0,0.0,0.0,0.0,0.0,0.0,0.0,0.0,0.0,0.0,0.0,0.0,0.0,0.0,0.0,0.0,0.0,0.0,0.0,0.0,0.0,0.0,0.0,0.0,0.0,0.0,0.0,0.0,0.0,0.0,0.0,0.0,0.0,0.0,0.0,0.0,0.0,0.0,0.0,0.0,0.0,0.0,0.0,0.0,0.0,0.0,0.0,0.0,0.0,0.0,0.0,0.0,0.0,0.0,0.0,0.0,0.0,0.0,0.0,0.0,0.0,0.0,0.0,0.0,0.0,0.0,0.0,0.0,0.0,0.0,0.0,0.0,0.0,0.0,-1.9905,-2.1835,-2.3056,-2.3561,-2.3313,-2.0775,-1.8484,0.0,0.0,0.0,0.0,0.0,0.0,0.0,0.0,0.0,0.0,0.0,0.0,0.0,0.0,0.0,0.0,0.0,0.0,0.0,0.0,0.0,0.0,0.0,0.0,0.0,0.0,0.0,0.0,0.0,0.0,0.0,0.0,0.0,0.0,0.0,0.0,0.0,0.0,0.0,0.0,0.0,0.0,0.0,0.0,0.0,0.0,0.0,0.0,-0.6353,0.0,0.0,0.0,0.0,0.0,0.0,0.0,0.0,0.0,0.0,0.0,0.0,0.0,0.0,0.0,0.0,0.0,0.0,0.0,0.0,0.0,0.0,0.0,0.0,0.0,0.0,0.0,0.0,0.0,0.0,0.0,0.0,0.0,0.0,0.0,0.0,0.0,0.0,0.0,0.0,0.0,0.0,0.0,0.0,0.0,0.0,0.0,0.0,0.0,0.0,0.0,0.0,0.0,0.0,0.0,0.0,0.0,0.0,0.0,-2.0291,-2.2149,-2.3501,-2.4088,-2.3822,-2.1842,-1.9625,0.0,0.0,0.0,0.0,0.0,0.0,0.0,0.0,0.0,0.0,0.0,0.0,0.0,0.0,0.0,0.0,0.0,0.0,0.0,0.0,0.0,0.0,0.0,0.0,0.0,0.0,0.0,0.0,0.0,0.0,0.0,0.0,0.0,0.0,0.0,0.0,0.0,0.0,0.0,0.0,0.0,0.0,0.0,0.0,0.0,0.0,0.0,0.0,0.0,0.0,0.0,0.0,0.0,0.0,0.0,0.0,0.0,0.0,0.0,0.0,0.0,0.0,0.0,0.0,0.0,0.0,0.0,0.0,0.0,0.0,0.0,0.0,0.0,0.0,0.0,0.0,0.0,0.0,0.0,0.0,0.0,0.0,0.0,0.0,0.0,0.0,0.0,0.0,0.0,0.0,0.0,0.0,0.0,0.0,0.0,0.0,0.0,0.0,0.0,0.0,0.0,0.0,0.0,0.0,0.0,0.0,0.0,-1.8504,-2.0804,-2.2566,-2.3688,-2.4292,-2.4334,-2.2832,-2.077,-1.8007,0.0,0.0,0.0,0.0,0.0,0.0,0.0,0.0,0.0,0.0,0.0,0.0,0.0,0.0,0.0,0.0,0.0,0.0,0.0,0.0,0.0,0.0,0.0,0.0,0.0,0.0,0.0,0.0,0.0,0.0,0.0,0.0,0.0,0.0,0.0,0.0,0.0,0.0,-0.5324,-0.6244,0.0,0.0,0.0,0.0,0.0,0.0,0.0,0.0,-0.7622,0.0,0.0,0.0,0.0,0.0,0.0,0.0,0.0,0.0,0.0,0.0,0.0,0.0,0.0,0.0,0.0,0.0,0.0,0.0,0.0,0.0,0.0,0.0,0.0,0.0,0.0,0.0,0.0,0.0,0.0,0.0,0.0,0.0,0.0,0.0,0.0,0.0,0.0,0.0,0.0,0.0,0.0,0.0,0.0,0.0,0.0,0.0,0.0,0.0,0.0,0.0,0.0,0.0,0.0,0.0,0.0,-1.6718,-1.8906,-2.0965,-2.2937,-2.3412,-2.3769,-2.4014,-2.2914,-2.1054,-1.8536,0.0,0.0,0.0,0.0,0.0,0.0,0.0,0.0,0.0,0.0,0.0,0.0,0.0,0.0,0.0,0.0,0.0,0.0,0.0,0.0,0.0,0.0,0.0,0.0,0.0,0.0,0.0,0.0,0.0,0.0,0.0,0.0,0.0,0.0,0.0,0.0,0.0,0.0,0.0,-0.6599,-0.7061,0.0,0.0,0.0,0.0,0.0,0.0,0.0,0.0,-0.7517,0.0,0.0,0.0,0.0,0.0,0.0,0.0,0.0,0.0,0.0,0.0,0.0,0.0,0.0,0.0,0.0,0.0,0.0,0.0,0.0,0.0,0.0,0.0,0.0,0.0,0.0,0.0,0.0,0.0,0.0,0.0,0.0,0.0,0.0,0.0,0.0,0.0,0.0,0.0,0.0,0.0,0.0,0.0,0.0,0.0,0.0,0.0,0.0,0.0,0.0,0.0,0.0,0.0,0.0,0.0,-1.6837,-1.9293,-2.1346,-2.2888,-2.3808,-2.4154,-2.3997,-2.2879,-2.1062,0.0,0.0,0.0,0.0,0.0,0.0,0.0,0.0,0.0,0.0,0.0,0.0,0.0,0.0,0.0,0.0,0.0,0.0,0.0,0.0,0.0,0.0,0.0,0.0,0.0,0.0,0.0,0.0,0.0,0.0,0.0,0.0,0.0,0.0,0.0,0.0,0.0,0.0,0.0,0.0,-0.6719,-0.7017,-0.7396,0.0,0.0,0.0,0.0,0.0,0.0,-0.7657,-0.7307,0.0,0.0,0.0,0.0,0.0,0.0,0.0,0.0,0.0,0.0,0.0,0.0,0.0,0.0,0.0,0.0,0.0,0.0,0.0,0.0,0.0,0.0,0.0,0.0,0.0,0.0,0.0,0.0,0.0,0.0,0.0,0.0,0.0,0.0,0.0,0.0,0.0,0.0,0.0,0.0,0.0,0.0,0.0,0.0,0.0,0.0,0.0,0.0,0.0,0.0,0.0,0.0,0.0,0.0,0.0,-1.6984,-1.9866,-2.1824,-2.2848,-2.417,-2.4473,-2.3705,-2.2623,-2.0854,0.0,0.0,0.0,0.0,0.0,0.0,0.0,0.0,0.0,0.0,0.0,0.0,0.0,0.0,0.0,0.0,0.0,0.0,0.0,0.0,0.0,0.0,0.0,0.0,0.0,0.0,0.0,0.0,0.0,0.0,0.0,0.0,0.0,0.0,0.0,0.0,0.0,0.0,0.0,0.0,0.0,-0.6951,-0.7205,-0.7148,0.0,0.0,0.0,0.0,-0.7646,-0.7315,0.0,0.0,0.0,0.0,0.0,0.0,0.0,0.0,0.0,0.0,0.0,0.0,0.0,0.0,0.0,0.0,0.0,0.0,0.0,0.0,0.0,0.0,0.0,0.0,0.0,0.0,0.0,0.0,0.0,0.0,0.0,0.0,0.0,0.0,0.0,0.0,0.0,0.0,0.0,0.0,0.0,0.0,0.0,0.0,0.0,0.0,0.0,0.0,0.0,0.0,0.0,0.0,0.0,0.0,0.0,0.0,-1.8046,-2.0587,-2.2318,-2.3144,-2.4037,-2.3986,-2.2778,-2.1897,-2.0159,0.0,0.0,0.0,0.0,0.0,0.0,0.0,0.0,0.0,0.0,0.0,0.0,0.0,0.0,0.0,0.0,0.0,0.0,0.0,0.0,0.0,0.0,0.0,0.0,0.0,0.0,0.0,0.0,0.0,0.0,0.0,0.0,0.0,0.0,0.0,0.0,0.0,0.0,0.0,0.0,0.0,-0.6874,-0.7083,-0.7238,-0.7107,0.0,0.0,-0.7072,-0.7164,-0.6979,0.0,0.0,0.0,0.0,0.0,0.0,0.0,0.0,0.0,0.0,0.0,0.0,0.0,0.0,0.0,0.0,0.0,0.0,0.0,0.0,0.0,0.0,0.0,0.0,0.0,0.0,0.0,0.0,0.0,0.0,0.0,0.0,0.0,0.0,0.0,0.0,0.0,0.0,0.0,0.0,0.0,0.0,0.0,0.0,0.0,0.0,0.0,0.0,0.0,0.0,0.0,0.0,0.0,0.0,0.0,-1.6806,-1.8242,-2.1175,-2.2865,-2.3241,-2.4259,-2.4109,-2.2644,-2.1568,-1.982,0.0,0.0,0.0,0.0,0.0,0.0,0.0,0.0,0.0,0.0,0.0,0.0,0.0,0.0,0.0,0.0,0.0,0.0,0.0,0.0,0.0,0.0,0.0,0.0,0.0,0.0,0.0,0.0,0.0,0.0,0.0,0.0,0.0,0.0,0.0,0.0,0.0,0.0,0.0,0.0,0.0,0.0,-0.6569,-0.6673,0.0,0.0,0.0,-0.6509,-0.6509,0.0,0.0,0.0,0.0,0.0,0.0,0.0,0.0,0.0,0.0,0.0,0.0,0.0,0.0,0.0,0.0,0.0,0.0,0.0,0.0,0.0,0.0,0.0,0.0,0.0,0.0,0.0,0.0,0.0,0.0,0.0,0.0,0.0,0.0,0.0,0.0,0.0,0.0,0.0,0.0,0.0,0.0,0.0,0.0,0.0,0.0,0.0,0.0,0.0,0.0,0.0,0.0,0.0,0.0,0.0,0.0,0.0,-1.8383,-2.1574,-2.3136,-2.3057,-2.4215,-2.3963,-2.2252,-2.1238,0.0,0.0,0.0,0.0,0.0,0.0,0.0,0.0,0.0,0.0,0.0,0.0,0.0,0.0,0.0,0.0,0.0,0.0,0.0,0.0,0.0,0.0,0.0,0.0,0.0,0.0,0.0,-0.4617,0.0,0.0,0.0,0.0,0.0,0.0,0.0,0.0,0.0,0.0,0.0,0.0,0.0,0.0,-0.6067,-0.6108,-0.6342,-0.6362,0.0,0.0,-0.6061,-0.6014,-0.6,-0.5859,0.0,0.0,0.0,0.0,0.0,0.0,0.0,0.0,0.0,0.0,0.0,0.0,0.0,0.0,0.0,0.0,0.0,0.0,0.0,0.0,0.0,0.0,0.0,0.0,0.0,0.0,0.0,0.0,0.0,0.0,0.0,0.0,0.0,0.0,0.0,0.0,0.0,0.0,0.0,0.0,0.0,0.0,0.0,0.0,0.0,0.0,0.0,0.0,0.0,0.0,0.0,0.0,0.0,0.0,0.0,-1.8863,-2.1694,-2.2964,-2.2603,-2.3698,-2.3256,-2.1075,-2.0538,-1.9074,0.0,0.0,0.0,0.0,0.0,0.0,0.0,0.0,0.0,0.0,0.0,0.0,0.0,0.0,0.0,0.0,0.0,0.0,0.0,0.0,0.0,0.0,0.0,0.0,0.0,0.0,0.0,0.0,0.0,0.0,0.0,0.0,0.0,0.0,0.0,0.0,0.0,0.0,0.0,0.0,0.0,-0.6106,-0.5918,-0.653,-0.6721,0.0,0.0,-0.6062,-0.5838,-0.569,-0.551,-0.51,0.0,0.0,0.0,0.0,0.0,0.0,0.0,0.0,0.0,0.0,0.0,0.0,0.0,0.0,0.0,0.0,0.0,0.0,0.0,0.0,0.0,0.0,0.0,0.0,0.0,0.0,0.0,0.0,0.0,0.0,0.0,0.0,0.0,0.0,0.0,0.0,0.0,0.0,0.0,0.0,0.0,0.0,0.0,0.0,0.0,0.0,0.0,0.0,0.0,0.0,0.0,0.0,0.0,-1.6944,-1.8607,-2.0719,-2.1941,-2.2076,-2.2859,-2.2546,-2.1043,-2.0258,-1.8964,0.0,0.0,0.0,0.0,0.0,0.0,0.0,0.0,0.0,0.0,0.0,0.0,0.0,0.0,0.0,0.0,0.0,0.0,0.0,0.0,0.0,0.0,0.0,0.0,0.0,0.0,0.0,0.0,-0.5991,-0.582,-0.54,0.0,0.0,0.0,0.0,0.0,0.0,0.0,0.0,0.0,0.0,-0.5918,-0.6023,-0.6349,0.0,0.0,-0.6277,-0.6211,-0.5916,-0.5731,-0.5486,-0.5035,-0.4816,0.0,0.0,0.0,0.0,0.0,0.0,0.0,0.0,0.0,0.0,0.0,0.0,0.0,0.0,0.0,0.0,0.0,0.0,0.0,0.0,0.0,0.0,0.0,0.0,0.0,0.0,0.0,0.0,0.0,0.0,0.0,0.0,0.0,0.0,0.0,0.0,0.0,0.0,0.0,0.0,0.0,0.0,0.0,0.0,0.0,0.0,0.0,0.0,0.0,0.0,0.0,0.0,-1.6815,-1.831,-2.0235,-2.1255,-2.1375,-2.2038,-2.1861,-2.0815,-2.003,-1.895,0.0,0.0,0.0,0.0,0.0,0.0,0.0,0.0,0.0,0.0,0.0,0.0,0.0,0.0,0.0,0.0,0.0,0.0,0.0,0.0,0.0,0.0,0.0,0.0,0.0,0.0,0.0,0.0,-0.6185,-0.5812,-0.5056,0.0,0.0,0.0,0.0,0.0,0.0,0.0,0.0,0.0,0.0,-0.5931,-0.6059,-0.6278,-0.6372,-0.6304,-0.6198,-0.6039,-0.5747,-0.5642,-0.5374,-0.4991,0.0,0.0,0.0,0.0,0.0,0.0,0.0,0.0,0.0,0.0,0.0,0.0,0.0,0.0,0.0,0.0,0.0,0.0,0.0,0.0,0.0,0.0,0.0,0.0,0.0,0.0,0.0,0.0,0.0,0.0,-0.5078,0.0,0.0,0.0,0.0,0.0,0.0,0.0,0.0,0.0,0.0,0.0,0.0,0.0,0.0,0.0,0.0,0.0,0.0,0.0,0.0,0.0,0.0,-1.6954,-1.8129,-2.0434,-2.1219,-2.0437,-2.1342,-2.1257,-1.9992,-1.9924,-1.9119,-1.7445,0.0,0.0,0.0,0.0,0.0,0.0,0.0,0.0,0.0,0.0,0.0,0.0,0.0,0.0,0.0,0.0,0.0,0.0,0.0,0.0,0.0,0.0,0.0,0.0,0.0,0.0,-0.6422,-0.6026,-0.5413,0.0,0.0,0.0,0.0,0.0,0.0,0.0,0.0,0.0,0.0,-0.5791,-0.6264,-0.6121,-0.6226,-0.6215,-0.6008,-0.5744,-0.5463,-0.5316,-0.5162,-0.5077,0.0,0.0,0.0,0.0,0.0,0.0,0.0,0.0,0.0,0.0,0.0,0.0,0.0,0.0,0.0,0.0,0.0,0.0,0.0,0.0,0.0,0.0,0.0,0.0,0.0,0.0,0.0,-0.7856,-0.7753,0.0,0.0,0.0,0.0,0.0,0.0,0.0,0.0,0.0,0.0,0.0,-1.5541,-1.6291,0.0,0.0,0.0,0.0,0.0,0.0,0.0,0.0,0.0,0.0,0.0,0.0,-1.6963,-1.824,-1.9202,-1.9821,-2.0125,-2.0403,-2.03,-1.976,-1.9371,-1.8689,-1.7481,0.0,0.0,0.0,0.0,0.0,0.0,0.0,0.0,0.0,0.0,0.0,0.0,0.0,0.0,0.0,0.0,0.0,0.0,0.0,0.0,0.0,0.0,0.0,0.0,0.0,-0.6031,0.0,0.0,0.0,0.0,0.0,0.0,0.0,0.0,0.0,0.0,0.0,-0.3971,-0.4305,-0.4869,-0.5272,-0.5484,-0.5616,-0.5584,0.0,0.0,0.0,0.0,0.0,0.0,0.0,0.0,0.0,0.0,0.0,0.0,0.0,0.0,-0.2342,-0.2575,-0.2808,-0.291,-0.2965,0.0,0.0,0.0,0.0,0.0,0.0,0.0,0.0,0.0,0.0,0.0,0.0,0.0,0.0,-1.0024,0.0,-0.9743,0.0,0.0,0.0,0.0,0.0,0.0,0.0,0.0,-1.5691,-1.7074,-1.7485,-1.8035,-1.8209,0.0,-1.716,-1.6169,0.0,0.0,0.0,0.0,0.0,0.0,0.0,0.0,-1.71,-1.7891,-1.8536,-1.908,-1.9552,-1.9749,-1.9736,-1.9605,-1.9083,-1.8449,-1.7686,-1.6535,-1.51,0.0,0.0,0.0,0.0,0.0,0.0,0.0,0.0,0.0,0.0,0.0,0.0,0.0,0.0,0.0,0.0,0.0,0.0,0.0,0.0,0.0,0.0,0.0,-0.5892,0.0,0.0,0.0,0.0,0.0,0.0,0.0,0.0,0.0,-0.2667,-0.314,-0.3476,-0.373,-0.4232,-0.4706,-0.5035,0.0,0.0,0.0,0.0,0.0,0.0,0.0,-0.3761,-0.3694,-0.3572,-0.3439,-0.3183,-0.2623,-0.2481,-0.3395,0.0,0.0,-0.2702,-0.2759,-0.2739,-0.2706,-0.284,-0.2904,-0.291,-0.2634,-0.2381,0.0,0.0,0.0,0.0,0.0,0.0,0.0,0.0,-1.3982,-1.2733,0.0,-1.2611,0.0,0.0,0.0,0.0,0.0,-1.2865,0.0,0.0,-1.8818,-2.0132,-1.9186,-1.957,-2.0105,-2.0471,-1.8326,-1.7787,-1.8622,-1.6712,0.0,0.0,0.0,0.0,0.0,0.0,-1.7311,-1.7236,-1.8512,-1.9104,-1.8881,-1.935,-1.9615,-1.9539,-1.8996,-1.8464,-1.8011,-1.6355,-1.4608,-1.2892,-1.2883,0.0,0.0,0.0,0.0,0.0,0.0,0.0,0.0,0.0,0.0,0.0,0.0,0.0,0.0,0.0,0.0,0.0,0.0,0.0,0.0,-0.5812,0.0,0.0,0.0,0.0,0.0,0.0,0.0,0.0,0.0,0.0,-0.2382,-0.2869,-0.3155,-0.3226,0.0,0.0,0.0,0.0,-0.4066,-0.4146,-0.3679,-0.3323,-0.3473,-0.3106,-0.2907,-0.3268,0.0,0.0,-0.3119,-0.26,-0.1997,-0.14,-0.1538,-0.2001,-0.302,-0.2575,-0.212,-0.21,-0.211,-0.2077,-0.217,-0.1735,-0.1146,-1.941,0.0,0.0,0.0,0.0,-1.5262,-1.5515,-1.6129,-1.5915,-1.5501,-1.4954,-1.5303,0.0,0.0,0.0,0.0,0.0,0.0,-1.6505,-1.7157,-1.91,-2.0087,-2.0276,-2.038,-2.0131,-1.9512,-1.9522,-1.9102,-1.8303,-1.865,-1.8065,-1.6694,0.0,0.0,0.0,0.0,-1.7634,-1.8056,-1.8623,-1.9073,-1.9207,-1.9344,-1.9341,-1.9274,-1.8532,-1.8409,-1.8741,-1.6593,-1.507,-1.4362,-1.415,0.0,0.0,0.0,0.0,0.0,0.0,0.0,0.0,0.0,0.0,0.0,0.0,0.0,0.0,0.0,0.0,0.0,0.0,0.0,-0.5949,-0.5783,-0.5587,0.0,0.0,0.0,0.0,0.0,0.0,0.0,0.0,0.0,-0.1602,-0.1929,-0.2203,0.0,0.0,-0.3124,-0.353,-0.3203,-0.2978,-0.2978,-0.2841,0.0,-0.2345,-0.2369,-0.2402,-0.2404,-0.2186,-0.2173,-0.2424,-0.1903,-0.1438,-0.1328,-0.1406,-0.1774,-0.2726,-0.2634,-0.2413,-0.2584,-0.2969,-0.3673,-0.467,-0.2633,-0.0,-2.1683,-1.9462,-1.8709,-1.8119,-1.76,-1.7085,-1.7306,-1.8018,-1.7785,-1.7368,-1.6943,-1.7505,-1.6546,-1.4463,-1.4489,0.0,0.0,0.0,-1.7909,-1.8728,-1.9908,-2.0508,-2.0612,-2.063,-2.0346,-1.9821,-1.9773,-1.9452,-1.8836,-1.9264,-1.8929,-1.7882,0.0,0.0,-1.7847,-1.789,-1.8115,-1.8526,-1.8733,-1.8933,-1.9253,-1.9208,-1.9208,-1.9075,-1.8375,-1.8183,-1.8478,-1.6388,-1.499,-1.4604,-1.4165,-1.3356,0.0,0.0,0.0,0.0,0.0,0.0,0.0,0.0,0.0,0.0,0.0,-0.7131,-0.6667,0.0,0.0,0.0,-0.6248,-0.611,-0.6079,-0.5856,0.0,0.0,0.0,0.0,0.0,0.0,0.0,-0.1924,-0.1563,-0.1379,-0.1338,-0.1431,-0.1522,-0.1746,-0.1936,-0.2182,-0.2519,0.0,-0.2119,-0.2041,-0.2093,-0.1998,-0.1845,-0.1822,-0.1802,-0.1729,-0.1654,-0.1578,-0.1803,-0.1522,-0.1236,-0.133,-0.1336,-0.1492,-0.212,-0.1962,-0.189,-0.2146,-0.239,-0.2965,-0.4168,-0.0,-0.0,-2.3686,-2.257,-2.0559,-2.0172,-2.0775,-1.9517,-1.9376,-1.9959,-1.9434,-1.8671,-1.7771,-1.9219,-1.8388,-1.5918,-1.5866,0.0,-1.8221,-1.826,-1.8878,-1.9917,-2.1015,-2.1159,-2.055,-2.0496,-2.0683,-2.0923,-1.9449,-1.9159,-1.9901,-1.9078,-1.8596,-1.8491,-1.9148,-1.907,-1.832,-1.849,-1.8693,-1.8807,-1.869,-1.877,-1.909,-1.9121,-1.9131,-1.9065,-1.8385,-1.7891,-1.7496,-1.5859,-1.453,-1.3924,-1.3331,-1.2925,-1.2672,0.0,0.0,0.0,0.0,0.0,0.0,0.0,0.0,0.0,0.0,0.0,0.0,0.0,0.0,0.0,-0.633,0.0,-0.6236,-0.5968,0.0,0.0,0.0,-0.396,-0.3763,-0.2731,-0.1973,-0.1812,0.0,0.0,-0.1431,-0.129,-0.1205,-0.1398,-0.1423,-0.1507,-0.1694,-0.1605,-0.1493,-0.1414,-0.1493,-0.165,-0.1803,-0.1567,-0.133,-0.133,-0.1258,-0.1254,-0.1332,-0.1255,-0.1256,-0.1178,-0.1257,-0.1415,-0.1414,-0.1259,-0.0873,-0.1458,-0.1135,-0.0904,-0.1873,-0.095,-0.0,-2.4142,-2.3845,-2.3339,-2.2566,-2.1648,-2.0946,-2.0651,-2.0646,-2.0527,-2.0259,-1.9926,-2.0332,-2.0109,-1.9481,-1.942,-1.9669,-2.0061,-2.0455,-2.061,-2.0555,-2.1185,-2.1198,-2.0675,-2.0527,-2.0283,-1.9957,-1.9718,-1.9472,-1.9358,-1.9184,-1.9094,-1.908,-1.9135,-1.9009,-1.8687,-1.8595,-1.8754,-1.902,-1.8965,-1.9017,-1.9121,-1.9131,-1.9131,-1.9131,-1.8385,-1.7736,-1.7055,-1.5566,-1.4412,-1.3652,-1.3494,-1.3334,-1.3242,-1.2007,0.0,0.0,0.0,0.0,0.0,0.0,0.0,0.0,0.0,-0.7949,-0.7235,0.0,-0.8032,0.0,-0.6694,-0.6584,-0.6558,-0.6264,0.0,0.0,-0.5176,-0.4305,-0.4001,-0.2885,-0.1984,-0.1732,-0.1447,-0.127,-0.1285,-0.1309,-0.1243,-0.1314,-0.132,-0.1322,-0.1392,-0.1402,-0.1336,-0.1336,-0.1336,-0.1415,-0.1415,-0.1336,-0.1336,-0.1336,-0.1022,-0.0864,-0.1258,-0.1022,-0.0707,-0.0471,-0.1256,-0.204,-0.2595,-0.2309,-0.2177,-0.2349,-0.1763,-0.1759,-0.3626,-0.1954,-0.0,-2.4302,-2.4261,-2.3867,-2.3157,-2.2296,-2.1969,-2.1506,-2.0961,-2.0924,-2.0875,-2.0775,-2.0712,-2.0856,-2.1028,-2.0817,-2.0843,-2.1028,-2.0824,-2.0579,-2.0309,-2.0346,-2.0333,-2.0182,-1.9875,-1.9741,-1.9724,-1.9566,-1.9376,-1.9188,-1.9285,-1.9262,-1.9208,-1.9142,-1.9073,-1.8952,-1.8877,-1.8947,-1.9131,-1.9131,-1.9065,-1.8942,-1.8942,-1.8942,-1.8808,-1.8114,-1.7813,-1.788,-1.6008,-1.4497,-1.3542,-1.3492,-1.3631,-1.3887,-1.2701,-1.1483,0.0,0.0,0.0,0.0,0.0,0.0,0.0,0.0,0.0,0.0,0.0,-0.8117,-0.725,-0.7012,-0.6899,-0.6818,-0.6648,-0.6623,-0.6724,-0.5392,-0.4444,-0.4232,-0.2993,-0.2034,-0.1744,-0.158,-0.1463,-0.1386,-0.1402,-0.1415,-0.1336,-0.1336,-0.1336,-0.1336,-0.1336,-0.1336,-0.1336,-0.1336,-0.1336,-0.1336,-0.1336,-0.1336,-0.1258,-0.1109,-0.0875,-0.0709,-0.048,-0.0243,-0.0081,-0.0648,-0.1863,-0.3736,-0.4097,-0.3802,-0.3046,-0.3104,-0.3438,-0.3924,-0.3162,-0.2279,-2.4399,-2.4342,-2.3363,-2.2844,-2.2663,-2.2618,-2.1969,-2.0997,-2.0997,-2.0961,-2.0888,-2.0762,-2.0987,-2.1355,-2.0935,-2.0974,-2.1303,-2.0283,-1.9798,-1.9747,-1.9239,-1.9198,-1.95,-1.9016,-1.9108,-1.9715,-1.9191,-1.9062,-1.9225,-1.923,-1.919,-1.9121,-1.9131,-1.9131,-1.9131,-1.9131,-1.9131,-1.9131,-1.9131,-1.9019,-1.8808,-1.8808,-1.8674,-1.8482,-1.7852,-1.7997,-1.8933,-1.6686,-1.4784,-1.3697,-1.3492,-1.3755,-1.4282,-1.3265,-1.2224,0.0,-1.055,0.0,0.0,0.0,0.0,0.0,0.0,0.0,0.0,-0.7673,-0.7906,-0.7253,-0.7212,-0.7163,-0.7001,-0.6989,-0.7068,-0.7017,-0.5702,-0.4753,-0.4613,-0.3295,-0.2359,-0.2204,-0.2171,-0.212,-0.204,-0.1963,-0.1884,-0.1728,-0.1813,-0.174,-0.158,-0.1419,-0.1338,-0.1344,-0.1348,-0.1277,-0.1275,-0.1272,-0.1193,-0.1194,-0.113,-0.0893,-0.0159,-0.0,-0.0,-0.0,-0.0337,-0.1596,-0.4811,-0.5415,-0.5086,-0.3628,-0.4486,-0.5029,-0.3951,-0.4346,-0.4953,-2.5035,-2.493,-2.3673,-2.292,-2.2498,-2.2109,-2.1582,-2.0924,-2.0938,-2.0825,-2.0712,-2.0712,-2.0764,-2.0856,-2.0751,-2.0764,-2.0806,-2.0118,-1.9798,-1.9747,-1.9251,-1.904,-1.9093,-1.875,-1.8637,-1.8779,-1.8666,-1.8682,-1.8757,-1.9019,-1.9114,-1.9131,-1.9131,-1.9131,-1.9131,0.0,0.0,0.0,-1.9131,-1.9008,-1.8818,-1.8808,-1.8674,-1.8337,-1.8202,0.0,-1.8567,-1.7107,-1.5576,-1.4045,-1.3673,0.0,0.0,0.0,0.0,0.0,0.0,0.0,0.0,0.0,0.0,0.0,-0.8856,-0.8388,-0.743,-0.7491,-0.7488,-0.7093,-0.7139,-0.7212,-0.7179,-0.7171,-0.7228,-0.7366,-0.646,-0.5924,-0.5851,-0.4873,-0.4194,-0.4194,-0.4053,-0.383,-0.3604,-0.36,-0.3524,-0.3299,-0.3421,-0.3308,-0.2925,-0.1996,-0.1356,-0.1319,-0.1409,-0.1329,-0.1331,-0.1079,-0.0993,-0.0666,-0.0417,-0.025,-0.0,-0.0,-0.0,-0.0088,-0.1292,-0.2523,-0.3451,-0.4522,-0.5446,-0.5084,-0.5339,-0.5542,-0.5119,-0.5323,-0.5557,-2.5768,0.0,-2.4702,-2.3944,0.0,-2.2554,-2.1821,-2.1182,-2.1043,-2.0888,-2.0775,-2.0712,-2.0699,-2.0712,-2.0385,-2.0271,-2.0233,-1.9371,-1.8951,-1.8951,-1.8387,-1.829,-1.8536,-1.7984,-1.8011,-1.8372,-1.8305,-1.8369,-1.85,-1.8929,-1.9131,-1.9131,-1.9131,-1.9131,-1.9131,-1.9131,-1.9131,-1.9131,-1.9131,-1.8942,-1.8674,-1.8674,-1.8472,-1.8144,0.0,0.0,0.0,0.0,0.0,0.0,0.0,0.0,0.0,0.0,0.0,-1.3016,-1.2269,-1.1812,-1.1618,-1.1145,-1.0659,-1.0149,-0.9264,-0.8417,-0.7599,-0.7358,-0.7298,-0.7417,-0.7358,-0.7354,-0.7354,-0.7354,-0.7387,-0.7472,-0.6707,-0.6163,-0.6086,-0.5389,-0.4846,-0.4688,-0.4611,-0.447,-0.4216,-0.4218,-0.4163,-0.4042,-0.4089,-0.4138,-0.4087,-0.3373,-0.2707,-0.2763,-0.2436,-0.2267,-0.2351,-0.2436,-0.2353,-0.2102,-0.1695,-0.1448,-0.1446,-0.0602,-0.0262,-0.1248,-0.2992,-0.426,-0.4346,-0.4998,-0.5654,-0.5648,-0.5692,-0.5708,-0.5581,-0.5659,-0.5676,-2.6458,-2.6352,-2.5506,-2.4825,-2.4155,-2.3078,-2.2213,-2.1616,0.0,0.0,0.0,-2.0762,-2.0699,-2.0649,-2.0169,-1.9914,-1.9747,-1.8738,-1.8201,-1.8093,-1.7534,-1.7534,-1.7941,-1.7279,-1.7364,-1.7986,-1.7899,-1.7947,-1.8278,-1.8733,-1.8992,-1.9131,-1.9131,-1.9131,-1.9131,-1.9131,-1.9131,-1.9131,-1.9131,-1.8942,-1.8482,-1.8482,-1.8269,-1.7794,-1.7157,-1.6917,-1.6948,-1.5936,-1.4952,-1.4091,-1.4297,-1.4095,-1.3499,-1.3127,-1.3046,-1.3244,-1.2565,-1.2179,-1.2287,-1.1657,-1.1247,-1.1093,-0.9604,-0.8493,-0.7992,-0.7472,-0.733,-0.7762,-0.7573,-0.748,-0.748,-0.748,-0.748,-0.748,-0.6861,-0.6395,-0.6398,-0.5805,-0.5433,-0.5188,-0.5216,-0.5097,-0.4874,-0.489,-0.4757,-0.4675,-0.4787,-0.4835,-0.5318,-0.4784,-0.4151,-0.4061,-0.3652,-0.3398,-0.3562,-0.3996,-0.4242,-0.3835,-0.3709,-0.3651,-0.3304,-0.2115,-0.1785,-0.3126,-0.4752,-0.5471,-0.5654,-0.5644,-0.5741,-0.5733,-0.5733,-0.5733,-0.5733,-0.5733,-0.576,-2.6851,-2.6296,-2.4959,-2.4033,-2.3475,-2.2751,-2.2351,-2.2205,-2.1157,-2.0762,-2.0712,-2.0699,-2.0699,-2.0699,-2.0599,-2.0271,-1.9747,-1.9133,-1.859,0.0,-1.7534,-1.7334,-1.7379,-1.7123,-1.6987,-1.7048,-1.7275,-1.7488,-1.7833,-1.8278,-1.8671,-1.9034,-1.9131,-1.9142,-1.9131,-1.9131,-1.9131,-1.9131,-1.9131,-1.8875,-1.8482,-1.8482,-1.793,-1.6881,-1.6742,-1.6097,-1.5021,-1.5182,-1.4745,-1.3693,-1.365,-1.36,-1.3492,-1.3193,-1.2893,-1.2526,-1.267,-1.2788,-1.2757,-1.2538,-1.1964,-1.1105,-0.9604,-0.8698,-0.8779,-0.7996,-0.746,-0.7521,-0.7496,-0.748,-0.748,-0.7484,-0.7484,-0.7488,-0.7407,-0.7253,-0.7045,-0.7006,-0.6846,-0.6679,-0.6884,-0.6791,-0.6486,-0.6493,-0.6423,-0.6386,-0.6232,-0.6506,-0.6427,-0.5849,-0.4918,-0.434,-0.4202,-0.4156,-0.432,-0.4696,-0.5034,-0.4968,-0.5772,-0.6054,-0.5687,-0.4996,-0.4656,-0.5193,-0.556,-0.5657,-0.5746,-0.5741,-0.5735,-0.5733,-0.5733,-0.5733,-0.5733,-0.5733,-0.5741,-2.7519,-2.6952,-2.6176,-2.5346,-2.4408,-2.3281,-2.2662,-2.2361,-2.1865,-2.1642,-2.1642,-2.1642,-2.1642,-2.1603,-2.1248,-2.097,-2.069,-1.9817,-1.9259,-1.8908,-1.8369,-1.8043,-1.8054,-1.7867,-1.7739,-1.7594,-1.7859,-1.8082,-1.8133,-1.8785,-1.9297,-1.9526,-1.9686,-1.9799,-1.981,-1.9799,-1.9799,-1.9799,-1.9256,-1.8808,-1.8482,-1.8405,-1.8066,-1.7373,-1.695,-1.6428,-1.5677,-1.4775,-1.4291,-1.4314,-1.3825,-1.347,-1.3492,-1.3258,-1.2893,-1.2372,-1.2746,-1.2966,-1.2746,-1.2519,-1.2083,-1.118,-1.0051,-0.9185,-0.8831,-0.7992,-0.748,-0.748,-0.748,-0.748,-0.7484,-0.7411,-0.7374,-0.7473,-0.7317,-0.7277,-0.7285,-0.7281,-0.7248,-0.7089,-0.7062,-0.7058,-0.6979,-0.6905,-0.6943,-0.6926,-0.701,-0.7071,-0.7044,-0.6605,-0.6139,-0.5824,-0.5766,-0.5797,-0.5802,-0.5983,-0.6254,-0.6254,-0.6624,-0.6811,-0.6627,-0.6269,-0.6086,-0.6083,-0.6086,-0.6088,-0.6088,-0.6083,-0.6083,-0.6083,-0.608,-0.608,-0.6083,-0.608,-0.5997,-2.8024,-2.7515,-2.721,-2.6347,-2.5092,-2.393,-2.3171,-2.2805,-2.2766,-2.2753,-2.2727,-2.2546,-2.2387,-2.2346,-2.1911,-2.161,-2.1375,-2.0514,-1.9936,-1.9655,-1.9145,-1.8868,-1.8687,-1.8527,-1.8394,-1.8233,-1.8396,-1.848,-1.8464,-1.921,-1.9785,-1.9913,-2.0255,-2.041,-2.041,-2.041,-2.041,-2.0298,-1.953,-1.8937,-1.8632,-1.8397,-1.8134,-1.7725,-1.7226,-1.6706,-1.6314,-1.4798,-1.4268,-1.4792,-1.4008,-1.3492,-1.3492,-1.3266,-1.2966,-1.2673,-1.282,-1.2893,-1.2532,-1.2446,-1.2175,-1.1502,-1.0562,-0.9827,-0.914,-0.8132,-0.748,-0.7488,-0.7561,-0.7602,-0.7573,-0.752,-0.743,-0.7484,-0.7412,-0.7377,-0.7338,-0.739,-0.725,-0.7079,-0.7024,-0.702,-0.6943,-0.6976,-0.7014,-0.7099,-0.7139,-0.7139,-0.7139,-0.7139,-0.7139,-0.7139,-0.7139,-0.7051,-0.7139,-0.7051,-0.7051,-0.7139,-0.6969,-0.6884,-0.6792,-0.6697,-0.652,-0.652,-0.652,-0.652,-0.6428,-0.6428,-0.634,-0.6343,-0.6343,-0.634,-0.634,-0.634,-0.6254,-2.8073,-2.7464,-2.6849,-2.5728,-2.4509,-2.4213,-2.4058,-2.3916,-2.3955,-2.3942,-2.3799,-2.2858,-2.2439,-2.2413,-2.2359,-2.2073,-2.1605,-2.1387,-2.0779,-1.9819,-1.9655,-1.9324,-1.8802,-1.8538,-1.8323,-1.8233,-1.8133,-1.8218,-1.8433,-1.893,-1.9561,-2.0276,-2.04,-2.0441,-2.0441,-2.0441,-2.0431,-2.0349,-2.0012,-1.9575,-1.9153,-1.8546,-1.792,-1.701,-1.695,-1.6515,-1.5991,-1.5556,-1.5215,-1.4625,-1.4008,-1.3499,-1.3492,-1.3353,-1.328,-1.336,-1.2994,-1.2606,-1.2405,-1.2627,-1.2705,-1.2566,-1.1353,-1.0519,-1.0263,-0.8604,-0.7561,-0.7618,-0.786,-0.787,-0.7768,-0.7862,-0.7861,-0.782,-0.7827,-0.7839,-0.7722,-0.7571,-0.7495,-0.7328,-0.717,-0.7102,-0.7099,-0.7102,-0.7115,-0.7136,-0.7139,-0.7139,-0.7139,-0.7139,-0.7139,-0.7139,-0.7139,-0.7139,-0.7139,-0.7139,-0.7139,-0.7139,-0.7139,-0.7054,-0.7051,-0.7051,-0.6962,-0.6789,-0.6877,-0.6874,-0.6605,-0.6428,-0.6428,-0.6517,-0.6517,-0.6428,-0.6428,-0.6428,-0.6432,-2.8073,-2.7464,-2.721,-2.6254,-2.5007,-2.4509,-2.4189,-2.4112,-2.4125,-2.4125,-2.4073,-2.3616,-2.342,-2.342,-2.3406,-2.328,-2.3038,-2.2655,-2.1987,-2.1102,-2.0737,-2.0144,-1.955,-1.9349,-1.9222,-1.903,-1.8838,-1.8739,-1.8903,-1.9318,-1.9944,-2.0741,-2.0834,-2.0969,-2.1207,-2.1238,-2.1238,-2.1238,-2.0632,-2.0199,-1.9988,-1.928,-1.8679,-1.8395,-1.8314,-1.8171,-1.7812,-1.7343,-1.6978,-1.6715,-1.5963,-1.4891,-1.3587,-1.4201,-1.4487,-1.4146,-1.3682,-1.3376,-1.3286,-1.3417,-1.3162,-1.2524,-1.1994,-1.141,-1.0761,-0.9626,-0.9077,-0.9329,-0.8572,-0.7979,-0.7927,-0.7897,-0.7891,-0.7899,-0.7838,-0.7789,-0.7819,-0.7793,-0.7665,-0.7498,-0.7372,-0.7323,-0.7323,-0.7323,-0.7323,-0.7323,-0.7231,-0.7139,-0.7139,-0.7139,-0.7139,-0.7139,-0.7139,-0.7139,-0.7139,-0.7139,-0.7139,-0.7139,-0.7139,-0.7139,-0.7139,-0.7139,-0.7051,-0.6962,-0.7071,-0.7071,-0.6874,-0.6786,-0.6786,-0.6799,-0.6789,-0.6782,-0.6782,-0.6786,-0.6786,-2.8122,-2.773,-2.7399,-2.6573,-2.5342,-2.4694,-2.4261,-2.4112,-2.4125,-2.4125,-2.4125,-2.4125,-2.4125,-2.4125,-2.4125,-2.4125,-2.3995,-2.3412,-2.2713,-2.2051,-2.1376,-2.0688,-2.0085,-1.9813,-1.9671,-1.9539,-1.932,-1.9271,-1.9339,-1.9582,-2.0224,-2.099,-2.1114,-2.1352,-2.1766,-2.1807,-2.1807,-2.17,-2.1035,-2.0742,-2.0607,-2.0039,-1.9521,-1.9316,-1.9277,-1.9277,-1.9287,-1.872,-1.8276,-1.8184,-1.8052,-1.6905,-1.4688,-1.5229,-1.5342,-1.4621,-1.4152,-1.4073,-1.4301,-1.4165,-1.3705,-1.2894,-1.2648,-1.2166,-1.1364,-1.0789,-1.0521,-1.0455,-0.9663,-0.9051,-0.8821,-0.8301,-0.8058,-0.8345,-0.81,-0.7989,-0.8093,-0.8032,-0.7937,-0.7768,-0.7672,-0.7595,-0.768,-0.7764,-0.7937,-0.768,-0.7669,-0.7492,-0.7319,-0.7231,-0.7319,-0.7401,-0.7492,-0.7404,-0.7228,-0.7139,-0.7139,-0.7139,-0.7139,-0.7139,-0.7139,-0.7139,-0.7139,-0.7058,-0.7193,-0.7241,-0.7161,-0.7141,-0.7348,-0.7265,-0.7261,-0.7351,-0.7215,-0.7275,-0.7251,-2.8348,-2.8201,-2.721,-2.6254,-2.5356,-2.4821,-2.439,-2.4125,-2.4125,-2.4125,-2.4125,-2.4125,-2.4125,-2.4125,-2.4125,-2.4125,-2.3982,-2.3412,-2.2725,-2.2051,-2.1262,-2.0582,-1.9944,-1.955,-1.9341,-1.9341,-1.9208,-1.9328,-1.9655,-1.9796,-2.0213,-2.1052,-2.1073,-2.1331,-2.1745,-2.1807,-2.1741,-2.1492,-2.1221,-2.1078,-2.0857,-2.0653,-2.0078,-1.9434,-1.9307,-1.9346,-1.9346,-1.9242,-1.8955,-1.8276,-1.9541,-1.9231,-1.711,-1.6177,-1.5474,-1.465,-1.433,-1.4569,-1.501,-1.4607,-1.4209,-1.4061,-1.3352,-1.2738,-1.2512,-1.1904,-1.1328,-1.0606,-1.1039,-1.1068,-1.073,-0.9554,-0.9096,-0.9643,-0.9061,-0.8723,-0.8648,-0.8552,-0.8201,-0.8201,-0.8116,-0.794,-0.7944,-0.8627,-0.8544,-0.8201,-0.854,-0.8623,-0.7848,-0.7591,-0.7848,-0.8281,-0.8364,-0.8193,-0.7404,-0.7577,-0.7401,-0.7489,-0.7749,-0.7316,-0.7139,-0.7139,-0.7139,-0.7382,-0.7825,-0.7901,-0.7594,-0.7526,-0.7773,-0.7887,-0.7962,-0.7969,-0.8283,-0.7823,-0.7873,-2.8411,-2.8299,-2.7174,-2.6414,-2.5823,-2.4991,-2.4403,-2.4112,-2.4125,-2.4125,-2.4125,-2.4125,-2.4125,-2.4125,-2.4125,-2.4125,-2.4054,-2.3399,-2.2713,-2.1939,-2.121,-2.0453,-1.9736,-1.9417,-1.9274,-1.9274,-1.9142,-1.9158,-1.936,-1.9391,-1.9779,-2.0534,-2.0669,-2.1041,-2.1673,-2.1807,-2.1731,-2.1512,-2.1282,-2.1128,-2.0906,-2.0731,-2.04,-2.0137,-2.0107,-2.0107,-2.0107,-2.0166,-2.0013,-1.9726,-2.0293,-2.0216,-1.9333,-1.7978,-1.6573,-1.5294,-1.534,-1.5313,-1.4866,-1.4619,-1.4388,-1.4144,-1.3898,-1.3573,-1.34,-1.3134,-1.2842,-1.2552,-1.2006,-1.2079,-1.227,-1.1253,-1.0463,-1.0636,-1.0549,-1.0284,-1.0294,-1.0202,-1.0106,-0.9927,-0.941,-0.8807,-0.836,-0.8368,-0.846,-0.8197,-0.8285,-0.8456,-0.8627,-0.8456,-0.8715,-0.9405,-0.9488,-0.9314,-0.9052,-0.8882,-0.8882,-0.8882,-0.8969,-0.8978,-0.8807,-0.7753,-0.7492,-0.882,-0.9154,-0.938,-0.941,-0.914,-0.9239,-0.932,-0.9316,-0.9157,-0.963,-0.9247,-0.9291,-2.8348,-2.8186,-2.7122,-2.6414,-2.6011,-2.4978,-2.4332,-2.4112,-2.4125,-2.4125,-2.4125,-2.4125,-2.4125,-2.4125,-2.4125,-2.4125,-2.4054,-2.3412,-2.2652,-2.1939,-2.1187,-2.0366,-1.9671,-1.9351,-1.9208,-1.9208,-1.9142,-1.9131,-1.9131,-1.9131,-1.9468,-2.0162,-2.0213,-2.0586,-2.1259,-2.1422,-2.1353,-2.1146,-2.1125,-2.0984,-2.0819,-2.0654,-2.0576,-2.0566,-2.0576,-2.0576,-2.0576,-2.0576,-2.0498,-2.0371,-2.0245,-2.0062,-1.9648,-1.8696,-1.7195,-1.5718,-1.5782,-1.549,-1.4406,-1.434,-1.4387,-1.4209,-1.4037,-1.391,-1.3663,-1.3502,-1.3369,-1.3138,-1.2837,-1.2635,-1.289,-1.2419,-1.1769,-1.1534,-1.125,-1.1209,-1.1123,-1.1129,-1.1033,-1.0851,-1.0328,-0.9742,-0.9234,-0.9402,-0.9397,-0.9147,-0.9191,-0.9657,-0.9588,-0.9548,-0.9721,-1.0368,-1.0413,-1.0611,-1.0651,-1.0865,-1.0052,-0.9873,-0.9976,-1.0129,-1.0012,-0.8765,-0.8658,-1.0129,-1.0881,-1.1233,-1.1219,-1.0933,-1.0928,-1.0928,-1.0622,-1.04,-1.0631,-1.0693,-1.0646,-2.8348,-2.8088,-2.6967,-2.6322,-2.5918,-2.4838,-2.4247,-2.4112,-2.4125,-2.4125,-2.4125,-2.4125,-2.4125,-2.4125,-2.4125,-2.4125,-2.3995,-2.3471,-2.2847,-2.2113,-2.1101,-2.0291,-1.9671,-1.9264,-1.9142,-1.9142,-1.9131,-1.9131,-1.9131,-1.9142,-1.9401,-1.9775,-1.9889,-2.01,-2.0462,-2.0708,-2.0744,-2.0612,-2.0771,-2.076,-2.0634,-2.0547,-2.0576,-2.0576,-2.0576,-2.0547,-2.0537,-2.0557,-2.0381,-1.9915,-1.9543,-1.892,-1.8357,-1.8065,-1.727,-1.5919,-1.5685,-1.4986,-1.3844,-1.4077,-1.4355,-1.4326,-1.3983,-1.3665,-1.3402,-1.3056,-1.2695,-1.2594,-1.2674,-1.2815,-1.2862,-1.2857,-1.267,-1.195,-1.1518,-1.1222,-1.1144,-1.0977,-1.0888,-1.0972,-1.0883,-1.0893,-1.1055,-1.1138,-1.1133,-1.0831,-1.1196,-1.1442,-1.0621,-1.0444,-1.0735,-1.1095,-1.1302,-1.1395,-1.2141,-1.2713,-1.1614,-1.0727,-1.08,-1.0875,-1.1018,-1.0286,-1.0461,-1.1598,-1.2587,-1.2875,-1.222,-1.2029,-1.1879,-1.1895,-1.1569,-1.1651,-1.1798,-1.1939,-1.1728,-2.8348,-2.8073,-2.6982,-2.6322,-2.5849,-2.4781,-2.4203,-2.4125,-2.4125,-2.4125,-2.4125,-2.4125,-2.4125,-2.4125,-2.4125,-2.4125,-2.4112,-2.3865,-2.3292,-2.2347,-2.1152,-2.0409,-1.9911,-1.9396,-1.9131,-1.9131,-1.9131,-1.9131,-1.9131,-1.9131,-1.9303,-1.9744,-1.9817,-1.9996,-2.0358,-2.037,-2.0307,-2.0149,-2.0287,-2.0345,-2.0146,-2.041,-2.0566,-2.0576,-2.0566,-2.0439,-2.0146,-2.041,-2.0342,-1.9912,-1.892,-1.8462,-1.8474,-1.8209,-1.7777,-1.718,-1.6507,-1.5339,-1.3814,-1.3675,-1.3895,-1.3792,-1.363,-1.3505,-1.3269,-1.3117,-1.29,-1.268,-1.2688,-1.2662,-1.2682,-1.2593,-1.2606,-1.2752,-1.2561,-1.2364,-1.2283,-1.2376,-1.2202,-1.163,-1.1543,-1.1213,-1.08,-1.1044,-1.1126,-1.0806,-1.0975,-1.1018,-1.1349,-1.1056,-1.1261,-1.1958,-1.2063,-1.196,-1.2403,-1.2771,-1.2371,-1.1789,-1.1777,-1.1881,-1.1956,-1.2122,-1.2312,-1.2651,-1.3684,-1.3962,-1.3403,-1.3125,-1.2931,-1.313,-1.3188,-1.3284,-1.3312,-1.3086,-1.2833,-2.8299,-2.7989,-2.6864,-2.6201,-2.5823,-2.4681,-2.4216,-2.4125,-2.4125,-2.4125,-2.4125,-2.4125,-2.4125,-2.4125,-2.4125,-2.4125,-2.4125,-2.4112,-2.3675,-2.2919,-2.1904,-2.0974,-2.0226,-1.9452,-1.9131,-1.9131,-1.9131,-1.9131,-1.9131,-1.9142,-1.922,-1.9526,-1.9578,-1.9624,-1.9924,-1.9969,-1.9849,-1.9716,-1.9999,-2.0062,-1.9971,-2.0176,-2.0322,-2.0303,-2.0166,-1.9961,-1.9717,-1.9961,-1.9893,-1.9399,-1.8448,-1.8237,-1.8475,-1.8203,-1.8008,-1.7842,-1.7073,-1.5914,-1.4505,-1.4145,-1.3848,-1.3775,-1.3484,-1.32,-1.3046,-1.29,-1.282,-1.2673,-1.2532,-1.2526,-1.2452,-1.2378,-1.2492,-1.2812,-1.2895,-1.3033,-1.3053,-1.3146,-1.2897,-1.2365,-1.2157,-1.1836,-1.1508,-1.1265,-1.1265,-1.1271,-1.1204,-1.1146,-1.1849,-1.1727,-1.2029,-1.2282,-1.2228,-1.2212,-1.2272,-1.2602,-1.2922,-1.2879,-1.2928,-1.2971,-1.3094,-1.3292,-1.3438,-1.3491,-1.4148,-1.4172,-1.3806,-1.3908,-1.3908,-1.4298,-1.428,-1.4106,-1.3811,-1.4004,-1.3771,-2.8201,-2.779,-2.6678,-2.5986,-2.5632,-2.4549,-2.4112,-2.4125,-2.4125,-2.4125,-2.4125,-2.4125,-2.4125,-2.4125,-2.4125,-2.4125,-2.4125,-2.4112,-2.3923,-2.3424,-2.2798,-2.1854,-2.0355,-1.9462,-1.9131,-1.9131,-1.9131,-1.9131,-1.9131,-1.9131,-1.9131,-1.9193,-1.9204,-1.9152,-1.9261,-1.9404,-1.9381,-1.9284,-1.977,-1.9905,-1.9775,-1.9863,-1.9873,-1.9873,-1.957,-1.9346,-1.9268,-1.9228,-1.9043,-1.8582,-1.8201,-1.8007,-1.8037,-1.8008,-1.8008,-1.794,-1.7304,-1.6621,-1.5816,-1.5037,-1.4617,-1.441,-1.3833,-1.2966,-1.3105,-1.3105,-1.2959,-1.2806,-1.2732,-1.2592,-1.2519,-1.2445,-1.2479,-1.2345,-1.2592,-1.2795,-1.2822,-1.2959,-1.2855,-1.2696,-1.2719,-1.2719,-1.249,-1.249,-1.249,-1.2529,-1.2454,-1.2388,-1.2317,-1.2095,-1.2054,-1.2117,-1.2239,-1.2286,-1.2377,-1.2584,-1.2886,-1.3049,-1.3157,-1.3308,-1.3592,-1.3833,-1.4111,-1.4189,-1.4189,-1.4232,-1.4268,-1.425,-1.4321,-1.4285,-1.4303,-1.4268,-1.4394,-1.449,-1.4496,-2.791,-2.724,-2.64,-2.5714,-2.516,-2.439,-2.4125,-2.4125,-2.4125,-2.4125,-2.4125,-2.4125,-2.4125,-2.4125,-2.4125,-2.4125,-2.4125,-2.4125,-2.3936,-2.3616,-2.3437,-2.2113,-2.0409,-1.9462,-1.9131,-1.9131,-1.9131,-1.9131,-1.9131,-1.9131,-1.9131,-1.9131,-1.9198,-1.9131,-1.9106,-1.9085,-1.8856,-1.8781,-1.9043,-1.9147,-1.9062,-1.9326,-1.9443,-1.9443,-1.9326,-1.9102,-1.8818,-1.8506,-1.8298,-1.8165,-1.8056,-1.8008,-1.8008,-1.8008,-1.8008,-1.7872,-1.7364,-1.7079,-1.7088,-1.6167,-1.5463,-1.5321,-1.4966,-1.4887,-1.4744,-1.4545,-1.4402,-1.425,-1.4106,-1.3745,-1.3317,-1.3171,-1.2959,-1.2378,-1.2405,-1.2452,-1.2452,-1.2472,-1.2498,-1.2432,-1.2438,-1.2445,-1.2445,-1.2445,-1.2445,-1.2465,-1.2381,-1.2335,-1.2298,-1.2069,-1.1883,-1.2189,-1.2327,-1.2382,-1.2478,-1.2675,-1.2831,-1.3,-1.3061,-1.3049,-1.3326,-1.3598,-1.3912,-1.4159,-1.4008,-1.3996,-1.4081,-1.4123,-1.4194,-1.4215,-1.4438,-1.4506,-1.4758,-1.4879,-1.4885,-2.776,-2.7056,-2.6308,-2.5605,-2.4948,-2.4345,-2.4125,-2.4125,-2.4125,-2.4125,-2.4125,-2.4125,-2.4125,-2.4125,-2.4125,-2.4125,-2.4125,-2.4125,-2.3923,-2.3569,-2.3125,-2.2163,-2.0974,-2.0031,-1.9528,-1.9452,-1.9264,-1.9274,-1.9462,-1.9518,-1.9639,-1.9911,-1.9649,-1.9518,-1.9528,-1.9075,-1.8808,-1.8697,-1.8893,-1.8914,-1.8803,-1.8877,-1.8984,-1.8975,-1.8867,-1.8603,-1.8359,-1.8135,-1.8037,-1.8006,-1.7978,-1.8008,-1.8008,-1.8008,-1.8008,-1.8008,-1.7579,-1.7579,-1.7647,-1.6872,-1.6228,-1.6018,-1.5877,-1.5534,-1.5313,-1.518,-1.4974,-1.4832,-1.4752,-1.4386,-1.4027,-1.3673,-1.3171,-1.2452,-1.2305,-1.2305,-1.2305,-1.2325,-1.2311,-1.2305,-1.2305,-1.2305,-1.2305,-1.2305,-1.2305,-1.2244,-1.219,-1.2133,-1.213,-1.1878,-1.1898,-1.2311,-1.2574,-1.2694,-1.2756,-1.2928,-1.2985,-1.3157,-1.3114,-1.3083,-1.3155,-1.3416,-1.3658,-1.3872,-1.3799,-1.3755,-1.3914,-1.405,-1.4007,-1.4204,-1.449,-1.4684,-1.4899,-1.5044,-1.507,-2.7695,-2.6953,-2.6226,-2.5563,-2.4835,-2.4345,-2.4125,-2.4125,-2.4125,-2.4125,-2.4125,-2.4125,-2.4125,-2.4125,-2.4125,-2.4125,-2.4125,-2.4067,-2.3878,-2.3437,-2.2871,-2.2237,-2.2051,-2.0805,-2.0172,-1.9966,-1.9452,-1.9528,-1.9715,-1.9901,-2.0355,-2.0549,-2.0291,-2.0226,-2.0107,-1.9584,-1.9131,-1.9003,-1.894,-1.8904,-1.8695,-1.8615,-1.8574,-1.8535,-1.832,-1.8154,-1.8076,-1.8008,-1.8027,-1.8018,-1.8008,-1.8008,-1.8008,-1.8008,-1.8008,-1.8008,-1.793,-1.794,-1.793,-1.7364,-1.6941,-1.6715,-1.6237,-1.5737,-1.5737,-1.5666,-1.5534,-1.5534,-1.5037,-1.5037,-1.4752,-1.4178,-1.3608,-1.3025,-1.2739,-1.2592,-1.2519,-1.2519,-1.2445,-1.2445,-1.2452,-1.2519,-1.2519,-1.2519,-1.2586,-1.3171,-1.2945,-1.2987,-1.2891,-1.2689,-1.2659,-1.2809,-1.2935,-1.2965,-1.3105,-1.3258,-1.3262,-1.337,-1.3303,-1.3224,-1.3102,-1.3256,-1.3355,-1.3448,-1.3665,-1.3699,-1.3857,-1.387,-1.3985,-1.4119,-1.4441,-1.4549,-1.4724,-1.4987,-1.5032,-2.7393,-2.6347,-2.5986,-2.5245,-2.439,-2.4171,-2.4125,-2.4125,-2.4125,-2.4125,-2.4125,-2.4125,-2.4125,-2.4125,-2.4125,-2.4125,-2.4054,-2.3949,-2.3772,-2.339,-2.3138,-2.2871,-2.2628,-2.1565,-2.0677,-2.0291,-1.9966,-1.9704,-1.9639,-2.0096,-2.0172,-2.042,-2.0858,-2.0869,-2.0805,-2.0226,-1.9704,-1.9396,-1.8987,-1.8652,-1.8389,-1.8321,-1.8321,-1.8301,-1.8135,-1.8018,-1.8008,-1.8008,-1.8008,-1.8008,-1.8008,-1.8008,-1.8008,-1.8008,-1.8008,-1.8008,-1.8008,-1.8008,-1.794,-1.7862,-1.7725,-1.7579,-1.7373,-1.7442,-1.7373,-1.7079,-1.701,-1.7088,-1.6959,-1.6464,-1.5816,-1.5242,-1.4673,-1.4243,-1.4178,-1.4106,-1.4027,-1.3593,-1.3244,-1.3317,-1.3673,-1.4099,-1.4027,-1.3954,-1.3954,-1.4034,-1.4027,-1.4027,-1.3733,-1.339,-1.3348,-1.326,-1.3233,-1.3265,-1.3464,-1.3568,-1.3516,-1.3568,-1.3568,-1.3574,-1.337,-1.3297,-1.3531,-1.3608,-1.3623,-1.373,-1.3818,-1.3957,-1.4027,-1.4212,-1.4384,-1.4514,-1.4721,-1.4904,-1.5002,-2.7342,-2.624,-2.5986,-2.5175,-2.4229,-2.4125,-2.4125,-2.4125,-2.4125,-2.4125,-2.4125,-2.4125,-2.4067,-2.4008,-2.4008,-2.3936,-2.3865,-2.37,-2.3595,-2.3403,-2.3198,-2.3065,-2.3005,-2.2445,-2.169,-2.1101,-2.0666,-2.0473,-2.059,-2.0782,-2.129,-2.1428,-2.1553,-2.1553,-2.1502,-2.0921,-2.0355,-1.9901,-1.9639,-1.9253,-1.8875,-1.8942,-1.8998,-1.8854,-1.8654,-1.8402,-1.8068,-1.7997,-1.8007,-1.7988,-1.8027,-1.8008,-1.8008,-1.8008,-1.8008,-1.8008,-1.8008,-1.8008,-1.8008,-1.8008,-1.8008,-1.8008,-1.8008,-1.8008,-1.794,-1.7784,-1.7706,-1.7647,-1.7442,-1.7176,-1.6376,-1.6018,-1.5596,-1.51,-1.4966,-1.4824,-1.4681,-1.4322,-1.4034,-1.4034,-1.4322,-1.4458,-1.4601,-1.4816,-1.4681,-1.4466,-1.4386,-1.4394,-1.3998,-1.3693,-1.3712,-1.3698,-1.3634,-1.3651,-1.3756,-1.3815,-1.3802,-1.3828,-1.3828,-1.3828,-1.3763,-1.3763,-1.3756,-1.3756,-1.3834,-1.3636,-1.3732,-1.3892,-1.4057,-1.406,-1.4154,-1.448,-1.4803,-1.4923,-1.5017,-2.7479,-2.6293,-2.6065,-2.5329,-2.4332,-2.4171,-2.4125,-2.4125,-2.4125,-2.4125,-2.4125,-2.4067,-2.4008,-2.3891,-2.3832,-2.376,-2.3569,-2.345,-2.3403,-2.333,-2.321,-2.3138,-2.3065,-2.2944,-2.2689,-2.2175,-2.1553,-2.1491,-2.1667,-2.2039,-2.2039,-2.2677,-2.2494,-2.2249,-2.2063,-2.1553,-2.091,-2.0375,-2.0386,-2.0302,-1.9868,-1.9998,-1.9966,-1.9835,-1.9497,-1.8781,-1.8344,-1.8221,-1.8315,-1.8068,-1.8035,-1.7988,-1.8008,-1.8008,-1.8008,-1.8008,-1.8008,-1.8008,-1.8008,-1.8008,-1.8008,-1.8008,-1.8008,-1.8008,-1.794,-1.7862,-1.7784,-1.7716,-1.7657,-1.7392,-1.6664,-1.6655,-1.6298,-1.5807,-1.5463,-1.533,-1.5259,-1.5108,-1.5037,-1.4824,-1.5108,-1.5392,-1.5321,-1.5321,-1.5108,-1.4895,-1.4887,-1.4784,-1.4452,-1.4396,-1.4587,-1.4554,-1.4554,-1.4025,-1.4055,-1.4082,-1.4082,-1.4082,-1.4082,-1.4082,-1.4166,-1.4328,-1.4328,-1.4082,-1.403,-1.3946,-1.403,-1.4222,-1.4235,-1.3959,-1.4202,-1.4812,-1.4971,-1.5021,-1.5163,-2.7695,-2.6901,-2.624,-2.555,-2.4835,-2.4287,-2.4125,-2.4125,-2.4125,-2.4125,-2.4067,-2.4008,-2.3949,-2.3832,-2.37,-2.3569,-2.345,-2.333,-2.3271,-2.3198,-2.3138,-2.3125,-2.3125,-2.3065,-2.3005,-2.2811,-2.2249,-2.1803,-2.1678,-2.1803,-2.2298,-2.2433,-2.2689,-2.2823,-2.258,-2.2187,-2.1569,-2.102,-2.0928,-2.088,-2.0797,-2.0582,-2.0473,-2.0473,-2.0279,-1.9533,-1.8793,-1.9112,-1.9225,-1.8155,-1.8045,-1.7988,-1.8008,-1.8008,-1.8008,-1.8008,-1.8008,-1.8008,-1.8008,-1.8008,-1.8008,-1.8008,-1.8008,-1.8008,-1.8008,-1.8008,-1.793,-1.793,-1.793,-1.7803,-1.7725,-1.7579,-1.751,-1.7226,-1.7019,-1.689,-1.6821,-1.6542,-1.6114,-1.5754,-1.6114,-1.6333,-1.6114,-1.6035,-1.5974,-1.5903,-1.5965,-1.5965,-1.584,-1.5896,-1.6158,-1.5976,-1.567,-1.4939,-1.4243,-1.425,-1.425,-1.4334,-1.4334,-1.4334,-1.4496,-1.4908,-1.4992,-1.5311,-1.5068,-1.4831,-1.4824,-1.4817,-1.4741,-1.4678,-1.4958,-1.5245,-1.5452,-1.566,-1.5995,-2.776,-2.7056,-2.6293,-2.5605,-2.4935,-2.4332,-2.4125,-2.4125,-2.4125,-2.4125,-2.4054,-2.3995,-2.3878,-2.376,-2.3628,-2.3509,-2.333,-2.321,-2.3198,-2.3125,-2.3125,-2.3125,-2.3125,-2.3125,-2.3125,-2.3005,-2.275,-2.2433,-2.2199,-2.2494,-2.2555,-2.2689,-2.2944,-2.3078,-2.2957,-2.275,-2.2176,-2.1696,-2.1694,-2.169,-2.1561,-2.1388,-2.1502,-2.1439,-2.1164,-2.0687,-2.0425,-2.0017,-2.0344,-1.9944,-1.8787,-1.8202,-1.8008,-1.8076,-1.8008,-1.8076,-1.8008,-1.8008,-1.8008,-1.8008,-1.8008,-1.8008,-1.8008,-1.8008,-1.8008,-1.8008,-1.8008,-1.8008,-1.8008,-1.8008,-1.794,-1.8008,-1.794,-1.7852,-1.7725,-1.7588,-1.752,-1.7314,-1.6968,-1.6612,-1.6612,-1.676,-1.676,-1.676,-1.6839,-1.6908,-1.6908,-1.6908,-1.6908,-1.709,-1.7165,-1.717,-1.6766,-1.5778,-1.5068,-1.5068,-1.4985,-1.4908,-1.4908,-1.4824,-1.4901,-1.5477,-1.6453,-1.7261,-1.6854,-1.6049,-1.5884,-1.5876,-1.5718,-1.556,-1.5831,-1.6095,-1.6154,-1.6386,-1.678,-2.8127,-2.7432,-2.6837,-2.6187,-2.5507,-2.4794,-2.453,-2.4419,-2.4223,-2.4295,-2.4439,-2.4301,-2.4149,-2.3996,-2.3799,-2.3517,-2.3175,-2.3138,-2.3125,-2.3125,-2.3125,-2.3125,-2.3125,-2.3125,-2.3125,-2.3065,-2.3065,-2.3125,-2.2944,-2.3005,-2.3065,-2.3065,-2.3065,-2.3078,-2.3005,-2.3017,-2.2579,-2.2445,-2.2531,-2.2567,-2.231,-2.2457,-2.2739,-2.2739,-2.2149,-2.1966,-2.2017,-2.1506,-2.1556,-2.1348,-2.0347,-1.8865,-1.8539,-1.8405,-1.8405,-1.8405,-1.8202,-1.8008,-1.8008,-1.8008,-1.8008,-1.8008,-1.8008,-1.8008,-1.8008,-1.8008,-1.8008,-1.8008,-1.8008,-1.8008,-1.8008,-1.8008,-1.8008,-1.794,-1.7794,-1.7716,-1.7725,-1.7598,-1.7461,-1.7254,-1.7185,-1.7116,-1.7116,-1.7038,-1.7038,-1.7185,-1.7185,-1.6978,-1.707,-1.747,-1.7672,-1.8031,-1.7713,-1.6659,-1.6124,-1.6124,-1.5959,-1.5876,-1.5876,-1.5794,-1.5876,-1.6041,-1.7261,-1.8318,-1.8069,-1.7423,-1.718,-1.6854,-1.6617,-1.6535,-1.678,-1.6944,-1.7025,-1.735,-1.7755,-2.9505,-2.8761,-2.8611,-2.8086,-2.7209,-2.6169,-2.572,-2.5464,-2.4609,-2.4726,-2.5432,-2.4984,-2.4874,-2.4931,-2.4338,-2.3821,-2.3482,-2.321,-2.3138,-2.3125,-2.3125,-2.3125,-2.3125,-2.3125,-2.3125,-2.3125,-2.3125,-2.3125,-2.3125,-2.3125,-2.3125,-2.3125,-2.3065,-2.3078,-2.3017,-2.3078,-2.2932,-2.2738,-2.2932,-2.2957,-2.2775,-2.2896,-2.2957,-2.2848,-2.2787,-2.2714,-2.2836,-2.242,-2.2542,-2.271,-2.213,-2.1019,-2.0107,-1.9835,-1.9835,-1.9507,-1.8854,-1.8008,-1.8134,-1.8134,-1.8144,-1.8144,-1.8076,-1.8008,-1.8008,-1.8008,-1.8008,-1.8008,-1.8008,-1.8008,-1.8008,-1.8008,-1.8008,-1.794,-1.7862,-1.7852,-1.7862,-1.7803,-1.7676,-1.7598,-1.7451,-1.7461,-1.747,-1.7314,-1.7235,-1.7314,-1.7401,-1.7194,-1.7404,-1.799,-1.8318,-1.8695,-1.8718,-1.7747,-1.7261,-1.718,-1.7098,-1.6927,-1.6935,-1.6935,-1.7017,-1.7269,-1.7917,-1.8647,-1.8567,-1.8318,-1.7755,-1.7423,-1.7342,-1.7432,-1.7674,-1.7755,-1.7836,-1.8247,-1.8656,-3.0509,-2.9403,-2.898,-2.8589,-2.812,-2.7009,-2.6421,-2.6175,-2.5487,-2.5341,-2.572,-2.5527,-2.5402,-2.5318,-2.4468,-2.399,-2.3651,-2.3314,-2.3078,-2.3078,-2.3078,-2.3125,-2.3125,-2.3125,-2.3125,-2.3125,-2.3125,-2.3125,-2.3125,-2.3125,-2.3125,-2.3125,-2.3125,-2.3078,-2.3017,-2.3078,-2.3078,-2.3005,-2.3078,-2.3078,-2.303,-2.309,-2.3078,-2.3017,-2.303,-2.3042,-2.3042,-2.3042,-2.2983,-2.3071,-2.2788,-2.2297,-2.1526,-2.1273,-2.1273,-2.1158,-1.9977,-1.932,-1.9187,-1.8787,-1.8596,-1.8472,-1.8269,-1.8008,-1.8008,-1.8008,-1.8008,-1.8008,-1.8008,-1.8008,-1.8008,-1.8008,-1.8008,-1.794,-1.793,-1.793,-1.794,-1.7872,-1.7813,-1.7794,-1.7725,-1.7735,-1.7676,-1.7529,-1.7451,-1.7451,-1.7558,-1.7517,-1.8019,-1.8944,-1.9164,-1.9321,-1.9204,-1.8798,-1.8559,-1.8399,-1.8318,-1.8238,-1.8407,-1.8407,-1.8327,-1.8656,-1.8975,-1.9063,-1.9054,-1.8647,-1.8158,-1.8247,-1.8327,-1.8407,-1.8487,-1.8567,-1.8647,-1.8904,-1.9231,-3.1252,-3.0198,-2.9655,-2.9312,-2.9039,-2.7785,-2.7368,-2.7354,-2.6246,-2.6018,-2.633,-2.6319,-2.6012,-2.5537,-2.4963,-2.4608,-2.423,-2.3602,-2.3401,-2.3326,-2.314,-2.3138,-2.3125,-2.3125,-2.3125,-2.3125,-2.3125,-2.3125,-2.3125,-2.3125,-2.3125,-2.3125,-2.3125,-2.3078,-2.3078,-2.3065,-2.3065,-2.3065,-2.3065,-2.3065,-2.3078,-2.3078,-2.3125,-2.3065,-2.3125,-2.3125,-2.3125,-2.3065,-2.3115,-2.3067,-2.3055,-2.2775,-2.2408,-2.2285,-2.2173,-2.1987,-2.1008,-2.0741,-2.042,-1.9966,-1.9441,-1.911,-1.8854,-1.8664,-1.8327,-1.8269,-1.8076,-1.8076,-1.8008,-1.8008,-1.8008,-1.8008,-1.8008,-1.8008,-1.8008,-1.8008,-1.8008,-1.794,-1.794,-1.794,-1.7862,-1.7862,-1.7803,-1.7735,-1.7666,-1.7666,-1.7636,-1.7693,-1.8524,-1.9519,-1.9832,-1.9844,-1.9608,-1.945,-1.9371,-1.9213,-1.9292,-1.9292,-1.9548,-1.9557,-1.9311,-1.9301,-1.946,-1.9469,-1.9469,-1.9301,-1.8966,-1.9222,-1.939,-1.9222,-1.9143,-1.9301,-1.946,-1.9636,-1.9715,-3.1682,-3.1405,-3.1302,-3.0872,-3.0279,-2.9099,-2.8862,-2.8968,-2.6856,-2.6897,-2.786,-2.763,-2.6922,-2.6349,-2.5857,-2.5434,-2.4848,-2.4243,-2.3941,-2.3715,-2.3439,-2.3226,-2.3163,-2.3125,-2.3125,-2.3125,-2.3125,-2.3125,-2.3125,-2.3125,-2.3125,-2.3125,-2.3125,-2.3125,-2.3125,-2.3125,-2.3125,-2.3125,-2.3125,-2.3125,-2.3125,-2.3125,-2.3125,-2.3125,-2.3125,-2.3125,-2.3125,-2.3125,-2.3078,-2.309,-2.3078,-2.3065,-2.2896,-2.2896,-2.2726,-2.2359,-2.2173,-2.1901,-2.1639,-2.0816,-2.0107,-1.9966,-1.9835,-1.9452,-1.8977,-1.8911,-1.8654,-1.8202,-1.8066,-1.8008,-1.8008,-1.8008,-1.8008,-1.8008,-1.8008,-1.8008,-1.8008,-1.8008,-1.8008,-1.8008,-1.8008,-1.794,-1.794,-1.7872,-1.7803,-1.7803,-1.7871,-1.7929,-1.8879,-1.9749,-2.0177,-2.0255,-2.001,-1.9854,-1.9863,-1.9863,-1.9854,-1.9854,-1.9942,-2.0039,-1.996,-1.9951,-1.9784,-1.9784,-1.9784,-1.9784,-1.9784,-1.9706,-1.9715,-1.9636,-1.9636,-1.9706,-1.9784,-1.9872,-1.9951,-3.167,-3.1467,-3.1467,-3.1317,-3.1006,-3.0161,-2.9909,-2.988,-2.8669,-2.8121,-2.8468,-2.8012,-2.7392,-2.676,-2.6057,-2.5709,-2.5287,-2.4745,-2.4381,-2.4042,-2.3753,-2.3464,-2.3301,-2.315,-2.3125,-2.3138,-2.3138,-2.3125,-2.3125,-2.3125,-2.3125,-2.3125,-2.3125,-2.3125,-2.3125,-2.3125,-2.3125,-2.3125,-2.3125,-2.3125,-2.3125,-2.3125,-2.3125,-2.3125,-2.3125,-2.3125,-2.3125,-2.3125,-2.3125,-2.3125,-2.3125,-2.3125,-2.3125,-2.3125,-2.2957,-2.2726,-2.2678,-2.2555,-2.242,-2.1451,-2.0613,-2.0161,-2.0096,-1.9966,-1.9694,-1.9431,-1.911,-1.8654,-1.8269,-1.8134,-1.8008,-1.8008,-1.8008,-1.8008,-1.8008,-1.8076,-1.8008,-1.8008,-1.8008,-1.8008,-1.8008,-1.8008,-1.8008,-1.8008,-1.8008,-1.8018,-1.8086,-1.832,-1.917,-1.9932,-2.0275,-2.0498,-2.0333,-2.0255,-2.0255,-2.0333,-2.0333,-2.0333,-2.0264,-2.0264,-2.0274,-2.0029,-1.9863,-1.9942,-2.002,-1.9942,-1.9942,-2.0029,-1.9951,-1.9872,-1.9863,-1.9942,-2.002,-2.0098,-2.0177,-3.1655,-3.1524,-3.1467,-3.1467,-3.1409,-3.0777,-3.0644,-3.0644,-2.9799,-2.9268,-2.8776,-2.8519,-2.7947,-2.7246,-2.6933,-2.6197,-2.6031,-2.5742,-2.5179,-2.4747,-2.4392,-2.4024,-2.3695,-2.3346,-2.3185,-2.3258,-2.3138,-2.3125,-2.3125,-2.3125,-2.3125,-2.3125,-2.3125,-2.3125,-2.3125,-2.3125,-2.3125,-2.3125,-2.3125,-2.3125,-2.3125,-2.3125,-2.3125,-2.3125,-2.3125,-2.3125,-2.3125,-2.3125,-2.3125,-2.3125,-2.3125,-2.3125,-2.3125,-2.3125,-2.3125,-2.3017,-2.2909,-2.2739,-2.2543,-2.2025,-2.1262,-2.1008,-2.088,-2.0677,-2.0355,-2.002,-1.9759,-1.9375,-1.8787,-1.8395,-1.8395,-1.8596,-1.8337,-1.8337,-1.8462,-1.8462,-1.8134,-1.8008,-1.8008,-1.8008,-1.8134,-1.8327,-1.8076,-1.8076,-1.8095,-1.8193,-1.8379,-1.8613,-1.917,-1.9873,-2.0439,-2.0576,-2.0489,-2.0566,-2.0576,-2.0489,-2.0489,-2.0489,-2.042,-2.0411,-2.0333,-2.0177,-2.0098,-2.0255,-2.0255,-2.0098,-2.0177,-2.0264,-2.0177,-2.0098,-2.0098,-2.0177,-2.0255,-2.0411,-2.0411,-3.1539,-3.1467,-3.1467,-3.1467,-3.1409,-3.0763,-3.0911,-3.1219,-3.0194,-2.9642,-2.9456,-2.9282,-2.8762,-2.8168,-2.8139,-2.7657,-2.6971,-2.7141,-2.6784,-2.5807,-2.5465,-2.5092,-2.452,-2.4069,-2.3824,-2.3852,-2.3708,-2.3471,-2.3305,-2.3412,-2.3352,-2.3352,-2.3471,-2.3305,-2.3125,-2.3125,-2.3125,-2.3125,-2.3125,-2.3125,-2.3125,-2.3125,-2.3125,-2.3125,-2.3125,-2.3125,-2.3125,-2.3125,-2.3125,-2.3125,-2.3125,-2.3125,-2.3125,-2.3125,-2.3125,-2.3078,-2.2957,-2.2909,-2.2848,-2.2531,-2.2161,-2.1851,-2.1663,-2.16,-2.1198,-2.0869,-2.0537,-2.0161,-1.9814,-1.9354,-1.9365,-1.9452,-1.8988,-1.8787,-1.8911,-1.8911,-1.8664,-1.8462,-1.8596,-1.8664,-1.8787,-1.8777,-1.8395,-1.8144,-1.8173,-1.836,-1.8664,-1.8965,-1.9336,-1.9883,-2.0488,-2.0576,-2.0576,-2.0576,-2.0576,-2.0576,-2.0566,-2.0576,-2.0576,-2.0566,-2.0489,-2.0411,-2.0411,-2.0489,-2.0489,-2.0333,-2.0411,-2.0576,-2.0411,-2.0333,-2.0411,-2.0489,-2.0566,-2.0566,-2.0566,-3.1467,-3.1467,-3.1467,-3.1467,-3.1482,-3.1292,-3.1292,-3.1409,-3.1014,-3.0569,-3.0208,-3.0025,-2.9594,-2.9093,-2.8789,-2.8532,-2.8155,-2.7944,-2.7586,-2.7053,-2.6746,-2.6196,-2.5595,-2.5063,-2.4771,-2.4647,-2.4381,-2.4279,-2.4381,-2.4208,-2.4381,-2.4496,-2.4266,-2.3917,-2.3352,-2.3125,-2.3125,-2.3125,-2.3125,-2.3125,-2.3125,-2.3125,-2.3125,-2.3125,-2.3125,-2.3125,-2.3125,-2.3125,-2.3125,-2.3125,-2.3125,-2.3125,-2.3125,-2.3125,-2.3125,-2.3125,-2.3017,-2.2957,-2.2909,-2.2726,-2.2543,-2.2371,-2.2197,-2.2123,-2.1913,-2.1788,-2.1474,-2.121,-2.106,-2.0613,-2.0161,-1.9966,-1.9639,-1.9639,-1.9704,-1.9704,-1.9584,-1.9518,-1.9584,-1.9573,-1.9694,-1.9704,-1.9386,-1.9132,-1.9059,-1.9089,-1.9404,-1.9239,-1.9429,-2.0056,-2.0576,-2.0576,-2.0576,-2.0576,-2.0576,-2.0576,-2.0576,-2.0576,-2.0576,-2.0566,-2.0576,-2.0576,-2.0566,-2.0566,-2.0566,-2.0576,-2.0576,-2.0566,-2.0566,-2.0566,-2.0566,-2.0576,-2.0566,-2.0566,-2.0566,-3.1467,-3.1467,-3.1467,-3.1467,-3.1467,-3.1467,-3.1467,-3.1467,-3.1467,-3.1219,-3.0911,-3.0718,-3.0283,-2.978,-2.9623,-2.9107,-2.898,-2.9205,-2.868,-2.8181,-2.7789,-2.7184,-2.6562,-2.5983,-2.5377,-2.5244,-2.5063,-2.4951,-2.4894,-2.5007,-2.5063,-2.5119,-2.53,-2.4724,-2.415,-2.393,-2.3872,-2.3872,-2.3826,-2.359,-2.3484,-2.3305,-2.3125,-2.3125,-2.3125,-2.3125,-2.3125,-2.3125,-2.3125,-2.3125,-2.3125,-2.3125,-2.3138,-2.3138,-2.3125,-2.3125,-2.3065,-2.3017,-2.3017,-2.2909,-2.2665,-2.2432,-2.2383,-2.2432,-2.2494,-2.2371,-2.2173,-2.2049,-2.2185,-2.1651,-2.0869,-2.0666,-2.0602,-2.0602,-2.0355,-2.0355,-2.0172,-2.0107,-2.0107,-2.0161,-2.042,-2.042,-2.0464,-2.0292,-2.0178,-2.017,-2.017,-1.993,-1.9693,-2.021,-2.0644,-2.0644,-2.0644,-2.0644,-2.0566,-2.0576,-2.0576,-2.0576,-2.0576,-2.0576,-2.0576,-2.0576,-2.0576,-2.0576,-2.0576,-2.0576,-2.0576,-2.0566,-2.0566,-2.0566,-2.0566,-2.0576,-2.0576,-2.0576,-2.0576,-3.1524,-3.1539,-3.1467,-3.1467,-3.1467,-3.1467,-3.1467,-3.1467,-3.1467,-3.1467,-3.1467,-3.1278,-3.0896,-3.0539,-3.0821,-3.0358,-2.958,-3.0297,-2.9827,-2.9128,-2.8633,-2.8074,-2.7311,-2.6398,-2.6106,-2.5841,-2.5646,-2.5563,-2.5189,-2.5563,-2.5618,-2.5563,-2.5783,-2.5563,-2.5398,-2.5231,-2.5007,-2.4738,-2.4381,-2.4221,-2.4047,-2.359,-2.3531,-2.3471,-2.3531,-2.3543,-2.3458,-2.3276,-2.3242,-2.3267,-2.3292,-2.3198,-2.3138,-2.3138,-2.3198,-2.3185,-2.3245,-2.3065,-2.3078,-2.2969,-2.2909,-2.2739,-2.2678,-2.2678,-2.2678,-2.2629,-2.2555,-2.2543,-2.2604,-2.2211,-2.1753,-2.169,-2.1628,-2.1376,-2.106,-2.0805,-2.0484,-2.0431,-2.0431,-2.0624,-2.1008,-2.1158,-2.1215,-2.1153,-2.1351,-2.1316,-2.1285,-2.1021,-2.0788,-2.0601,-2.0857,-2.0644,-2.0644,-2.0644,-2.0644,-2.0654,-2.0576,-2.0576,-2.0576,-2.0576,-2.0576,-2.0576,-2.0576,-2.0576,-2.0576,-2.0576,-2.0576,-2.0576,-2.0566,-2.0576,-2.0644,-2.0625,-2.0644,-2.0586,-2.0576,-3.2135,-3.212,-3.1697,-3.1467,-3.1467,-3.1467,-3.1467,-3.1467,-3.1467,-3.1467,-3.1467,-3.1467,-3.1278,-3.1161,-3.1234,-3.0911,-3.0851,-3.0807,-3.0762,-3.0306,-2.9721,-2.932,-2.864,-2.7822,-2.7371,-2.6876,-2.6563,-2.639,-2.6563,-2.6616,-2.6616,-2.6721,-2.6616,-2.6669,-2.6602,-2.6549,-2.6014,-2.5508,-2.4993,-2.4881,-2.4781,-2.4483,-2.4323,-2.4323,-2.4381,-2.4381,-2.4239,-2.3579,-2.3592,-2.4271,-2.4368,-2.4221,-2.3138,-2.3884,-2.4394,-2.3989,-2.359,-2.3078,-2.3078,-2.3078,-2.3017,-2.2957,-2.2957,-2.2909,-2.2848,-2.28,-2.28,-2.286,-2.2909,-2.258,-2.2334,-2.2273,-2.2211,-2.2013,-2.1702,-2.1588,-2.1336,-2.1336,-2.1273,-2.14,-2.1788,-2.1871,-2.1993,-2.2436,-2.2603,-2.2534,-2.2419,-2.2269,-2.1797,-2.1501,-2.1078,-2.0876,-2.0722,-2.0722,-2.0731,-2.0741,-2.0654,-2.0576,-2.0576,-2.0576,-2.0654,-2.0654,-2.0576,-2.0576,-2.0576,-2.0576,-2.0576,-2.0576,-2.0576,-2.0713,-2.0771,-2.0732,-2.0703,-2.0742,-2.0752,-3.2398,-3.2342,-3.1754,-3.1467,-3.1467,-3.1467,-3.1467,-3.1467,-3.1467,-3.1467,-3.1467,-3.1467,-3.1467,-3.1482,-3.1424,-3.1351,-3.1351,-3.1161,-3.1117,-3.1014,-3.0793,-2.9853,-2.9237,-2.8777,-2.793,-2.7476,-2.7181,-2.6997,-2.7233,-2.7335,-2.7335,-2.7306,-2.7437,-2.7437,-2.7321,-2.7203,-2.693,-2.6428,-2.5986,-2.5714,-2.555,-2.555,-2.5563,-2.5231,-2.5287,-2.5287,-2.5134,-2.4171,-2.4431,-2.5147,-2.5354,-2.5197,-2.4371,-2.5021,-2.4724,-2.4266,-2.4047,-2.3531,-2.3305,-2.3437,-2.3305,-2.3185,-2.3125,-2.3078,-2.303,-2.2969,-2.2969,-2.2969,-2.3017,-2.3017,-2.2836,-2.2726,-2.2653,-2.2592,-2.2482,-2.2383,-2.2383,-2.2383,-2.2371,-2.2371,-2.2481,-2.2578,-2.2959,-2.3513,-2.394,-2.3922,-2.3942,-2.392,-2.2992,-2.192,-2.1471,-2.1041,-2.0964,-2.0886,-2.0896,-2.0819,-2.0741,-2.0654,-2.0576,-2.0654,-2.0654,-2.0654,-2.0654,-2.0654,-2.0576,-2.0576,-2.0654,-2.0576,-2.0596,-2.0732,-2.0898,-2.0996,-2.1074,-2.1211,-2.1191,-3.2547,-3.2508,-3.1838,-3.164,-3.1597,-3.1524,-3.1467,-3.1467,-3.1467,-3.1467,-3.1467,-3.1467,-3.1467,-3.1467,-3.1467,-3.1467,-3.1467,-3.1351,-3.1292,-3.1278,-3.0791,-3.0054,-2.9474,-2.868,-2.8409,-2.7691,-2.7336,-2.7528,-2.7314,-2.7386,-2.7473,-2.756,-2.7575,-2.7524,-2.7524,-2.7509,-2.7357,-2.7188,-2.6982,-2.6774,-2.6602,-2.6669,-2.6736,-2.5851,-2.5673,-2.5659,-2.5522,-2.5356,-2.5218,-2.5772,-2.6119,-2.6245,-2.6034,-2.592,-2.5175,-2.461,-2.461,-2.4221,-2.3826,-2.3839,-2.3543,-2.3305,-2.3125,-2.3065,-2.3078,-2.3017,-2.3017,-2.3017,-2.3078,-2.3078,-2.2957,-2.2836,-2.2787,-2.2726,-2.2678,-2.2616,-2.2567,-2.2567,-2.2555,-2.2555,-2.2629,-2.2837,-2.3355,-2.3838,-2.4422,-2.4902,-2.5063,-2.4968,-2.4385,-2.2883,-2.2145,-2.1558,-2.1405,-2.1405,-2.1051,-2.0974,-2.0896,-2.0731,-2.0799,-2.0731,-2.0896,-2.0809,-2.0654,-2.0654,-2.0654,-2.0654,-2.0654,-2.0654,-2.0683,-2.0693,-2.0898,-2.1211,-2.1416,-2.1631,-2.1514,-3.3732,-3.3559,-3.2602,-3.2191,-3.2135,-3.1697,-3.1524,-3.1467,-3.1467,-3.1467,-3.1467,-3.1467,-3.1467,-3.1467,-3.1467,-3.1467,-3.1467,-3.1467,-3.1482,-3.1409,-3.101,-3.0535,-3.0175,-2.9688,-2.9109,-2.8576,-2.8189,-2.801,-2.7682,-2.7599,-2.7539,-2.756,-2.756,-2.756,-2.756,-2.756,-2.756,-2.756,-2.7524,-2.7372,-2.7167,-2.7203,-2.7203,-2.6826,-2.6774,-2.6721,-2.6654,-2.664,-2.6625,-2.6913,-2.6957,-2.6943,-2.675,-2.6817,-2.6486,-2.5988,-2.5342,-2.4951,-2.4681,-2.4394,-2.4002,-2.3484,-2.3185,-2.3125,-2.3065,-2.3125,-2.3125,-2.3125,-2.3125,-2.3125,-2.3078,-2.2957,-2.2909,-2.2848,-2.2787,-2.28,-2.2739,-2.2739,-2.2739,-2.2739,-2.2787,-2.322,-2.3691,-2.4238,-2.4878,-2.5135,-2.5241,-2.5205,-2.5063,-2.4131,-2.339,-2.2809,-2.2285,-2.2069,-2.1634,-2.1492,-2.1558,-2.1405,-2.1405,-2.1272,-2.1128,-2.1195,-2.1252,-2.0876,-2.0809,-2.0809,-2.0809,-2.0819,-2.0781,-2.083,-2.1164,-2.1565,-2.1885,-2.2139,-2.1875,-3.4202,-3.4118,-3.3266,-3.2641,-3.2342,-3.2023,-3.1739,-3.1524,-3.1467,-3.1467,-3.1467,-3.1467,-3.1467,-3.1467,-3.1467,-3.1467,-3.1467,-3.1467,-3.1467,-3.1467,-3.1319,-3.0974,-3.072,-3.044,-2.9824,-2.922,-2.9041,-2.8727,-2.8128,-2.8008,-2.8008,-2.7664,-2.764,-2.756,-2.756,-2.756,-2.756,-2.756,-2.756,-2.7524,-2.7488,-2.7524,-2.7575,-2.7423,-2.7423,-2.7423,-2.7423,-2.7372,-2.7321,-2.7269,-2.7196,-2.7262,-2.7181,-2.7233,-2.7026,-2.6698,-2.6244,-2.5906,-2.5632,-2.5231,-2.4624,-2.4105,-2.3943,-2.4105,-2.3649,-2.359,-2.3365,-2.3305,-2.3125,-2.3125,-2.3078,-2.303,-2.3017,-2.2957,-2.2957,-2.2957,-2.2909,-2.2909,-2.2909,-2.2957,-2.3181,-2.3779,-2.4266,-2.4803,-2.5357,-2.5832,-2.5836,-2.5804,-2.5581,-2.53,-2.4564,-2.4047,-2.3526,-2.3084,-2.2872,-2.2649,-2.2574,-2.236,-2.208,-2.1787,-2.1634,-2.1787,-2.1776,-2.1558,-2.1262,-2.1041,-2.1051,-2.1051,-2.0974,-2.1013,-2.1511,-2.1981,-2.2261,-2.2526,-2.2305,-3.4431,-3.4431,-3.3802,-3.3145,-3.2547,-3.2453,-3.2064,-3.1582,-3.1467,-3.1467,-3.1467,-3.1467,-3.1467,-3.1467,-3.1467,-3.1467,-3.1467,-3.1467,-3.1467,-3.1467,-3.1467,-3.1183,-3.0914,-3.0672,-3.0238,-2.9849,-2.9549,-2.919,-2.8727,-2.8547,-2.8203,-2.782,-2.767,-2.756,-2.7625,-2.756,-2.756,-2.756,-2.756,-2.756,-2.756,-2.756,-2.756,-2.756,-2.756,-2.756,-2.756,-2.7575,-2.7539,-2.7437,-2.7321,-2.7372,-2.7372,-2.7437,-2.7284,-2.7063,-2.6959,-2.6803,-2.675,-2.6244,-2.5618,-2.5175,-2.5119,-2.4851,-2.4337,-2.4118,-2.3826,-2.359,-2.3412,-2.3125,-2.3138,-2.3078,-2.3078,-2.3078,-2.3078,-2.3078,-2.3078,-2.3078,-2.3078,-2.309,-2.3566,-2.4167,-2.4707,-2.5247,-2.5774,-2.6251,-2.6521,-2.6521,-2.6383,-2.6094,-2.5581,-2.5217,-2.485,-2.448,-2.3891,-2.3672,-2.3452,-2.3305,-2.3021,-2.251,-2.222,-2.2585,-2.266,-2.2381,-2.209,-2.1721,-2.1425,-2.1349,-2.1282,-2.1282,-2.1481,-2.1885,-2.2113,-2.2325,-2.2654,-3.5228,-3.5071,-3.448,-3.3818,-3.3198,-3.2788,-3.216,-3.1582,-3.1524,-3.1467,-3.1567,-3.1524,-3.1467,-3.1524,-3.1467,-3.1467,-3.1467,-3.1467,-3.1467,-3.1467,-3.1467,-3.1362,-3.1243,-3.1106,-3.0866,-3.0462,-3.0053,-2.9619,-2.9773,-2.92,-2.8659,-2.8628,-2.7931,-2.7795,-2.77,-2.773,-2.7885,-2.785,-2.7724,-2.7694,-2.767,-2.7655,-2.7575,-2.756,-2.756,-2.756,-2.756,-2.756,-2.7575,-2.7575,-2.7524,-2.7524,-2.7524,-2.7575,-2.7473,-2.7372,-2.7335,-2.7335,-2.71,-2.6721,-2.6108,-2.5618,-2.5467,-2.53,-2.5021,-2.4851,-2.4624,-2.4394,-2.4047,-2.3484,-2.3305,-2.3138,-2.3065,-2.3065,-2.3065,-2.3065,-2.3065,-2.3065,-2.3065,-2.3278,-2.3641,-2.423,-2.4745,-2.5297,-2.5875,-2.6264,-2.6521,-2.6521,-2.6521,-2.6452,-2.6371,-2.6164,-2.5873,-2.5146,-2.4337,-2.4325,-2.4181,-2.4108,-2.4036,-2.3818,-2.3683,-2.3672,-2.3683,-2.361,-2.3043,-2.2606,-2.2317,-2.2014,-2.1711,-2.1696,-2.1519,-2.1599,-2.1907,-2.2132,-2.2473]},{"header":{"parameterUnit":"m.s-1","parameterCategory":1,"la1":31.0,"la2":29.5877,"lo1":-88.7671,"lo2":-86.6584,"dx":0.0162,"dy":0.0185,"nx":115,"ny":88,"refTime":"2022-12-01T18:00:00:Z","depth":0,"parameterNumber":3,"parameterNumberName":"V-component_of_WINDS"},"data":[0.0,0.0,0.0,0.0,0.0,0.0,0.0,0.0,0.0,0.0,0.0,0.0,0.0,0.0,0.0,0.0,0.0,0.0,0.0,0.0,0.0,0.0,0.0,0.0,0.0,0.0,0.0,0.0,0.0,0.0,0.0,0.0,0.0,0.0,0.0,0.0,0.0,0.0,0.0,0.0,0.0,0.0,0.0,0.0,0.0,0.0,0.0,0.0,0.0,0.0,0.0,0.0,0.0,0.0,0.0,0.0,0.0,0.0,0.0,0.0,0.0,0.0,0.0,0.0,0.0,0.0,0.0,0.0,0.0,0.0,0.0,0.0,0.0,0.0,0.0,0.0,0.0,0.0,0.0,0.0,0.0,0.0,0.0,0.0,0.0,0.0,0.0,0.0,0.0,0.0,0.0,0.0,0.0,0.0,0.0,0.0,0.0,0.0,0.0,0.0,0.0,0.0,0.0,0.0,0.0,0.0,0.0,0.0,0.0,0.0,0.0,0.0,0.0,0.0,0.0,0.0,0.0,0.0,0.0,0.0,0.0,0.0,0.0,0.0,0.0,0.0,0.0,0.0,0.0,0.0,0.0,0.0,0.0,0.0,0.0,0.0,0.0,0.0,0.0,0.0,0.0,0.0,0.0,0.0,0.0,0.0,0.0,0.0,0.0,0.0,0.0,0.0,0.0,0.0,0.0,0.0,0.0,0.0,0.0,0.0,0.0,0.0,0.0,0.0,0.0,0.0,0.0,0.0,0.0,0.0,0.0,0.0,0.0,0.0,0.0,0.0,0.0,0.0,0.0,0.0,0.0,0.0,0.0,0.0,0.0,0.0,0.0,0.0,0.0,0.0,0.0,0.0,0.0,0.0,0.0,0.0,0.0,0.0,0.0,0.0,0.0,0.0,0.0,0.0,0.0,0.0,0.0,0.0,0.0,0.0,0.0,0.0,0.0,0.0,0.0,0.0,0.0,0.0,0.0,0.0,0.0,0.0,0.0,0.0,0.0,0.0,0.0,0.0,0.0,0.0,0.0,0.0,0.0,0.0,0.0,0.0,0.0,0.0,0.0,0.0,0.0,0.0,0.0,0.0,0.0,0.0,0.0,0.0,0.0,0.0,0.0,0.0,0.0,0.0,0.0,0.0,0.0,0.0,0.0,0.0,0.0,0.0,0.0,0.0,0.0,0.0,0.0,0.0,0.0,0.0,0.0,0.0,0.0,0.0,0.0,0.0,0.0,0.0,0.0,0.0,0.0,0.0,0.0,0.0,0.0,0.0,0.0,0.0,0.0,0.0,0.0,0.0,0.0,0.0,0.0,0.0,0.0,0.0,0.0,0.0,0.0,0.0,0.0,0.0,0.0,0.0,0.0,0.0,0.0,0.0,0.0,0.0,0.0,0.0,0.0,0.0,0.0,0.0,0.0,0.0,0.0,0.0,0.0,0.0,0.0,0.0,0.0,0.0,0.0,0.0,0.0,0.0,0.0,0.0,0.0,0.0,0.0,0.0,0.0,0.0,0.0,0.0,0.0,0.0,0.0,0.0,0.0,0.0,0.0,0.0,0.0,0.0,0.0,0.0,0.0,0.0,0.0,0.0,0.0,0.0,0.0,0.0,0.0,0.0,0.0,0.0,0.0,0.0,0.0,0.0,0.0,0.0,0.0,0.0,0.0,0.0,0.0,0.0,0.0,0.0,0.0,0.0,0.0,0.0,0.0,0.0,0.0,0.0,0.0,0.0,0.0,0.0,0.0,0.0,0.0,0.0,0.0,0.0,0.0,0.0,0.0,0.0,0.0,0.0,0.0,0.0,0.0,0.0,0.0,0.0,0.0,0.0,0.0,0.0,0.0,0.0,0.0,0.0,0.0,0.0,0.0,0.0,0.0,0.0,0.0,0.0,0.0,0.0,0.0,0.0,0.0,0.0,0.0,0.0,0.0,0.0,0.0,0.0,0.0,0.0,0.0,0.0,0.0,0.0,0.0,0.0,0.0,0.0,0.0,0.0,0.0,0.0,0.0,0.0,0.0,0.0,0.0,0.0,0.0,0.0,0.0,0.0,0.0,0.0,0.0,0.0,0.0,0.0,0.0,0.0,0.0,0.0,0.0,0.0,0.0,0.0,0.0,0.0,0.0,0.0,0.0,0.0,0.0,0.0,0.0,0.0,0.0,0.0,0.0,0.0,0.0,0.0,0.0,0.0,0.0,0.0,0.0,0.0,0.0,0.0,0.0,0.0,0.0,0.0,0.0,0.0,0.0,0.0,0.0,0.0,0.0,0.0,0.0,0.0,0.0,0.0,0.0,0.0,0.0,0.0,0.0,0.0,0.0,0.0,0.0,0.0,0.0,0.0,0.0,0.0,0.0,0.0,0.0,0.0,0.0,0.0,0.0,0.0,0.0,0.0,0.0,0.0,0.0,0.0,0.0,0.0,0.0,0.0,0.0,0.0,0.0,0.0,0.0,0.0,0.0,0.0,0.0,0.0,0.0,0.0,0.0,0.0,0.0,0.0,0.0,0.0,0.0,0.0,0.0,0.0,0.0,0.0,0.0,0.0,0.0,0.0,0.0,0.0,0.0,0.0,0.0,0.0,0.0,0.0,0.0,0.0,0.0,0.0,0.0,0.0,0.0,0.0,0.0,0.0,0.0,0.0,0.0,0.0,0.0,0.0,0.0,0.0,0.0,0.0,0.0,0.0,0.0,0.0,0.0,0.0,0.0,0.0,0.0,0.0,0.0,0.0,0.0,0.0,0.0,0.0,0.0,0.0,0.0,0.0,0.0,0.0,0.0,0.0,0.0,0.0,0.0,0.0,0.0,0.0,0.0,0.0,0.0,0.0,0.0,0.0,0.0,0.0,0.0,0.0,0.0,0.0,0.0,0.0,0.0,0.0,0.0,0.0,0.0,0.0,0.0,0.0,0.0,0.0,0.0,0.0,0.0,0.0,0.0,0.0,0.0,0.0,0.0,0.0,0.0,0.0,0.0,0.0,0.0,0.0,0.0,0.0,0.0,0.0,0.0,0.0,0.0,0.0,0.0,0.0,0.0,0.0,0.0,0.0,0.0,0.0,0.0,0.0,0.0,0.0,0.0,0.0,0.0,0.0,0.0,0.0,0.0,0.0,0.0,0.0,0.0,0.0,0.0,0.0,0.0,0.0,0.0,0.0,0.0,0.0,0.0,0.0,0.0,0.0,0.0,0.0,0.0,0.0,0.0,0.0,0.0,0.0,0.0,0.0,0.0,0.0,0.0,0.0,0.0,0.0,0.0,0.0,0.0,0.0,0.0,0.0,0.0,0.0,0.0,0.0,0.0,0.0,0.0,0.0,0.0,0.0,0.0,0.0,0.0,0.0,0.0,0.0,0.0,0.0,0.0,0.0,0.0,0.0,0.0,0.0,0.0,0.0,0.0,0.0,0.0,0.0,0.0,0.0,0.0,0.0,0.0,0.0,0.0,0.0,0.0,0.0,0.0,0.0,0.0,0.0,0.0,0.0,0.0,0.0,0.0,0.0,0.0,0.0,0.0,0.0,0.0,0.0,0.0,0.0,0.0,0.0,0.0,0.0,0.0,0.0,0.0,0.0,0.0,0.0,0.0,0.0,0.0,0.0,0.0,0.0,0.0,0.0,0.0,0.0,0.0,0.0,0.0,0.0,0.0,0.0,0.0,0.0,0.0,0.0,0.0,0.0,0.0,0.0,0.0,0.0,0.0,0.0,0.0,0.0,0.0,0.0,0.0,0.0,0.0,0.0,0.0,0.0,0.0,0.0,0.0,0.0,0.0,0.0,0.0,0.0,0.0,0.0,0.0,0.0,0.0,0.0,0.0,0.0,0.0,0.0,0.0,0.0,0.0,0.0,0.0,0.0,0.0,0.0,0.0,0.0,0.0,0.0,0.0,0.0,0.0,0.0,0.0,0.0,0.0,0.0,0.0,0.0,0.0,0.0,0.0,0.0,0.0,0.0,0.0,0.0,0.0,0.0,0.0,0.0,0.0,0.0,0.0,0.0,0.0,0.0,0.0,0.0,0.0,0.0,0.0,0.0,0.0,0.0,0.0,0.0,0.0,0.0,0.0,0.0,0.0,0.0,0.0,0.0,0.0,0.0,0.0,0.0,0.0,0.0,0.0,0.0,0.0,0.0,0.0,0.0,0.0,0.0,0.0,0.0,0.0,0.0,0.0,0.0,0.0,0.0,0.0,0.0,0.0,0.0,0.0,0.0,0.0,0.0,0.0,0.0,0.0,0.0,0.0,0.0,0.0,0.0,0.0,0.0,-0.4309,0.0,0.0,0.0,-0.4811,0.0,0.0,0.0,0.0,0.0,0.0,0.0,0.0,0.0,0.0,0.0,0.0,0.0,0.0,0.0,0.0,0.0,0.0,0.0,0.0,0.0,0.0,0.0,0.0,0.0,0.0,0.0,0.0,0.0,0.0,0.0,0.0,0.0,0.0,0.0,0.0,0.0,0.0,0.0,0.0,0.0,0.0,0.0,0.0,0.0,0.0,0.0,0.0,0.0,0.0,0.0,0.0,0.0,0.0,0.0,0.0,0.0,0.0,0.0,0.0,0.0,0.0,0.0,0.0,0.0,0.0,0.0,0.0,0.0,0.0,0.0,0.0,0.0,0.0,0.0,0.0,0.0,0.0,0.0,0.0,0.0,0.0,0.0,0.0,0.0,0.0,0.0,0.0,0.0,0.0,0.0,0.0,0.0,0.0,0.0,0.0,0.0,0.0,0.0,0.0,0.0,0.0,0.0,0.0,0.0,0.0,0.0,0.0,0.0,0.0,-0.4492,-0.4552,-0.4821,-0.4901,-0.4802,0.0,0.0,0.0,0.0,0.0,0.0,0.0,0.0,0.0,0.0,0.0,0.0,0.0,0.0,0.0,0.0,0.0,0.0,0.0,0.0,0.0,0.0,0.0,0.0,0.0,0.0,0.0,0.0,0.0,0.0,0.0,0.0,0.0,0.0,0.0,0.0,0.0,0.0,0.0,0.0,0.0,0.0,0.0,0.0,0.0,0.0,0.0,0.0,0.0,0.0,0.0,0.0,0.0,0.0,0.0,0.0,0.0,0.0,0.0,0.0,0.0,0.0,0.0,0.0,0.0,0.0,0.0,0.0,0.0,0.0,0.0,0.0,0.0,0.0,0.0,0.0,0.0,0.0,0.0,0.0,0.0,0.0,0.0,0.0,0.0,0.0,0.0,0.0,0.0,0.0,0.0,0.0,0.0,0.0,0.0,0.0,0.0,0.0,0.0,0.0,0.0,0.0,0.0,0.0,0.0,0.0,0.0,0.0,0.0,0.0,0.0,0.0,-0.4778,-0.4783,-0.4783,0.0,0.0,0.0,0.0,0.0,0.0,0.0,0.0,0.0,0.0,0.0,0.0,0.0,0.0,0.0,0.0,0.0,0.0,0.0,0.0,0.0,0.0,0.0,0.0,0.0,0.0,0.0,0.0,0.0,0.0,0.0,0.0,0.0,0.0,0.0,0.0,0.0,0.0,0.0,0.0,0.0,0.0,0.0,0.0,0.0,0.0,0.0,0.0,0.0,0.0,0.0,0.0,0.0,0.0,0.0,0.0,0.0,0.0,0.0,0.0,0.0,0.0,0.0,0.0,0.0,0.0,0.0,0.0,0.0,0.0,0.0,0.0,0.0,0.0,0.0,0.0,0.0,0.0,0.0,0.0,0.0,0.0,0.0,0.0,0.0,0.0,0.0,0.0,0.0,0.0,0.0,0.0,0.0,0.0,0.0,0.0,0.0,0.0,0.0,0.0,0.0,0.0,0.0,0.0,0.0,0.0,0.0,0.0,0.0,0.0,-0.4829,-0.5303,-0.4993,0.0,-0.4812,0.0,0.0,0.0,0.0,0.0,0.0,0.0,0.0,0.0,0.0,0.0,0.0,0.0,0.0,0.0,0.0,0.0,0.0,0.0,0.0,0.0,0.0,0.0,0.0,0.0,0.0,0.0,0.0,0.0,0.0,0.0,0.0,0.0,0.0,0.0,0.0,0.0,0.0,0.0,0.0,0.0,0.0,0.0,0.0,0.0,0.0,0.0,0.0,0.0,0.0,0.0,0.0,0.0,0.0,0.0,0.0,0.0,0.0,0.0,0.0,0.0,0.0,0.0,0.0,0.0,0.0,0.0,0.0,0.0,0.0,0.0,0.0,0.0,0.0,0.0,0.0,0.0,0.0,0.0,0.0,0.0,0.0,0.0,0.0,0.0,0.0,0.0,0.0,0.0,0.0,0.0,0.0,0.0,0.0,0.0,0.0,0.0,0.0,0.0,0.0,0.0,0.0,0.0,0.0,0.0,0.0,0.0,0.0,0.0,0.0,-0.5182,-0.5411,-0.5291,-0.5227,0.0,0.0,0.0,0.0,0.0,0.0,0.0,0.0,0.0,0.0,0.0,0.0,0.0,0.0,0.0,0.0,0.0,0.0,0.0,0.0,0.0,0.0,0.0,0.0,0.0,0.0,0.0,0.0,0.0,0.0,0.0,0.0,0.0,0.0,0.0,0.0,0.0,0.0,0.0,0.0,0.0,0.0,0.0,0.0,0.0,0.0,0.0,0.0,0.0,0.0,0.0,0.0,0.0,0.0,0.0,0.0,0.0,0.0,0.0,0.0,0.0,0.0,0.0,0.0,0.0,0.0,0.0,0.0,0.0,0.0,0.0,0.0,0.0,0.0,0.0,0.0,0.0,0.0,0.0,0.0,0.0,0.0,0.0,0.0,0.0,0.0,0.0,0.0,0.0,0.0,0.0,0.0,0.0,0.0,0.0,0.0,0.0,0.0,0.0,0.0,0.0,0.0,0.0,0.0,0.0,0.0,0.0,0.0,0.0,0.0,-0.5159,-0.5466,-0.5612,-0.5658,-0.5648,-0.5571,0.0,0.0,0.0,0.0,0.0,0.0,0.0,0.0,0.0,0.0,0.0,0.0,0.0,0.0,0.0,0.0,0.0,0.0,0.0,0.0,0.0,0.0,0.0,0.0,0.0,0.0,0.0,0.0,0.0,0.0,0.0,0.0,0.0,0.0,0.0,0.0,0.0,0.0,0.0,0.0,0.0,0.0,0.0,0.0,0.0,0.0,0.0,0.0,0.0,0.0,0.0,0.0,0.0,0.0,0.0,0.0,0.0,0.0,0.0,0.0,0.0,0.0,0.0,0.0,0.0,0.0,0.0,0.0,0.0,0.0,0.0,0.0,0.0,0.0,0.0,0.0,0.0,0.0,0.0,0.0,0.0,0.0,0.0,0.0,0.0,0.0,0.0,0.0,0.0,0.0,0.0,0.0,0.0,0.0,0.0,0.0,0.0,0.0,0.0,0.0,0.0,0.0,0.0,0.0,0.0,0.0,0.0,0.0,-0.4713,-0.518,-0.5648,-0.6147,-0.6181,-0.6015,0.0,0.0,0.0,0.0,0.0,0.0,0.0,0.0,0.0,0.0,0.0,0.0,0.0,0.0,0.0,0.0,0.0,0.0,0.0,0.0,0.0,0.0,0.0,0.0,0.0,0.0,0.0,0.0,0.0,0.0,0.0,0.0,0.0,0.0,0.0,0.0,0.0,0.0,0.0,0.0,0.0,0.0,0.0,0.0,0.0,0.0,0.0,0.0,0.0,0.0,0.0,0.0,0.0,0.0,0.0,0.0,0.0,0.0,0.0,0.0,0.0,0.0,0.0,0.0,0.0,0.0,0.0,0.0,0.0,0.0,0.0,0.0,0.0,0.0,0.0,0.0,0.0,0.0,0.0,0.0,0.0,0.0,0.0,0.0,0.0,0.0,0.0,0.0,0.0,0.0,0.0,0.0,0.0,0.0,0.0,0.0,0.0,0.0,0.0,0.0,0.0,0.0,0.0,0.0,0.0,0.0,0.0,0.0,0.0,-0.5114,-0.5831,-0.6514,-0.7053,-0.6601,-0.6314,0.0,0.0,0.0,0.0,0.0,0.0,0.0,0.0,0.0,0.0,0.0,0.0,0.0,0.0,0.0,0.0,0.0,0.0,0.0,0.0,0.0,0.0,0.0,0.0,0.0,0.0,0.0,0.0,0.0,0.0,0.0,0.0,0.0,0.0,0.0,0.0,0.0,0.0,0.0,0.0,0.0,0.0,0.0,0.0,0.0,0.0,0.0,0.0,0.0,0.0,0.0,0.0,0.0,0.0,0.0,0.0,0.0,0.0,0.0,0.0,0.0,0.0,0.0,0.0,0.0,0.0,0.0,0.0,0.0,0.0,0.0,0.0,0.0,0.0,0.0,0.0,0.0,0.0,0.0,0.0,0.0,0.0,0.0,0.0,0.0,0.0,0.0,0.0,0.0,0.0,0.0,0.0,0.0,0.0,0.0,0.0,0.0,0.0,0.0,0.0,0.0,0.0,0.0,0.0,0.0,0.0,0.0,0.0,0.0,-0.5838,-0.6474,-0.7092,-0.7656,-0.7048,-0.6711,0.0,0.0,0.0,0.0,0.0,0.0,0.0,0.0,0.0,0.0,0.0,0.0,0.0,0.0,0.0,0.0,0.0,0.0,0.0,0.0,0.0,0.0,0.0,0.0,0.0,0.0,0.0,0.0,0.0,0.0,0.0,0.0,0.0,0.0,0.0,0.0,0.0,0.0,0.0,0.0,0.0,0.0,0.0,0.0,0.0,0.0,0.0,0.0,0.0,0.0,0.0,0.0,0.0,0.0,0.0,0.0,0.0,0.0,0.0,0.0,0.0,0.0,0.0,0.0,0.0,0.0,0.0,0.0,0.0,0.0,0.0,0.0,0.0,0.0,0.0,0.0,0.0,0.0,0.0,0.0,0.0,0.0,0.0,0.0,0.0,0.0,0.0,0.0,0.0,0.0,0.0,0.0,0.0,0.0,0.0,0.0,0.0,0.0,0.0,0.0,0.0,0.0,0.0,0.0,0.0,0.0,0.0,0.0,-0.6017,-0.6961,-0.7019,-0.7362,-0.7878,-0.7542,-0.7215,0.0,0.0,0.0,0.0,0.0,0.0,0.0,0.0,0.0,0.0,0.0,0.0,0.0,0.0,0.0,0.0,0.0,0.0,0.0,0.0,0.0,0.0,0.0,0.0,0.0,0.0,0.0,0.0,0.0,0.0,0.0,0.0,0.0,0.0,0.0,0.0,0.0,0.0,0.0,0.0,0.0,0.0,0.0,0.0,0.0,0.0,0.0,0.0,0.0,0.0,0.0,0.0,0.0,0.0,0.0,0.0,0.0,0.0,0.0,0.0,0.0,0.0,0.0,0.0,0.0,0.0,0.0,0.0,0.0,0.0,0.0,0.0,0.0,0.0,0.0,0.0,0.0,0.0,0.0,0.0,0.0,0.0,0.0,0.0,0.0,0.0,0.0,0.0,0.0,0.0,0.0,0.0,0.0,0.0,0.0,0.0,0.0,0.0,0.0,0.0,0.0,0.0,0.0,0.0,0.0,0.0,0.0,0.0,0.0,-0.7754,-0.8018,-0.8359,-0.8701,-0.8301,-0.777,0.0,0.0,0.0,0.0,0.0,0.0,0.0,0.0,0.0,0.0,0.0,0.0,0.0,0.0,0.0,0.0,0.0,0.0,0.0,0.0,0.0,0.0,0.0,0.0,0.0,0.0,0.0,0.0,0.0,0.0,0.0,0.0,0.0,0.0,0.0,0.0,0.0,0.0,0.0,0.0,0.0,0.0,0.0,0.0,0.0,0.0,0.0,0.0,0.0,0.0,0.0,0.0,0.0,0.0,0.0,0.0,0.0,0.0,0.0,0.0,0.0,0.0,0.0,0.0,0.0,0.0,0.0,0.0,0.0,0.0,0.0,0.0,0.0,0.0,0.0,0.0,0.0,0.0,0.0,0.0,0.0,0.0,0.0,0.0,0.0,0.0,0.0,0.0,0.0,0.0,0.0,0.0,0.0,0.0,0.0,0.0,0.0,0.0,0.0,0.0,0.0,0.0,0.0,0.0,0.0,0.0,0.0,0.0,0.0,-0.9626,-0.9486,-0.953,-0.9809,-0.9362,-0.8778,-0.798,0.0,0.0,0.0,0.0,0.0,0.0,0.0,0.0,0.0,0.0,0.0,0.0,0.0,0.0,0.0,0.0,0.0,0.0,0.0,0.0,0.0,0.0,0.0,0.0,0.0,0.0,0.0,0.0,0.0,0.0,0.0,0.0,0.0,0.0,0.0,0.0,0.0,0.0,0.0,0.0,0.0,0.0,0.0,0.0,0.0,0.0,0.0,0.0,0.0,0.0,0.0,0.0,0.0,0.0,0.0,0.0,0.0,0.0,0.0,0.0,0.0,0.0,0.0,0.0,0.0,0.0,0.0,0.0,0.0,0.0,0.0,0.0,0.0,0.0,0.0,0.0,0.0,0.0,0.0,0.0,0.0,0.0,0.0,0.0,0.0,0.0,0.0,0.0,0.0,0.0,0.0,0.0,0.0,0.0,0.0,0.0,0.0,0.0,0.0,0.0,0.0,0.0,0.0,0.0,0.0,0.0,0.0,0.0,-1.2329,-1.1398,-1.0998,-1.1158,-1.0754,-1.0102,0.0,0.0,0.0,0.0,0.0,0.0,0.0,0.0,0.0,0.0,0.0,0.0,0.0,0.0,0.0,0.0,0.0,0.0,0.0,0.0,0.0,0.0,0.0,0.0,0.0,0.0,0.0,0.0,0.0,0.0,0.0,0.0,0.0,0.0,0.0,0.0,0.0,0.0,0.0,0.0,0.0,0.0,0.0,0.0,0.0,0.0,0.0,0.0,0.0,0.0,0.0,0.0,0.0,0.0,0.0,0.0,0.0,0.0,0.0,0.0,0.0,0.0,0.0,0.0,0.0,0.0,0.0,0.0,0.0,0.0,0.0,0.0,0.0,0.0,0.0,0.0,0.0,0.0,0.0,0.0,0.0,0.0,0.0,0.0,0.0,0.0,0.0,0.0,0.0,0.0,0.0,0.0,0.0,0.0,0.0,0.0,0.0,0.0,0.0,0.0,0.0,0.0,0.0,0.0,0.0,0.0,0.0,0.0,0.0,-1.3132,-1.3935,-1.3973,-1.3225,-1.2244,-1.1258,0.0,0.0,0.0,0.0,0.0,0.0,0.0,0.0,0.0,0.0,0.0,0.0,0.0,0.0,0.0,0.0,0.0,0.0,0.0,0.0,0.0,0.0,0.0,0.0,0.0,0.0,0.0,0.0,0.0,0.0,0.0,0.0,0.0,0.0,0.0,0.0,0.0,0.0,0.0,0.0,0.0,0.0,0.0,0.0,0.0,0.0,0.0,0.0,0.0,0.0,0.0,0.0,0.0,0.0,0.0,0.0,0.0,0.0,0.0,0.0,0.0,0.0,0.0,0.0,0.0,0.0,0.0,0.0,0.0,0.0,0.0,0.0,0.0,0.0,0.0,0.0,0.0,0.0,0.0,0.0,0.0,0.0,0.0,0.0,0.0,0.0,0.0,0.0,0.0,0.0,0.0,0.0,0.0,0.0,0.0,0.0,0.0,0.0,0.0,0.0,0.0,0.0,0.0,0.0,0.0,0.0,0.0,0.0,-1.3145,-1.449,-1.573,-1.6209,-1.5909,-1.4002,-1.2484,0.0,0.0,0.0,0.0,0.0,0.0,0.0,0.0,0.0,0.0,0.0,0.0,0.0,0.0,0.0,0.0,0.0,0.0,0.0,0.0,0.0,0.0,0.0,0.0,0.0,0.0,0.0,0.0,0.0,0.0,0.0,0.0,0.0,0.0,0.0,0.0,0.0,0.0,0.0,0.0,0.0,0.0,0.0,0.0,0.0,0.0,0.0,0.0,0.0,0.0,0.0,0.0,0.0,0.0,0.0,0.0,0.0,0.0,0.0,0.0,0.0,0.0,0.0,0.0,0.0,0.0,0.0,0.0,0.0,0.0,0.0,0.0,0.0,0.0,0.0,0.0,0.0,0.0,0.0,0.0,0.0,0.0,0.0,0.0,0.0,0.0,0.0,0.0,0.0,0.0,0.0,0.0,0.0,0.0,0.0,0.0,0.0,0.0,0.0,0.0,0.0,0.0,0.0,0.0,0.0,0.0,0.0,0.0,-1.4525,-1.609,-1.7037,-1.7896,-1.856,-1.5872,-1.3802,0.0,0.0,0.0,0.0,0.0,0.0,0.0,0.0,0.0,0.0,0.0,0.0,0.0,0.0,0.0,0.0,0.0,0.0,0.0,0.0,0.0,0.0,0.0,0.0,0.0,0.0,0.0,0.0,0.0,0.0,0.0,0.0,0.0,0.0,0.0,0.0,0.0,0.0,0.0,0.0,0.0,0.0,0.0,0.0,0.0,0.0,0.0,0.0,0.0,0.0,0.0,0.0,0.0,0.0,0.0,0.0,0.0,0.0,0.0,0.0,0.0,0.0,0.0,0.0,0.0,0.0,0.0,0.0,0.0,0.0,0.0,0.0,0.0,0.0,0.0,0.0,0.0,0.0,0.0,0.0,0.0,0.0,0.0,0.0,0.0,0.0,0.0,0.0,0.0,0.0,0.0,0.0,0.0,0.0,0.0,0.0,0.0,0.0,0.0,0.0,0.0,0.0,0.0,0.0,0.0,0.0,0.0,0.0,-1.5763,-1.7446,-1.8422,-1.9165,-1.9648,-1.7355,-1.5648,0.0,0.0,0.0,0.0,0.0,0.0,0.0,0.0,0.0,0.0,0.0,0.0,0.0,0.0,0.0,0.0,0.0,0.0,0.0,0.0,0.0,0.0,0.0,0.0,0.0,0.0,0.0,0.0,0.0,0.0,0.0,0.0,0.0,0.0,0.0,0.0,0.0,0.0,0.0,0.0,0.0,0.0,0.0,0.0,0.0,0.0,0.0,0.0,-1.3025,0.0,0.0,0.0,0.0,0.0,0.0,0.0,0.0,0.0,0.0,0.0,0.0,0.0,0.0,0.0,0.0,0.0,0.0,0.0,0.0,0.0,0.0,0.0,0.0,0.0,0.0,0.0,0.0,0.0,0.0,0.0,0.0,0.0,0.0,0.0,0.0,0.0,0.0,0.0,0.0,0.0,0.0,0.0,0.0,0.0,0.0,0.0,0.0,0.0,0.0,0.0,0.0,0.0,0.0,0.0,0.0,0.0,0.0,0.0,-1.6653,-1.8421,-1.9545,-2.0213,-2.0346,-1.8904,-1.7286,0.0,0.0,0.0,0.0,0.0,0.0,0.0,0.0,0.0,0.0,0.0,0.0,0.0,0.0,0.0,0.0,0.0,0.0,0.0,0.0,0.0,0.0,0.0,0.0,0.0,0.0,0.0,0.0,0.0,0.0,0.0,0.0,0.0,0.0,0.0,0.0,0.0,0.0,0.0,0.0,0.0,0.0,0.0,0.0,0.0,0.0,0.0,0.0,0.0,0.0,0.0,0.0,0.0,0.0,0.0,0.0,0.0,0.0,0.0,0.0,0.0,0.0,0.0,0.0,0.0,0.0,0.0,0.0,0.0,0.0,0.0,0.0,0.0,0.0,0.0,0.0,0.0,0.0,0.0,0.0,0.0,0.0,0.0,0.0,0.0,0.0,0.0,0.0,0.0,0.0,0.0,0.0,0.0,0.0,0.0,0.0,0.0,0.0,0.0,0.0,0.0,0.0,0.0,0.0,0.0,0.0,0.0,-1.5595,-1.7534,-1.953,-2.0591,-2.1117,-2.1247,-2.0468,-1.8702,-1.5931,0.0,0.0,0.0,0.0,0.0,0.0,0.0,0.0,0.0,0.0,0.0,0.0,0.0,0.0,0.0,0.0,0.0,0.0,0.0,0.0,0.0,0.0,0.0,0.0,0.0,0.0,0.0,0.0,0.0,0.0,0.0,0.0,0.0,0.0,0.0,0.0,0.0,0.0,-1.0505,-1.2731,0.0,0.0,0.0,0.0,0.0,0.0,0.0,0.0,-1.7323,0.0,0.0,0.0,0.0,0.0,0.0,0.0,0.0,0.0,0.0,0.0,0.0,0.0,0.0,0.0,0.0,0.0,0.0,0.0,0.0,0.0,0.0,0.0,0.0,0.0,0.0,0.0,0.0,0.0,0.0,0.0,0.0,0.0,0.0,0.0,0.0,0.0,0.0,0.0,0.0,0.0,0.0,0.0,0.0,0.0,0.0,0.0,0.0,0.0,0.0,0.0,0.0,0.0,0.0,0.0,0.0,-1.532,-1.6948,-1.9127,-2.1766,-2.1832,-2.2165,-2.2788,-2.1649,-1.9892,-1.7437,0.0,0.0,0.0,0.0,0.0,0.0,0.0,0.0,0.0,0.0,0.0,0.0,0.0,0.0,0.0,0.0,0.0,0.0,0.0,0.0,0.0,0.0,0.0,0.0,0.0,0.0,0.0,0.0,0.0,0.0,0.0,0.0,0.0,0.0,0.0,0.0,0.0,0.0,0.0,-1.4314,-1.5584,0.0,0.0,0.0,0.0,0.0,0.0,0.0,0.0,-1.8259,0.0,0.0,0.0,0.0,0.0,0.0,0.0,0.0,0.0,0.0,0.0,0.0,0.0,0.0,0.0,0.0,0.0,0.0,0.0,0.0,0.0,0.0,0.0,0.0,0.0,0.0,0.0,0.0,0.0,0.0,0.0,0.0,0.0,0.0,0.0,0.0,0.0,0.0,0.0,0.0,0.0,0.0,0.0,0.0,0.0,0.0,0.0,0.0,0.0,0.0,0.0,0.0,0.0,0.0,0.0,-1.5908,-1.8229,-2.0435,-2.2492,-2.2891,-2.3122,-2.3173,-2.1997,-2.0251,0.0,0.0,0.0,0.0,0.0,0.0,0.0,0.0,0.0,0.0,0.0,0.0,0.0,0.0,0.0,0.0,0.0,0.0,0.0,0.0,0.0,0.0,0.0,0.0,0.0,0.0,0.0,0.0,0.0,0.0,0.0,0.0,0.0,0.0,0.0,0.0,0.0,0.0,0.0,0.0,-1.5735,-1.6733,-1.8897,0.0,0.0,0.0,0.0,0.0,0.0,-1.9948,-1.9036,0.0,0.0,0.0,0.0,0.0,0.0,0.0,0.0,0.0,0.0,0.0,0.0,0.0,0.0,0.0,0.0,0.0,0.0,0.0,0.0,0.0,0.0,0.0,0.0,0.0,0.0,0.0,0.0,0.0,0.0,0.0,0.0,0.0,0.0,0.0,0.0,0.0,0.0,0.0,0.0,0.0,0.0,0.0,0.0,0.0,0.0,0.0,0.0,0.0,0.0,0.0,0.0,0.0,0.0,0.0,-1.6545,-1.9353,-2.154,-2.2948,-2.3751,-2.3945,-2.3499,-2.2232,-2.0493,0.0,0.0,0.0,0.0,0.0,0.0,0.0,0.0,0.0,0.0,0.0,0.0,0.0,0.0,0.0,0.0,0.0,0.0,0.0,0.0,0.0,0.0,0.0,0.0,0.0,0.0,0.0,0.0,0.0,0.0,0.0,0.0,0.0,0.0,0.0,0.0,0.0,0.0,0.0,0.0,0.0,-1.7876,-2.0489,-1.9638,0.0,0.0,0.0,0.0,-2.1742,-2.0947,0.0,0.0,0.0,0.0,0.0,0.0,0.0,0.0,0.0,0.0,0.0,0.0,0.0,0.0,0.0,0.0,0.0,0.0,0.0,0.0,0.0,0.0,0.0,0.0,0.0,0.0,0.0,0.0,0.0,0.0,0.0,0.0,0.0,0.0,0.0,0.0,0.0,0.0,0.0,0.0,0.0,0.0,0.0,0.0,0.0,0.0,0.0,0.0,0.0,0.0,0.0,0.0,0.0,0.0,0.0,0.0,-1.7889,-2.0319,-2.2318,-2.3862,-2.4354,-2.4515,-2.4426,-2.2974,-2.1151,0.0,0.0,0.0,0.0,0.0,0.0,0.0,0.0,0.0,0.0,0.0,0.0,0.0,0.0,0.0,0.0,0.0,0.0,0.0,0.0,0.0,0.0,0.0,0.0,0.0,0.0,0.0,0.0,0.0,0.0,0.0,0.0,0.0,0.0,0.0,0.0,0.0,0.0,0.0,0.0,0.0,-1.8886,-2.1479,-2.1634,-2.1554,0.0,0.0,-2.2775,-2.3073,-2.3008,0.0,0.0,0.0,0.0,0.0,0.0,0.0,0.0,0.0,0.0,0.0,0.0,0.0,0.0,0.0,0.0,0.0,0.0,0.0,0.0,0.0,0.0,0.0,0.0,0.0,0.0,0.0,0.0,0.0,0.0,0.0,0.0,0.0,0.0,0.0,0.0,0.0,0.0,0.0,0.0,0.0,0.0,0.0,0.0,0.0,0.0,0.0,0.0,0.0,0.0,0.0,0.0,0.0,0.0,0.0,-1.6587,-1.8163,-2.1361,-2.337,-2.4067,-2.4903,-2.5075,-2.4603,-2.323,-2.1442,0.0,0.0,0.0,0.0,0.0,0.0,0.0,0.0,0.0,0.0,0.0,0.0,0.0,0.0,0.0,0.0,0.0,0.0,0.0,0.0,0.0,0.0,0.0,0.0,0.0,0.0,0.0,0.0,0.0,0.0,0.0,0.0,0.0,0.0,0.0,0.0,0.0,0.0,0.0,0.0,0.0,0.0,-2.2539,-2.2895,0.0,0.0,0.0,-2.347,-2.347,0.0,0.0,0.0,0.0,0.0,0.0,0.0,0.0,0.0,0.0,0.0,0.0,0.0,0.0,0.0,0.0,0.0,0.0,0.0,0.0,0.0,0.0,0.0,0.0,0.0,0.0,0.0,0.0,0.0,0.0,0.0,0.0,0.0,0.0,0.0,0.0,0.0,0.0,0.0,0.0,0.0,0.0,0.0,0.0,0.0,0.0,0.0,0.0,0.0,0.0,0.0,0.0,0.0,0.0,0.0,0.0,0.0,-1.8464,-2.2147,-2.4168,-2.4297,-2.5406,-2.5697,-2.4932,-2.3795,0.0,0.0,0.0,0.0,0.0,0.0,0.0,0.0,0.0,0.0,0.0,0.0,0.0,0.0,0.0,0.0,0.0,0.0,0.0,0.0,0.0,0.0,0.0,0.0,0.0,0.0,0.0,-1.043,0.0,0.0,0.0,0.0,0.0,0.0,0.0,0.0,0.0,0.0,0.0,0.0,0.0,0.0,-2.1159,-2.3617,-2.4303,-2.4823,0.0,0.0,-2.4536,-2.4346,-2.4289,-2.3721,0.0,0.0,0.0,0.0,0.0,0.0,0.0,0.0,0.0,0.0,0.0,0.0,0.0,0.0,0.0,0.0,0.0,0.0,0.0,0.0,0.0,0.0,0.0,0.0,0.0,0.0,0.0,0.0,0.0,0.0,0.0,0.0,0.0,0.0,0.0,0.0,0.0,0.0,0.0,0.0,0.0,0.0,0.0,0.0,0.0,0.0,0.0,0.0,0.0,0.0,0.0,0.0,0.0,0.0,0.0,-1.9279,-2.2465,-2.4305,-2.4667,-2.5862,-2.6287,-2.5909,-2.5137,-2.366,0.0,0.0,0.0,0.0,0.0,0.0,0.0,0.0,0.0,0.0,0.0,0.0,0.0,0.0,0.0,0.0,0.0,0.0,0.0,0.0,0.0,0.0,0.0,0.0,0.0,0.0,0.0,0.0,0.0,0.0,0.0,0.0,0.0,0.0,0.0,0.0,0.0,0.0,0.0,0.0,0.0,-2.279,-2.4651,-2.619,-2.7209,0.0,0.0,-2.7064,-2.6333,-2.6206,-2.5645,-2.3995,0.0,0.0,0.0,0.0,0.0,0.0,0.0,0.0,0.0,0.0,0.0,0.0,0.0,0.0,0.0,0.0,0.0,0.0,0.0,0.0,0.0,0.0,0.0,0.0,0.0,0.0,0.0,0.0,0.0,0.0,0.0,0.0,0.0,0.0,0.0,0.0,0.0,0.0,0.0,0.0,0.0,0.0,0.0,0.0,0.0,0.0,0.0,0.0,0.0,0.0,0.0,0.0,0.0,-1.8249,-1.9608,-2.3316,-2.5129,-2.5062,-2.653,-2.7229,-2.6934,-2.5812,-2.4493,0.0,0.0,0.0,0.0,0.0,0.0,0.0,0.0,0.0,0.0,0.0,0.0,0.0,0.0,0.0,0.0,0.0,0.0,0.0,0.0,0.0,0.0,0.0,0.0,0.0,0.0,0.0,0.0,-2.0225,-2.0985,-2.0694,0.0,0.0,0.0,0.0,0.0,0.0,0.0,0.0,0.0,0.0,-2.4651,-2.6352,-2.806,0.0,0.0,-2.9216,-2.8911,-2.8135,-2.7555,-2.6668,-2.5026,-2.4213,0.0,0.0,0.0,0.0,0.0,0.0,0.0,0.0,0.0,0.0,0.0,0.0,0.0,0.0,0.0,0.0,0.0,0.0,0.0,0.0,0.0,0.0,0.0,0.0,0.0,0.0,0.0,0.0,0.0,0.0,0.0,0.0,0.0,0.0,0.0,0.0,0.0,0.0,0.0,0.0,0.0,0.0,0.0,0.0,0.0,0.0,0.0,0.0,0.0,0.0,0.0,0.0,-1.9259,-2.0335,-2.4222,-2.6015,-2.5586,-2.7215,-2.798,-2.7748,-2.6823,-2.5727,0.0,0.0,0.0,0.0,0.0,0.0,0.0,0.0,0.0,0.0,0.0,0.0,0.0,0.0,0.0,0.0,0.0,0.0,0.0,0.0,0.0,0.0,0.0,0.0,0.0,0.0,0.0,0.0,-2.2688,-2.2887,-2.1062,0.0,0.0,0.0,0.0,0.0,0.0,0.0,0.0,0.0,0.0,-2.6753,-2.8204,-2.9855,-3.0972,-3.0986,-3.0808,-3.0362,-2.9564,-2.8689,-2.7647,-2.6288,0.0,0.0,0.0,0.0,0.0,0.0,0.0,0.0,0.0,0.0,0.0,0.0,0.0,0.0,0.0,0.0,0.0,0.0,0.0,0.0,0.0,0.0,0.0,0.0,0.0,0.0,0.0,0.0,0.0,0.0,-0.5493,0.0,0.0,0.0,0.0,0.0,0.0,0.0,0.0,0.0,0.0,0.0,0.0,0.0,0.0,0.0,0.0,0.0,0.0,0.0,0.0,0.0,0.0,-2.0295,-2.1605,-2.5122,-2.6796,-2.6514,-2.7814,-2.8466,-2.8419,-2.8323,-2.7432,-2.5502,0.0,0.0,0.0,0.0,0.0,0.0,0.0,0.0,0.0,0.0,0.0,0.0,0.0,0.0,0.0,0.0,0.0,0.0,0.0,0.0,0.0,0.0,0.0,0.0,0.0,0.0,-2.2032,-2.3094,-2.2764,0.0,0.0,0.0,0.0,0.0,0.0,0.0,0.0,0.0,0.0,-2.7243,-2.9159,-3.0087,-3.1659,-3.2735,-3.2814,-3.2167,-3.1383,-3.0537,-2.9652,-2.8794,0.0,0.0,0.0,0.0,0.0,0.0,0.0,0.0,0.0,0.0,0.0,0.0,0.0,0.0,0.0,0.0,0.0,0.0,0.0,0.0,0.0,0.0,0.0,0.0,0.0,0.0,0.0,-0.7326,-0.752,0.0,0.0,0.0,0.0,0.0,0.0,0.0,0.0,0.0,0.0,0.0,-1.6593,-1.747,0.0,0.0,0.0,0.0,0.0,0.0,0.0,0.0,0.0,0.0,0.0,0.0,-2.1421,-2.2726,-2.5832,-2.7533,-2.7699,-2.8869,-2.9536,-2.9572,-2.9127,-2.8103,-2.6537,0.0,0.0,0.0,0.0,0.0,0.0,0.0,0.0,0.0,0.0,0.0,0.0,0.0,0.0,0.0,0.0,0.0,0.0,0.0,0.0,0.0,0.0,0.0,0.0,0.0,-2.2122,0.0,0.0,0.0,0.0,0.0,0.0,0.0,0.0,0.0,0.0,0.0,-2.5434,-2.6805,-2.8711,-3.0287,-3.1102,-3.2685,-3.3819,0.0,0.0,0.0,0.0,0.0,0.0,0.0,0.0,0.0,0.0,0.0,0.0,0.0,0.0,-2.6773,-2.5024,-2.5137,-2.5538,-2.5531,0.0,0.0,0.0,0.0,0.0,0.0,0.0,0.0,0.0,0.0,0.0,0.0,0.0,0.0,-0.9807,0.0,-1.0222,0.0,0.0,0.0,0.0,0.0,0.0,0.0,0.0,-1.7199,-1.8633,-1.8999,-2.003,-2.0582,0.0,-1.9916,-1.8682,0.0,0.0,0.0,0.0,0.0,0.0,0.0,0.0,-2.2795,-2.3959,-2.672,-2.8288,-2.8581,-2.9556,-3.0103,-3.0189,-2.9526,-2.882,-2.8031,-2.6333,-2.4763,0.0,0.0,0.0,0.0,0.0,0.0,0.0,0.0,0.0,0.0,0.0,0.0,0.0,0.0,0.0,0.0,0.0,0.0,0.0,0.0,0.0,0.0,0.0,-2.3853,0.0,0.0,0.0,0.0,0.0,0.0,0.0,0.0,0.0,-2.3875,-2.6042,-2.7811,-2.833,-3.0114,-3.1486,-3.1791,0.0,0.0,0.0,0.0,0.0,0.0,0.0,-3.0629,-3.0637,-3.018,-2.9606,-2.9064,-2.9983,-3.1524,-3.3716,0.0,0.0,-2.8721,-2.8656,-2.911,-2.9446,-2.9492,-2.9486,-2.9544,-3.0884,-3.204,0.0,0.0,0.0,0.0,0.0,0.0,0.0,0.0,-1.3385,-1.2733,0.0,-1.3289,0.0,0.0,0.0,0.0,0.0,-1.4225,0.0,0.0,-2.0717,-2.2163,-2.1122,-2.2712,-2.3334,-2.2935,-2.2631,-2.2562,-2.249,-1.9141,0.0,0.0,0.0,0.0,0.0,0.0,-2.4382,-2.5314,-2.7705,-2.9,-2.9075,-2.9796,-3.0205,-3.0231,-2.9675,-2.9549,-2.9828,-2.7904,-2.6627,-2.6286,-2.3852,0.0,0.0,0.0,0.0,0.0,0.0,0.0,0.0,0.0,0.0,0.0,0.0,0.0,0.0,0.0,0.0,0.0,0.0,0.0,0.0,-2.3531,0.0,0.0,0.0,0.0,0.0,0.0,0.0,0.0,0.0,0.0,-2.5926,-2.788,-2.9401,-2.9453,0.0,0.0,0.0,0.0,-3.5687,-3.5697,-3.5002,-3.4508,-3.4493,-3.3803,-3.3232,-3.3179,0.0,0.0,-3.0976,-3.2141,-3.3867,-3.5636,-3.522,-3.3925,-3.1359,-3.0987,-3.1295,-3.2041,-3.2196,-3.2786,-3.4248,-3.4546,-3.502,-1.5097,0.0,0.0,0.0,0.0,-1.4047,-1.4918,-1.627,-1.648,-1.6335,-1.5966,-1.6627,0.0,0.0,0.0,0.0,0.0,0.0,-1.8411,-1.9139,-2.1305,-2.2309,-2.2322,-2.2833,-2.3363,-2.3882,-2.4,-2.4559,-2.5425,-2.4415,-2.2915,-2.0987,0.0,0.0,0.0,0.0,-2.5657,-2.7023,-2.8404,-2.937,-3.0004,-3.0218,-3.0359,-3.0401,-3.054,-3.0637,-3.0733,-2.9479,-2.8795,-2.8806,-2.6895,0.0,0.0,0.0,0.0,0.0,0.0,0.0,0.0,0.0,0.0,0.0,0.0,0.0,0.0,0.0,0.0,0.0,0.0,0.0,-2.4543,-2.6085,-2.6567,0.0,0.0,0.0,0.0,0.0,0.0,0.0,0.0,0.0,-2.9351,-3.0447,-3.1505,0.0,0.0,-3.3997,-3.3584,-3.4853,-3.5833,-3.5833,-3.512,0.0,-3.4628,-3.3882,-3.3312,-3.3331,-3.3346,-3.3151,-3.2625,-3.352,-3.4677,-3.5796,-3.5793,-3.5326,-3.4639,-3.4431,-3.4506,-3.4767,-3.4815,-3.4944,-3.5475,-3.6507,-3.748,-1.748,-1.6549,-1.5286,-1.5203,-1.5917,-1.6072,-1.7081,-1.8658,-1.8906,-1.8788,-1.8409,-1.9272,-1.8296,-1.5993,-1.6021,0.0,0.0,0.0,-2.0065,-2.0983,-2.2207,-2.2876,-2.2992,-2.3421,-2.3822,-2.426,-2.4526,-2.535,-2.6652,-2.6514,-2.5816,-2.45,0.0,0.0,-2.4791,-2.5789,-2.6983,-2.8257,-2.8846,-2.9576,-3.0368,-3.0443,-3.0443,-3.0526,-3.0885,-3.1179,-3.1369,-3.066,-3.0565,-3.114,-2.9532,-2.7537,0.0,0.0,0.0,0.0,0.0,0.0,0.0,0.0,0.0,0.0,0.0,-1.7762,-1.8317,0.0,0.0,0.0,-2.3944,-2.5208,-2.714,-2.7549,0.0,0.0,0.0,0.0,0.0,0.0,0.0,-2.7511,-2.9822,-3.1591,-3.2257,-3.2781,-3.3188,-3.3314,-3.4086,-3.4443,-3.3891,0.0,-3.5934,-3.5938,-3.5485,-3.5178,-3.5206,-3.4757,-3.4386,-3.4429,-3.4433,-3.4417,-3.4406,-3.485,-3.5389,-3.5854,-3.601,-3.5985,-3.5953,-3.5942,-3.6064,-3.6382,-3.6465,-3.6658,-3.7307,-3.834,-3.916,-1.901,-1.8771,-1.6353,-1.6118,-1.7355,-1.7728,-1.8793,-2.0311,-2.0841,-2.0376,-1.9479,-2.1251,-2.0422,-1.7679,-1.7699,0.0,-2.0415,-2.0458,-2.1058,-2.212,-2.3339,-2.3603,-2.3126,-2.4104,-2.4432,-2.4176,-2.456,-2.5425,-2.6651,-2.6624,-2.7058,-2.807,-2.7602,-2.7109,-2.6655,-2.7413,-2.8241,-2.91,-2.9337,-2.9749,-3.0402,-3.0452,-3.0468,-3.051,-3.0902,-3.1303,-3.1726,-3.1463,-3.1884,-3.3003,-3.1791,-3.0266,-2.8629,0.0,0.0,0.0,0.0,0.0,0.0,0.0,0.0,0.0,0.0,0.0,0.0,0.0,0.0,0.0,-2.6882,0.0,-2.9025,-2.8383,0.0,0.0,0.0,-2.7312,-2.8109,-2.8365,-2.9132,-3.0728,0.0,0.0,-3.4502,-3.4761,-3.451,-3.3701,-3.4306,-3.4518,-3.3727,-3.5002,-3.6004,-3.5988,-3.6004,-3.5997,-3.5912,-3.5884,-3.5835,-3.5835,-3.6013,-3.5896,-3.5893,-3.5935,-3.5974,-3.5996,-3.5994,-3.6007,-3.5988,-3.6052,-3.6357,-3.71,-3.7151,-3.7645,-3.8998,-3.9598,-4.0019,-1.9032,-1.8967,-1.8316,-1.9019,-2.0543,-2.1038,-2.1572,-2.2141,-2.2304,-2.2206,-2.2033,-2.2482,-2.2236,-2.1541,-2.1569,-2.1844,-2.228,-2.2818,-2.2889,-2.2728,-2.3528,-2.3543,-2.2962,-2.3303,-2.3644,-2.3996,-2.5466,-2.6556,-2.7264,-2.8712,-2.9543,-2.9807,-2.9748,-2.9271,-2.8502,-2.8772,-2.9297,-3.0146,-3.0203,-3.0286,-3.0452,-3.0468,-3.0468,-3.0468,-3.0902,-3.1189,-3.1411,-3.1392,-3.1809,-3.2757,-3.278,-3.2593,-3.2166,-2.9168,0.0,0.0,0.0,0.0,0.0,0.0,0.0,0.0,0.0,-2.3249,-2.3665,0.0,-2.8479,0.0,-2.9884,-3.0648,-3.0854,-3.0117,0.0,0.0,-3.0125,-2.9689,-2.989,-3.0665,-3.1324,-3.173,-3.3132,-3.4234,-3.4644,-3.5269,-3.5603,-3.5405,-3.5561,-3.562,-3.5422,-3.5695,-3.601,-3.601,-3.601,-3.6007,-3.6007,-3.601,-3.601,-3.601,-3.6021,-3.6005,-3.6013,-3.6021,-3.6009,-3.6012,-3.5955,-3.5919,-3.5981,-3.645,-3.6908,-3.7074,-3.6696,-3.6618,-3.7658,-3.8916,-4.0137,-1.8987,-1.904,-1.95,-2.0308,-2.1251,-2.1589,-2.2077,-2.2675,-2.2735,-2.2781,-2.2872,-2.2902,-2.3062,-2.3354,-2.3018,-2.3047,-2.3354,-2.364,-2.3569,-2.326,-2.3822,-2.3807,-2.3319,-2.3581,-2.3947,-2.4465,-2.573,-2.6915,-2.8049,-2.9137,-2.9946,-3.0443,-3.0485,-3.0228,-2.9749,-2.9774,-3.003,-3.0468,-3.0468,-3.051,-3.0609,-3.0609,-3.0609,-3.0692,-3.1061,-3.1325,-3.1443,-3.176,-3.2371,-3.3309,-3.3393,-3.3737,-3.4371,-3.1437,-2.8601,0.0,0.0,0.0,0.0,0.0,0.0,0.0,0.0,0.0,0.0,0.0,-3.1107,-3.1721,-3.2294,-3.2458,-3.2076,-3.1613,-3.1499,-3.1976,-3.1792,-3.1623,-3.1612,-3.2578,-3.3258,-3.3275,-3.4456,-3.5282,-3.5285,-3.5695,-3.6007,-3.601,-3.601,-3.601,-3.601,-3.601,-3.601,-3.601,-3.601,-3.601,-3.601,-3.601,-3.601,-3.6033,-3.6311,-3.6454,-3.6106,-3.6657,-3.7148,-3.7148,-3.7123,-3.7102,-3.7097,-3.7413,-3.7758,-3.765,-3.7352,-3.742,-3.8138,-3.9091,-4.0131,-1.9148,-1.9189,-2.0131,-2.066,-2.0858,-2.0908,-2.1589,-2.2615,-2.2615,-2.2675,-2.2795,-2.2857,-2.3207,-2.3717,-2.3149,-2.3192,-2.3763,-2.3644,-2.3595,-2.3638,-2.4078,-2.4135,-2.3867,-2.423,-2.4678,-2.5121,-2.5817,-2.6971,-2.8637,-2.8916,-2.955,-3.0452,-3.0468,-3.0468,-3.0468,-3.0468,-3.0468,-3.0468,-3.0468,-3.0584,-3.0692,-3.0692,-3.0773,-3.0912,-3.1235,-3.1489,-3.1666,-3.2225,-3.3012,-3.39,-3.3604,-3.4045,-3.5349,-3.2832,-3.064,0.0,-2.6954,0.0,0.0,0.0,0.0,0.0,0.0,0.0,0.0,-3.0776,-3.2931,-3.3761,-3.3929,-3.37,-3.2936,-3.2879,-3.2902,-3.3012,-3.3185,-3.3295,-3.3354,-3.4217,-3.4822,-3.4793,-3.55,-3.5953,-3.5919,-3.5962,-3.5947,-3.5974,-3.6107,-3.6228,-3.6196,-3.6105,-3.6069,-3.6225,-3.6323,-3.656,-3.6501,-3.6423,-3.6445,-3.6465,-3.6994,-3.7196,-3.6543,-3.7578,-3.8633,-3.8828,-3.8651,-3.8482,-3.8489,-3.8528,-3.8631,-3.856,-3.8627,-3.8855,-3.9235,-3.9685,-4.0341,-1.9825,-1.983,-2.0129,-2.0547,-2.0979,-2.1444,-2.2058,-2.2735,-2.2749,-2.2826,-2.2902,-2.2902,-2.296,-2.3062,-2.2946,-2.296,-2.3107,-2.3451,-2.3595,-2.3638,-2.4094,-2.4261,-2.4219,-2.4436,-2.462,-2.4807,-2.6534,-2.7567,-2.794,-2.9428,-3.0294,-3.0468,-3.0468,-3.0468,-3.0468,0.0,0.0,0.0,-3.0468,-3.0568,-3.0708,-3.0692,-3.0773,-3.0975,-3.1055,0.0,-3.152,-3.2004,-3.2473,-3.2888,-3.3214,0.0,0.0,0.0,0.0,0.0,0.0,0.0,0.0,0.0,0.0,0.0,-3.0884,-3.1035,-3.0655,-3.2447,-3.3429,-3.3016,-3.3586,-3.3929,-3.3777,-3.3738,-3.4006,-3.4655,-3.4856,-3.4931,-3.4963,-3.5231,-3.5436,-3.5436,-3.5571,-3.5693,-3.5795,-3.5757,-3.5784,-3.5903,-3.6363,-3.6883,-3.717,-3.6567,-3.6557,-3.777,-3.7962,-3.8063,-3.8121,-3.8031,-3.7917,-3.8158,-3.8201,-3.8261,-3.8125,-3.8301,-3.9199,-4.0273,-3.9451,-3.8492,-3.8478,-3.8937,-3.9371,-3.9282,-3.9879,-4.0068,-3.8883,-3.9762,-4.0834,-2.0314,0.0,-2.0727,-2.1277,0.0,-2.2163,-2.2696,-2.332,-2.2864,-2.2795,-2.2872,-2.2902,-2.2888,-2.2902,-2.3142,-2.3216,-2.3275,-2.3921,-2.4256,-2.4256,-2.4735,-2.4831,-2.4599,-2.4981,-2.525,-2.552,-2.7138,-2.815,-2.8624,-2.9857,-3.0468,-3.0468,-3.0468,-3.0468,-3.0468,-3.0468,-3.0468,-3.0468,-3.0468,-3.0609,-3.0773,-3.0773,-3.0895,-3.1112,0.0,0.0,0.0,0.0,0.0,0.0,0.0,0.0,0.0,0.0,0.0,-3.2216,-3.1147,-3.0571,-3.0666,-3.1256,-3.1858,-3.2434,-3.3123,-3.3449,-3.3244,-3.3538,-3.3971,-3.4525,-3.4617,-3.4598,-3.4598,-3.4598,-3.4751,-3.5152,-3.5326,-3.5405,-3.5418,-3.5531,-3.5609,-3.5611,-3.5621,-3.5757,-3.6299,-3.6318,-3.6541,-3.6908,-3.7335,-3.7782,-3.8082,-3.7603,-3.7539,-3.8318,-3.8458,-3.8449,-3.8444,-3.8458,-3.8463,-3.8497,-3.8811,-3.9016,-3.8957,-3.9409,-4.0097,-4.084,-4.026,-3.9694,-3.9685,-3.9982,-4.023,-4.0191,-4.05,-4.0616,-3.9707,-4.0268,-4.1035,-2.0858,-2.0961,-2.1592,-2.2255,-2.2923,-2.3078,-2.351,-2.4007,0.0,0.0,0.0,-2.2857,-2.2888,-2.2933,-2.3304,-2.3523,-2.3638,-2.442,-2.4823,-2.4902,-2.5394,-2.5394,-2.5036,-2.5497,-2.5864,-2.6292,-2.7431,-2.8444,-2.9251,-2.998,-3.0394,-3.0468,-3.0468,-3.0468,-3.0468,-3.0468,-3.0468,-3.0468,-3.0468,-3.0609,-3.0912,-3.0912,-3.1015,-3.1291,-3.16,-3.1817,-3.2044,-3.2494,-3.2808,-3.2996,-3.3078,-3.3206,-3.3411,-3.3538,-3.3549,-3.3408,-3.2311,-3.1936,-3.2647,-3.2919,-3.3371,-3.4141,-3.463,-3.504,-3.5318,-3.4413,-3.4483,-3.6129,-3.563,-3.519,-3.519,-3.519,-3.519,-3.519,-3.5296,-3.5364,-3.5383,-3.5644,-3.5821,-3.5778,-3.5971,-3.6265,-3.7024,-3.714,-3.7394,-3.8073,-3.8296,-3.8683,-3.9073,-3.8965,-3.8684,-3.8635,-3.8813,-3.8836,-3.8762,-3.8838,-3.8733,-3.8933,-3.9416,-3.9735,-3.9765,-4.0355,-4.0879,-4.0857,-4.0916,-4.0866,-4.088,-4.0803,-4.0848,-4.079,-4.079,-4.079,-4.079,-4.079,-4.0984,-2.1743,-2.2261,-2.2572,-2.3107,-2.3784,-2.4291,-2.4606,-2.4554,-2.3395,-2.2857,-2.2902,-2.2888,-2.2888,-2.2888,-2.2978,-2.3216,-2.3638,-2.4162,-2.4558,0.0,-2.5394,-2.5578,-2.5524,-2.5626,-2.5787,-2.6003,-2.6857,-2.7717,-2.8539,-2.9251,-2.988,-3.046,-3.0468,-3.0485,-3.0468,-3.0468,-3.0468,-3.0468,-3.0468,-3.0651,-3.0912,-3.0912,-3.1213,-3.1748,-3.1821,-3.2109,-3.2583,-3.2745,-3.2923,-3.3057,-3.316,-3.3243,-3.3393,-3.3491,-3.3587,-3.3726,-3.3442,-3.3313,-3.3451,-3.3534,-3.3784,-3.4179,-3.463,-3.5211,-3.5875,-3.5337,-3.5095,-3.5381,-3.5267,-3.519,-3.519,-3.5209,-3.5209,-3.5229,-3.5226,-3.5258,-3.5419,-3.6044,-3.6492,-3.6483,-3.7141,-3.7555,-3.7747,-3.7786,-3.7877,-3.8161,-3.8799,-3.9408,-4.0014,-4.034,-4.0051,-3.9626,-3.9975,-4.0392,-4.0257,-4.0431,-4.0272,-4.0458,-4.043,-4.0507,-4.0462,-4.069,-4.0868,-4.0823,-4.0854,-4.09,-4.0887,-4.0848,-4.081,-4.079,-4.079,-4.079,-4.079,-4.079,-4.0848,-2.2284,-2.2816,-2.3057,-2.3739,-2.4729,-2.5185,-2.5168,-2.4834,-2.4177,-2.3931,-2.3931,-2.3931,-2.3931,-2.3992,-2.4229,-2.4445,-2.4657,-2.5364,-2.579,-2.6024,-2.6479,-2.6749,-2.6766,-2.6867,-2.6928,-2.7093,-2.7898,-2.852,-2.9019,-3.0063,-3.0733,-3.1097,-3.1504,-3.1686,-3.1702,-3.1686,-3.1686,-3.1686,-3.0966,-3.0692,-3.0912,-3.0935,-3.1134,-3.1504,-3.1711,-3.1897,-3.2142,-3.261,-3.2867,-3.2921,-3.3172,-3.3339,-3.3393,-3.3444,-3.3587,-3.3762,-3.3643,-3.3559,-3.3643,-3.3707,-3.3887,-3.4154,-3.4483,-3.4885,-3.542,-3.5318,-3.519,-3.519,-3.519,-3.519,-3.5209,-3.5245,-3.5452,-3.593,-3.5962,-3.617,-3.6626,-3.7025,-3.729,-3.7341,-3.7644,-3.8082,-3.8593,-3.8666,-3.8877,-3.9277,-3.9758,-4.0104,-4.0466,-4.0559,-4.0474,-4.0166,-4.0391,-4.0604,-4.0642,-4.0636,-4.0635,-4.0635,-4.0675,-4.0703,-4.0694,-4.0731,-4.072,-4.07,-4.072,-4.0739,-4.0739,-4.07,-4.07,-4.07,-4.0681,-4.0681,-4.07,-4.0681,-4.0733,-2.2592,-2.3088,-2.3446,-2.4355,-2.5645,-2.5888,-2.5734,-2.5328,-2.5284,-2.527,-2.5241,-2.493,-2.4863,-2.4927,-2.5206,-2.5414,-2.5586,-2.6257,-2.6698,-2.693,-2.7342,-2.7582,-2.7705,-2.7859,-2.7923,-2.8076,-2.8737,-2.9147,-2.9549,-3.0742,-3.151,-3.1868,-3.2415,-3.2663,-3.2663,-3.2663,-3.2663,-3.2641,-3.1715,-3.1208,-3.1163,-3.1076,-3.1095,-3.1329,-3.1562,-3.1752,-3.1846,-3.2471,-3.2813,-3.2838,-3.3201,-3.3393,-3.3393,-3.3462,-3.3559,-3.3671,-3.3615,-3.3587,-3.3744,-3.3963,-3.4144,-3.4377,-3.482,-3.5136,-3.5341,-3.5226,-3.519,-3.5229,-3.5572,-3.5763,-3.563,-3.5761,-3.6119,-3.6785,-3.684,-3.7086,-3.775,-3.8019,-3.8185,-3.8197,-3.8366,-3.8823,-3.9373,-3.9565,-3.9777,-4.0258,-4.0489,-4.0489,-4.0489,-4.0489,-4.0489,-4.0489,-4.0489,-4.0504,-4.0489,-4.0504,-4.0504,-4.0489,-4.0558,-4.0592,-4.0588,-4.0564,-4.0593,-4.0593,-4.0593,-4.0593,-4.0588,-4.0588,-4.0602,-4.0621,-4.0621,-4.0602,-4.0602,-4.0602,-4.0635,-2.2531,-2.3148,-2.3859,-2.5063,-2.6283,-2.6424,-2.6486,-2.6562,-2.6605,-2.6591,-2.6431,-2.5386,-2.4921,-2.4892,-2.4941,-2.5169,-2.5521,-2.5601,-2.6123,-2.6907,-2.693,-2.7216,-2.7745,-2.7875,-2.7947,-2.8076,-2.8326,-2.8874,-2.9499,-3.0294,-3.1305,-3.2448,-3.2646,-3.2713,-3.2713,-3.2713,-3.2696,-3.2724,-3.2817,-3.2579,-3.1876,-3.1328,-3.1196,-3.1657,-3.1711,-3.1896,-3.2249,-3.2613,-3.2816,-3.2848,-3.3201,-3.3411,-3.3393,-3.347,-3.3499,-3.3488,-3.3632,-3.3716,-3.3853,-3.4458,-3.4908,-3.5,-3.6006,-3.6686,-3.6697,-3.5837,-3.5193,-3.546,-3.6587,-3.7024,-3.6547,-3.6986,-3.7385,-3.7594,-3.7632,-3.7689,-3.7953,-3.8501,-3.9013,-3.9065,-3.965,-4.0277,-4.0258,-4.0277,-4.0354,-4.0469,-4.0489,-4.0489,-4.0489,-4.0489,-4.0489,-4.0489,-4.0489,-4.0489,-4.0489,-4.0489,-4.0489,-4.0489,-4.0489,-4.0523,-4.0504,-4.0504,-4.0519,-4.0569,-4.0554,-4.0534,-4.0559,-4.0588,-4.0588,-4.0574,-4.0574,-4.0588,-4.0588,-4.0588,-4.0607,-2.2531,-2.3148,-2.3446,-2.4483,-2.5783,-2.6283,-2.663,-2.6779,-2.6794,-2.6794,-2.6736,-2.6228,-2.601,-2.601,-2.5995,-2.6083,-2.627,-2.6525,-2.7031,-2.7751,-2.8025,-2.8503,-2.8984,-2.9095,-2.9179,-2.9304,-2.9428,-2.97,-3.0104,-3.0766,-3.1918,-3.3193,-3.3342,-3.3557,-3.3938,-3.3988,-3.3988,-3.3988,-3.3834,-3.3617,-3.3265,-3.2732,-3.2517,-3.2678,-3.2701,-3.2781,-3.2977,-3.3315,-3.3502,-3.3525,-3.3846,-3.3841,-3.3418,-3.4073,-3.4546,-3.4793,-3.4957,-3.5075,-3.5067,-3.5415,-3.5677,-3.5864,-3.6374,-3.6746,-3.6921,-3.689,-3.6747,-3.6402,-3.7129,-3.754,-3.7292,-3.7557,-3.7938,-3.8395,-3.8527,-3.8716,-3.9308,-3.9632,-3.9895,-3.9967,-4.0268,-4.0495,-4.0495,-4.0495,-4.0495,-4.0495,-4.0492,-4.0489,-4.0489,-4.0489,-4.0489,-4.0489,-4.0489,-4.0489,-4.0489,-4.0489,-4.0489,-4.0489,-4.0489,-4.0489,-4.0489,-4.0489,-4.0504,-4.0519,-4.062,-4.062,-4.0534,-4.0549,-4.0549,-4.0626,-4.0569,-4.053,-4.053,-4.0549,-4.0549,-2.2469,-2.2859,-2.3195,-2.4137,-2.5453,-2.6136,-2.6592,-2.6779,-2.6794,-2.6794,-2.6794,-2.6794,-2.6794,-2.6794,-2.6794,-2.6794,-2.6884,-2.7291,-2.7799,-2.8352,-2.8889,-2.9409,-2.9918,-3.0076,-3.0146,-3.0231,-3.0326,-3.0542,-3.0799,-3.1338,-3.2365,-3.3591,-3.3789,-3.417,-3.4833,-3.4899,-3.4899,-3.4897,-3.4664,-3.4521,-3.4466,-3.4189,-3.3812,-3.3457,-3.3389,-3.3389,-3.3406,-3.3772,-3.4014,-3.4019,-3.431,-3.4281,-3.3781,-3.461,-3.5285,-3.5738,-3.5926,-3.6188,-3.6539,-3.6425,-3.6413,-3.6666,-3.6731,-3.6893,-3.7169,-3.7624,-3.7619,-3.7069,-3.7364,-3.7698,-3.7833,-3.823,-3.8741,-3.926,-3.9371,-3.9712,-4.0229,-4.0381,-4.036,-4.0432,-4.0411,-4.0485,-4.0449,-4.0413,-4.036,-4.0449,-4.0392,-4.0425,-4.0476,-4.0492,-4.0476,-4.0422,-4.0425,-4.0441,-4.0473,-4.0489,-4.0489,-4.0489,-4.0489,-4.0489,-4.0489,-4.0489,-4.0489,-4.0543,-4.0796,-4.1066,-4.1139,-4.1024,-4.1146,-4.12,-4.1181,-4.1165,-4.1447,-4.1258,-4.1123,-2.2247,-2.2432,-2.3446,-2.4483,-2.5467,-2.6042,-2.65,-2.6794,-2.6794,-2.6794,-2.6794,-2.6794,-2.6794,-2.6794,-2.6794,-2.6794,-2.687,-2.7291,-2.7815,-2.8352,-2.8997,-2.9531,-2.9989,-3.0248,-3.0359,-3.0359,-3.0443,-3.0782,-3.1454,-3.1527,-3.2348,-3.369,-3.3723,-3.4137,-3.48,-3.4899,-3.4963,-3.5071,-3.5144,-3.5253,-3.5407,-3.5414,-3.4776,-3.366,-3.344,-3.3508,-3.3508,-3.3837,-3.4021,-3.4014,-3.4364,-3.4516,-3.4506,-3.4889,-3.5377,-3.581,-3.5919,-3.6517,-3.7624,-3.7321,-3.7015,-3.7113,-3.7187,-3.7526,-3.7396,-3.7471,-3.7343,-3.6986,-3.7267,-3.7665,-3.8047,-3.9043,-3.9794,-3.9785,-4.0042,-4.0177,-4.0253,-4.0234,-4.0307,-4.0307,-4.0344,-4.0379,-4.0398,-4.0158,-4.0196,-4.0307,-4.0177,-4.0139,-4.0377,-4.0466,-4.0377,-4.0251,-4.0213,-4.0269,-4.0441,-4.0389,-4.0422,-4.0406,-4.0336,-4.0457,-4.0489,-4.0489,-4.0489,-4.0822,-4.1714,-4.2117,-4.1995,-4.2146,-4.2458,-4.2556,-4.2443,-4.2482,-4.2123,-4.2727,-4.248,-2.2197,-2.2309,-2.3518,-2.431,-2.4937,-2.5879,-2.6515,-2.6779,-2.6794,-2.6794,-2.6794,-2.6794,-2.6794,-2.6794,-2.6794,-2.6794,-2.6832,-2.7276,-2.7799,-2.8463,-2.9059,-2.9621,-3.0103,-3.0333,-3.0401,-3.0401,-3.0485,-3.0659,-3.0832,-3.0882,-3.1653,-3.2862,-3.3077,-3.3673,-3.4684,-3.4899,-3.4947,-3.5105,-3.5245,-3.5337,-3.5492,-3.5549,-3.5334,-3.4878,-3.4827,-3.4827,-3.4827,-3.4928,-3.5016,-3.5044,-3.5148,-3.5193,-3.524,-3.5863,-3.6577,-3.7151,-3.6582,-3.6296,-3.6566,-3.6413,-3.6295,-3.637,-3.6444,-3.6545,-3.6567,-3.6581,-3.6519,-3.6454,-3.6679,-3.6901,-3.7209,-3.8608,-3.9739,-3.9693,-3.9717,-3.9766,-3.9804,-3.9807,-3.9791,-3.9816,-3.9962,-4.0139,-4.0194,-4.0233,-4.0233,-4.0288,-4.027,-4.0214,-4.0158,-4.0214,-4.0139,-3.9943,-3.9903,-3.9944,-4.0004,-4.0062,-4.0062,-4.0062,-4.0043,-4.0081,-4.0139,-4.0356,-4.0425,-4.1055,-4.2162,-4.2752,-4.2446,-4.2545,-4.3003,-4.2926,-4.2906,-4.308,-4.2557,-4.3041,-4.2792,-2.2247,-2.242,-2.3577,-2.431,-2.4684,-2.5865,-2.6553,-2.6779,-2.6794,-2.6794,-2.6794,-2.6794,-2.6794,-2.6794,-2.6794,-2.6794,-2.6832,-2.7291,-2.7849,-2.8463,-2.9028,-2.9633,-3.0146,-3.0375,-3.0443,-3.0443,-3.0485,-3.0468,-3.0468,-3.0468,-3.1156,-3.2266,-3.2348,-3.2945,-3.4021,-3.4449,-3.4675,-3.4848,-3.5157,-3.5446,-3.552,-3.5594,-3.5639,-3.5622,-3.5639,-3.5639,-3.5639,-3.5639,-3.5504,-3.5284,-3.5243,-3.528,-3.5446,-3.5163,-3.605,-3.7715,-3.6734,-3.5626,-3.5214,-3.5494,-3.5833,-3.5841,-3.5636,-3.5539,-3.5593,-3.5403,-3.5287,-3.5373,-3.5754,-3.5929,-3.6149,-3.7386,-3.8495,-3.8627,-3.8914,-3.9089,-3.9113,-3.9132,-3.9118,-3.9129,-3.9229,-3.944,-3.9602,-3.9542,-3.9523,-3.9622,-3.9812,-3.9842,-3.9558,-3.9768,-3.9726,-3.9381,-3.9551,-3.9599,-3.975,-3.9854,-3.9946,-3.997,-4.0388,-4.0249,-4.0157,-4.0368,-4.0731,-4.1396,-4.2073,-4.2667,-4.2994,-4.3047,-4.3028,-4.3028,-4.3407,-4.3741,-4.3445,-4.3289,-4.3099,-2.2247,-2.2543,-2.3754,-2.4439,-2.4811,-2.5946,-2.6578,-2.6779,-2.6794,-2.6794,-2.6794,-2.6794,-2.6794,-2.6794,-2.6794,-2.6794,-2.6884,-2.724,-2.7715,-2.8304,-2.9042,-2.9661,-3.0146,-3.0384,-3.0485,-3.0485,-3.0468,-3.0468,-3.0468,-3.0485,-3.0898,-3.1494,-3.1676,-3.2166,-3.2746,-3.3627,-3.4018,-3.4303,-3.4913,-3.5419,-3.556,-3.5588,-3.5639,-3.5639,-3.5639,-3.5588,-3.5571,-3.5605,-3.5301,-3.4668,-3.4542,-3.4665,-3.4525,-3.2929,-3.3353,-3.6611,-3.6073,-3.4673,-3.384,-3.4842,-3.553,-3.5457,-3.5048,-3.4691,-3.4688,-3.4235,-3.3954,-3.4138,-3.4587,-3.4972,-3.51,-3.5809,-3.6537,-3.6779,-3.7673,-3.819,-3.8233,-3.8281,-3.8286,-3.8263,-3.8268,-3.8305,-3.8239,-3.8214,-3.8196,-3.8404,-3.8726,-3.894,-3.8625,-3.8977,-3.9039,-3.8694,-3.8777,-3.9096,-3.9402,-3.9714,-3.9846,-4.0033,-4.066,-4.0944,-4.0764,-4.0874,-4.1192,-4.182,-4.2837,-4.3465,-4.3694,-4.3747,-4.395,-4.4007,-4.4336,-4.4254,-4.4033,-4.3792,-4.3768,-2.2247,-2.2531,-2.3767,-2.4439,-2.4854,-2.6,-2.6645,-2.6794,-2.6794,-2.6794,-2.6794,-2.6794,-2.6794,-2.6794,-2.6794,-2.6794,-2.6779,-2.6974,-2.7393,-2.8094,-2.898,-2.9556,-2.9941,-3.03,-3.0468,-3.0468,-3.0468,-3.0468,-3.0468,-3.0468,-3.0891,-3.1444,-3.156,-3.2,-3.258,-3.3079,-3.3301,-3.3533,-3.4269,-3.4711,-3.4895,-3.5351,-3.5622,-3.5639,-3.5622,-3.5402,-3.4895,-3.5351,-3.5233,-3.4489,-3.4487,-3.418,-3.3328,-3.2021,-3.1905,-3.3179,-3.3845,-3.3855,-3.3557,-3.3846,-3.4178,-3.4135,-3.3948,-3.3851,-3.3902,-3.3731,-3.3605,-3.3689,-3.3936,-3.4092,-3.4147,-3.4367,-3.511,-3.6261,-3.674,-3.6951,-3.6978,-3.6988,-3.7005,-3.7168,-3.7175,-3.7255,-3.7357,-3.7285,-3.7261,-3.7376,-3.7652,-3.7802,-3.801,-3.7933,-3.8016,-3.7925,-3.826,-3.8518,-3.8747,-3.9305,-3.9842,-4.012,-4.0734,-4.1436,-4.1353,-4.159,-4.19,-4.237,-4.3401,-4.3949,-4.4184,-4.4308,-4.4365,-4.4327,-4.4167,-4.4138,-4.4231,-4.4177,-4.4027,-2.2309,-2.2665,-2.3872,-2.454,-2.4937,-2.6122,-2.6659,-2.6794,-2.6794,-2.6794,-2.6794,-2.6794,-2.6794,-2.6794,-2.6794,-2.6794,-2.6794,-2.6779,-2.7115,-2.768,-2.8417,-2.9134,-2.9705,-3.0241,-3.0468,-3.0468,-3.0468,-3.0468,-3.0468,-3.0485,-3.0758,-3.1097,-3.1179,-3.1404,-3.1885,-3.227,-3.255,-3.2813,-3.3782,-3.4401,-3.459,-3.4945,-3.5199,-3.5165,-3.4928,-3.4573,-3.415,-3.4573,-3.4455,-3.377,-3.3453,-3.2901,-3.2161,-3.1529,-3.119,-3.1375,-3.211,-3.2809,-3.2965,-3.3122,-3.3226,-3.3256,-3.3375,-3.3509,-3.3549,-3.3605,-3.3615,-3.3671,-3.3744,-3.3726,-3.3753,-3.378,-3.4321,-3.5202,-3.567,-3.5807,-3.5862,-3.6119,-3.6168,-3.6167,-3.6073,-3.6159,-3.6224,-3.6279,-3.6279,-3.6298,-3.6646,-3.6745,-3.7017,-3.6912,-3.7021,-3.7246,-3.7634,-3.7865,-3.805,-3.8785,-3.977,-4.0235,-4.0691,-4.1455,-4.1847,-4.2481,-4.2947,-4.3114,-4.3869,-4.3943,-4.4121,-4.4109,-4.4109,-4.4005,-4.3949,-4.4067,-4.414,-4.4079,-4.4009,-2.2432,-2.2909,-2.4021,-2.4768,-2.5189,-2.6326,-2.6779,-2.6794,-2.6794,-2.6794,-2.6794,-2.6794,-2.6794,-2.6794,-2.6794,-2.6794,-2.6794,-2.6779,-2.6922,-2.7306,-2.778,-2.848,-2.9617,-3.0258,-3.0468,-3.0468,-3.0468,-3.0468,-3.0468,-3.0468,-3.0468,-3.0567,-3.0584,-3.0501,-3.0824,-3.1357,-3.1783,-3.2093,-3.3395,-3.4132,-3.4252,-3.4404,-3.4421,-3.4421,-3.3897,-3.3508,-3.3372,-3.3305,-3.2983,-3.2347,-3.1845,-3.1506,-3.1241,-3.119,-3.119,-3.123,-3.1542,-3.1929,-3.2248,-3.2619,-3.283,-3.2943,-3.319,-3.3559,-3.3484,-3.3484,-3.3541,-3.3578,-3.3606,-3.368,-3.3707,-3.3734,-3.3826,-3.3917,-3.4596,-3.4917,-3.499,-3.5605,-3.556,-3.5119,-3.4945,-3.4945,-3.5027,-3.5027,-3.5027,-3.5138,-3.5661,-3.5725,-3.5771,-3.5888,-3.6025,-3.6478,-3.7116,-3.7533,-3.7811,-3.8729,-3.9658,-4.016,-4.0494,-4.0958,-4.1832,-4.2575,-4.3429,-4.367,-4.367,-4.3801,-4.3912,-4.3856,-4.3751,-4.3639,-4.3695,-4.3912,-4.3974,-4.3942,-4.3961,-2.2702,-2.3471,-2.4297,-2.505,-2.5715,-2.65,-2.6794,-2.6794,-2.6794,-2.6794,-2.6794,-2.6794,-2.6794,-2.6794,-2.6794,-2.6794,-2.6794,-2.6794,-2.6937,-2.7167,-2.7321,-2.8304,-2.9556,-3.0258,-3.0468,-3.0468,-3.0468,-3.0468,-3.0468,-3.0468,-3.0468,-3.0468,-3.0426,-3.0468,-3.0576,-3.0842,-3.1074,-3.1256,-3.2169,-3.2832,-3.3017,-3.3474,-3.3677,-3.3677,-3.3474,-3.3085,-3.2594,-3.2053,-3.2015,-3.227,-3.1591,-3.119,-3.119,-3.119,-3.119,-3.1269,-3.1487,-3.162,-3.1637,-3.2074,-3.2419,-3.2486,-3.2651,-3.2666,-3.2731,-3.2862,-3.2925,-3.297,-3.3032,-3.3184,-3.3379,-3.3437,-3.3541,-3.378,-3.4082,-3.4211,-3.4211,-3.4266,-3.4339,-3.4156,-3.4174,-3.4192,-3.4192,-3.4192,-3.4192,-3.4247,-3.4485,-3.4833,-3.4971,-3.5051,-3.5258,-3.6165,-3.684,-3.7275,-3.7839,-3.872,-3.9491,-4.0011,-4.0197,-4.016,-4.1014,-4.185,-4.2816,-4.3578,-4.3113,-4.3076,-4.3336,-4.3466,-4.3361,-4.3107,-4.3465,-4.3669,-4.3791,-4.3832,-4.3851,-2.2884,-2.3623,-2.4425,-2.5161,-2.5948,-2.6568,-2.6794,-2.6794,-2.6794,-2.6794,-2.6794,-2.6794,-2.6794,-2.6794,-2.6794,-2.6794,-2.6794,-2.6794,-2.6922,-2.7233,-2.756,-2.824,-2.9134,-2.9837,-3.0215,-3.0241,-3.0384,-3.0401,-3.0258,-3.0199,-3.0097,-2.9941,-3.0113,-3.0199,-3.0215,-3.0526,-3.0692,-3.0965,-3.1599,-3.2109,-3.2242,-3.2696,-3.2882,-3.2865,-3.2679,-3.2222,-3.1799,-3.141,-3.1399,-3.1664,-3.1455,-3.119,-3.119,-3.119,-3.119,-3.119,-3.1389,-3.1389,-3.1351,-3.1731,-3.2021,-3.2127,-3.2196,-3.2385,-3.2468,-3.2553,-3.2669,-3.2734,-3.2749,-3.289,-3.3045,-3.3214,-3.3437,-3.3753,-3.3807,-3.3807,-3.3807,-3.3862,-3.3825,-3.3807,-3.3807,-3.3807,-3.3807,-3.3807,-3.3807,-3.387,-3.3952,-3.4263,-3.4492,-3.4497,-3.48,-3.5752,-3.6777,-3.7396,-3.785,-3.8637,-3.9091,-3.961,-3.9769,-3.9676,-4.0187,-4.0985,-4.1419,-4.2069,-4.2154,-4.2333,-4.2507,-4.2607,-4.2477,-4.2452,-4.2995,-4.3259,-4.3268,-4.3383,-4.3457,-2.2932,-2.3741,-2.4456,-2.5231,-2.6056,-2.6568,-2.6794,-2.6794,-2.6794,-2.6794,-2.6794,-2.6794,-2.6794,-2.6794,-2.6794,-2.6794,-2.6794,-2.6846,-2.6989,-2.7321,-2.7745,-2.8207,-2.8352,-2.9303,-2.9766,-2.9881,-3.0241,-3.0215,-3.007,-2.9924,-2.9617,-2.9483,-2.9661,-2.9705,-2.981,-3.0156,-3.0468,-3.0709,-3.1366,-3.1774,-3.1898,-3.208,-3.2171,-3.2104,-3.1732,-3.1444,-3.1309,-3.119,-3.1224,-3.1207,-3.119,-3.119,-3.119,-3.119,-3.119,-3.119,-3.1213,-3.123,-3.1213,-3.1487,-3.1694,-3.177,-3.2039,-3.2265,-3.2265,-3.2299,-3.2385,-3.2385,-3.2619,-3.2619,-3.2749,-3.3001,-3.3262,-3.3494,-3.3625,-3.368,-3.3707,-3.3707,-3.3734,-3.3734,-3.3753,-3.3707,-3.3707,-3.3707,-3.3662,-3.3437,-3.3504,-3.3613,-3.4026,-3.4394,-3.478,-3.5432,-3.6527,-3.7654,-3.8061,-3.8504,-3.8792,-3.9106,-3.919,-3.9238,-3.9443,-3.9907,-3.9915,-4.0193,-4.0841,-4.1241,-4.1415,-4.1452,-4.1496,-4.1595,-4.1939,-4.2253,-4.2461,-4.2617,-4.2746,-2.3292,-2.4355,-2.4768,-2.5577,-2.65,-2.6727,-2.6794,-2.6794,-2.6794,-2.6794,-2.6794,-2.6794,-2.6794,-2.6794,-2.6794,-2.6794,-2.6832,-2.6951,-2.7107,-2.7386,-2.7575,-2.7745,-2.7944,-2.8748,-2.9393,-2.9661,-2.9881,-3.0054,-3.0097,-2.9793,-2.9766,-2.9572,-2.9241,-2.9257,-2.9303,-2.9705,-3.0054,-3.03,-3.0833,-3.1197,-3.1375,-3.1415,-3.1415,-3.1381,-3.1252,-3.1207,-3.119,-3.119,-3.119,-3.119,-3.119,-3.119,-3.119,-3.119,-3.119,-3.119,-3.119,-3.119,-3.123,-3.1252,-3.1329,-3.1389,-3.1504,-3.1466,-3.1504,-3.162,-3.1657,-3.1637,-3.1728,-3.1966,-3.2248,-3.2502,-3.2763,-3.2952,-3.3001,-3.3032,-3.3045,-3.3225,-3.3408,-3.3379,-3.3214,-3.3014,-3.3045,-3.3075,-3.3075,-3.3063,-3.3045,-3.3045,-3.3569,-3.4211,-3.5002,-3.5703,-3.6857,-3.7985,-3.8287,-3.8582,-3.8704,-3.8851,-3.8851,-3.887,-3.9106,-3.9172,-3.9298,-3.952,-3.9845,-4.0159,-4.0418,-4.0824,-4.1028,-4.0985,-4.0904,-4.1272,-4.1572,-4.1797,-4.2073,-2.3352,-2.4469,-2.4768,-2.5618,-2.6674,-2.6794,-2.6794,-2.6794,-2.6794,-2.6794,-2.6794,-2.6794,-2.6846,-2.6899,-2.6899,-2.6937,-2.6974,-2.7144,-2.7262,-2.7401,-2.7524,-2.761,-2.766,-2.8091,-2.8654,-2.9042,-2.9377,-2.9512,-2.9406,-2.9271,-2.8904,-2.8826,-2.8732,-2.8732,-2.8795,-2.9196,-2.9617,-2.9924,-3.0097,-3.0368,-3.0651,-3.0609,-3.0551,-3.0617,-3.074,-3.0778,-3.0521,-3.1016,-3.1033,-3.0999,-3.1067,-3.119,-3.119,-3.119,-3.119,-3.119,-3.119,-3.119,-3.119,-3.119,-3.119,-3.119,-3.119,-3.119,-3.123,-3.1274,-3.1295,-3.1351,-3.1466,-3.1634,-3.1967,-3.2127,-3.2334,-3.2568,-3.2651,-3.2716,-3.2781,-3.2939,-3.3063,-3.3063,-3.2939,-3.2858,-3.2795,-3.2699,-3.2781,-3.2876,-3.289,-3.2908,-3.3586,-3.4322,-3.549,-3.6394,-3.7459,-3.8283,-3.8578,-3.8743,-3.8707,-3.878,-3.878,-3.878,-3.8865,-3.8865,-3.8847,-3.9116,-3.9338,-3.9324,-3.9601,-4.0062,-4.0253,-3.9982,-3.997,-4.0331,-4.0671,-4.1001,-4.1258,-2.316,-2.4412,-2.4627,-2.5439,-2.6553,-2.6727,-2.6794,-2.6794,-2.6794,-2.6794,-2.6794,-2.6846,-2.6899,-2.7003,-2.7055,-2.7093,-2.7233,-2.7335,-2.7401,-2.7437,-2.7539,-2.7575,-2.761,-2.771,-2.7894,-2.8255,-2.8732,-2.8779,-2.8622,-2.8336,-2.8336,-2.7879,-2.8027,-2.8222,-2.8367,-2.8732,-2.918,-2.9508,-2.9524,-2.9677,-3.0017,-2.993,-2.9881,-2.9968,-3.0166,-3.0203,-3.0082,-3.0476,-3.0784,-3.0521,-3.0926,-3.1157,-3.119,-3.119,-3.119,-3.119,-3.119,-3.119,-3.119,-3.119,-3.119,-3.119,-3.119,-3.119,-3.123,-3.1252,-3.1274,-3.1312,-3.1368,-3.1538,-3.1841,-3.1823,-3.1986,-3.2231,-3.2419,-3.2504,-3.2537,-3.2586,-3.2619,-3.2716,-3.2586,-3.2453,-3.2486,-3.2486,-3.2586,-3.2684,-3.2666,-3.282,-3.3436,-3.433,-3.5435,-3.6481,-3.7426,-3.8273,-3.8615,-3.8689,-3.8689,-3.8689,-3.8689,-3.8689,-3.8658,-3.8578,-3.8578,-3.8689,-3.8811,-3.8842,-3.8811,-3.9074,-3.9111,-3.8879,-3.9019,-3.9355,-3.9776,-4.0174,-4.0288,-2.2932,-2.38,-2.4469,-2.5217,-2.6056,-2.6621,-2.6794,-2.6794,-2.6794,-2.6794,-2.6846,-2.6899,-2.6951,-2.7055,-2.7144,-2.7233,-2.7335,-2.7437,-2.7488,-2.7524,-2.7575,-2.756,-2.756,-2.761,-2.766,-2.7795,-2.8222,-2.8543,-2.8638,-2.8543,-2.8158,-2.8076,-2.7894,-2.781,-2.8008,-2.8271,-2.8623,-2.8932,-2.9071,-2.9273,-2.9428,-2.9531,-2.9512,-2.9512,-2.9645,-2.9652,-2.9642,-2.9856,-3.0178,-3.0516,-3.0943,-3.1157,-3.119,-3.119,-3.119,-3.119,-3.119,-3.119,-3.119,-3.119,-3.119,-3.119,-3.119,-3.119,-3.119,-3.119,-3.1213,-3.1213,-3.1213,-3.1308,-3.1329,-3.1389,-3.1428,-3.1562,-3.1674,-3.1765,-3.1802,-3.1948,-3.2144,-3.23,-3.2144,-3.2055,-3.2144,-3.2162,-3.2214,-3.2249,-3.2197,-3.2197,-3.2476,-3.3705,-3.5049,-3.6095,-3.7142,-3.7925,-3.8609,-3.8627,-3.8627,-3.8596,-3.8596,-3.8596,-3.8515,-3.8336,-3.8303,-3.8135,-3.8252,-3.8387,-3.8368,-3.835,-3.8401,-3.8488,-3.8463,-3.8456,-3.8731,-3.9005,-3.8615,-2.2884,-2.3623,-2.4412,-2.5161,-2.5934,-2.6553,-2.6794,-2.6794,-2.6794,-2.6794,-2.6832,-2.6884,-2.6989,-2.7093,-2.7181,-2.7284,-2.7437,-2.7539,-2.7524,-2.756,-2.756,-2.756,-2.756,-2.756,-2.756,-2.766,-2.7845,-2.8076,-2.8286,-2.8027,-2.7978,-2.7894,-2.771,-2.7625,-2.7725,-2.7845,-2.813,-2.8404,-2.8529,-2.8654,-2.8873,-2.8904,-2.8795,-2.8842,-2.8996,-2.9003,-2.8901,-2.9399,-2.9601,-2.9848,-3.0658,-3.1055,-3.119,-3.1151,-3.119,-3.1151,-3.119,-3.119,-3.119,-3.119,-3.119,-3.119,-3.119,-3.119,-3.119,-3.119,-3.119,-3.119,-3.119,-3.119,-3.123,-3.119,-3.123,-3.1235,-3.1329,-3.1406,-3.1445,-3.1559,-3.1746,-3.1912,-3.1912,-3.1856,-3.1856,-3.1856,-3.1837,-3.18,-3.18,-3.18,-3.18,-3.3182,-3.4806,-3.5998,-3.7004,-3.7626,-3.8252,-3.8252,-3.8285,-3.8336,-3.8336,-3.8368,-3.8318,-3.8068,-3.7614,-3.7228,-3.7414,-3.7809,-3.7879,-3.7861,-3.7948,-3.8034,-3.7985,-3.7917,-3.7828,-3.7685,-3.7469,-2.3083,-2.3637,-2.4484,-2.5179,-2.573,-2.6472,-2.6769,-2.6765,-2.6785,-2.6982,-2.7142,-2.7108,-2.7296,-2.7483,-2.7499,-2.7535,-2.7619,-2.7575,-2.756,-2.756,-2.756,-2.756,-2.756,-2.756,-2.756,-2.761,-2.761,-2.756,-2.771,-2.766,-2.761,-2.761,-2.761,-2.7625,-2.766,-2.7675,-2.7883,-2.7966,-2.7947,-2.7993,-2.8174,-2.8107,-2.7955,-2.7955,-2.835,-2.8369,-2.8181,-2.867,-2.8999,-2.9249,-2.9883,-3.0634,-3.0855,-3.0935,-3.0935,-3.0935,-3.1055,-3.119,-3.119,-3.119,-3.119,-3.119,-3.119,-3.119,-3.119,-3.119,-3.119,-3.119,-3.119,-3.119,-3.119,-3.119,-3.119,-3.123,-3.1291,-3.1312,-3.1329,-3.1423,-3.15,-3.1614,-3.1651,-3.1688,-3.1688,-3.1709,-3.1709,-3.1651,-3.1651,-3.1763,-3.1935,-3.3204,-3.4683,-3.5968,-3.6929,-3.7416,-3.7756,-3.7756,-3.7826,-3.7861,-3.7861,-3.7895,-3.7861,-3.7791,-3.7228,-3.6741,-3.6843,-3.7152,-3.7266,-3.7414,-3.7542,-3.7578,-3.7469,-3.7395,-3.7358,-3.7208,-3.7017,-2.368,-2.3604,-2.4871,-2.5288,-2.5262,-2.6284,-2.675,-2.6833,-2.6856,-2.7461,-2.8245,-2.7992,-2.8115,-2.8429,-2.8246,-2.7891,-2.7616,-2.7539,-2.7575,-2.756,-2.756,-2.756,-2.756,-2.756,-2.756,-2.756,-2.756,-2.756,-2.756,-2.756,-2.756,-2.756,-2.761,-2.7625,-2.7675,-2.7625,-2.7695,-2.783,-2.7695,-2.7725,-2.7875,-2.7775,-2.7725,-2.784,-2.789,-2.7925,-2.7825,-2.8186,-2.8339,-2.8679,-2.8711,-2.9198,-2.981,-2.9968,-2.9968,-3.0182,-3.0617,-3.119,-3.1095,-3.1095,-3.1112,-3.1112,-3.1151,-3.119,-3.119,-3.119,-3.119,-3.119,-3.119,-3.119,-3.119,-3.119,-3.119,-3.123,-3.1252,-3.1235,-3.1252,-3.1308,-3.1402,-3.1423,-3.1483,-3.15,-3.1517,-3.1559,-3.1579,-3.1559,-3.1555,-3.1668,-3.2221,-3.3481,-3.4634,-3.5913,-3.6539,-3.6999,-3.7228,-3.7266,-3.7303,-3.736,-3.7377,-3.7377,-3.734,-3.7246,-3.6939,-3.6597,-3.6638,-3.6741,-3.7017,-3.7152,-3.719,-3.717,-3.7055,-3.7017,-3.6978,-3.6799,-3.6615,-2.4706,-2.4238,-2.5192,-2.5517,-2.5542,-2.6658,-2.7241,-2.7343,-2.7693,-2.8144,-2.8565,-2.8475,-2.8586,-2.8869,-2.8649,-2.8338,-2.8062,-2.7784,-2.7625,-2.7625,-2.7625,-2.756,-2.756,-2.756,-2.756,-2.756,-2.756,-2.756,-2.756,-2.756,-2.756,-2.756,-2.756,-2.7625,-2.7675,-2.7625,-2.7625,-2.766,-2.7625,-2.7625,-2.769,-2.764,-2.7625,-2.7675,-2.769,-2.7705,-2.7705,-2.7705,-2.7881,-2.8112,-2.8016,-2.8284,-2.8826,-2.9013,-2.9013,-2.9121,-2.9897,-3.0326,-3.041,-3.0658,-3.0797,-3.0895,-3.1015,-3.119,-3.119,-3.119,-3.119,-3.119,-3.119,-3.119,-3.119,-3.119,-3.119,-3.123,-3.1213,-3.1213,-3.123,-3.1269,-3.1325,-3.1291,-3.1329,-3.1346,-3.1402,-3.1462,-3.1483,-3.1483,-3.1513,-3.1602,-3.2508,-3.3826,-3.4932,-3.5958,-3.6308,-3.6498,-3.662,-3.6701,-3.6741,-3.6781,-3.6719,-3.6719,-3.6759,-3.6615,-3.6451,-3.6426,-3.6409,-3.6597,-3.6821,-3.6799,-3.6759,-3.6719,-3.6678,-3.6638,-3.6597,-3.6509,-3.636,-2.5648,-2.5115,-2.5665,-2.582,-2.5805,-2.7067,-2.7488,-2.7474,-2.8269,-2.8769,-2.8987,-2.9102,-2.9272,-2.9248,-2.9099,-2.894,-2.8749,-2.8128,-2.7889,-2.7799,-2.77,-2.7575,-2.756,-2.756,-2.756,-2.756,-2.756,-2.756,-2.756,-2.756,-2.756,-2.756,-2.756,-2.7625,-2.7625,-2.761,-2.761,-2.761,-2.761,-2.761,-2.7625,-2.7625,-2.756,-2.761,-2.756,-2.756,-2.756,-2.761,-2.767,-2.7735,-2.772,-2.7875,-2.8171,-2.8268,-2.8381,-2.8525,-2.9182,-2.9348,-2.9572,-2.9881,-3.0225,-3.0435,-3.0617,-3.0757,-3.0958,-3.1015,-3.1151,-3.1151,-3.119,-3.119,-3.119,-3.119,-3.119,-3.119,-3.119,-3.119,-3.119,-3.123,-3.123,-3.123,-3.1252,-3.1252,-3.1308,-3.1346,-3.1385,-3.1385,-3.1492,-3.1594,-3.274,-3.4151,-3.5052,-3.5985,-3.6114,-3.6199,-3.6241,-3.6326,-3.6284,-3.6284,-3.6191,-3.6208,-3.6318,-3.6301,-3.6216,-3.6233,-3.6233,-3.6301,-3.6433,-3.6343,-3.6276,-3.6343,-3.6385,-3.6301,-3.6216,-3.6165,-3.6122,-2.6233,-2.6352,-2.6382,-2.6135,-2.5747,-2.7017,-2.727,-2.7013,-2.8177,-2.897,-2.9487,-3.0021,-3.0031,-2.9913,-2.9876,-2.9648,-2.9352,-2.8764,-2.8532,-2.8263,-2.7934,-2.7679,-2.7604,-2.756,-2.756,-2.756,-2.756,-2.756,-2.756,-2.756,-2.756,-2.756,-2.756,-2.756,-2.756,-2.756,-2.756,-2.756,-2.756,-2.756,-2.756,-2.756,-2.756,-2.756,-2.756,-2.756,-2.756,-2.756,-2.7625,-2.764,-2.7625,-2.761,-2.7775,-2.7775,-2.794,-2.8235,-2.8381,-2.8542,-2.8716,-2.9319,-2.981,-2.9881,-2.9968,-3.0241,-3.0518,-3.0559,-3.074,-3.1055,-3.1134,-3.119,-3.119,-3.119,-3.119,-3.119,-3.119,-3.119,-3.119,-3.119,-3.119,-3.119,-3.119,-3.123,-3.123,-3.1269,-3.1308,-3.1308,-3.1426,-3.1528,-3.3032,-3.438,-3.5125,-3.58,-3.5915,-3.6002,-3.6019,-3.6019,-3.6002,-3.6002,-3.5975,-3.5966,-3.601,-3.5993,-3.6062,-3.6062,-3.6062,-3.6062,-3.6062,-3.6105,-3.6122,-3.6165,-3.6165,-3.6105,-3.6062,-3.6036,-3.5993,-2.6339,-2.6521,-2.6521,-2.6395,-2.6249,-2.7157,-2.7406,-2.738,-2.8173,-2.8993,-2.9608,-3.004,-3.0422,-3.0514,-3.0374,-3.0235,-3.0003,-2.949,-2.9056,-2.8652,-2.8308,-2.7964,-2.7769,-2.759,-2.756,-2.7575,-2.7575,-2.756,-2.756,-2.756,-2.756,-2.756,-2.756,-2.756,-2.756,-2.756,-2.756,-2.756,-2.756,-2.756,-2.756,-2.756,-2.756,-2.756,-2.756,-2.756,-2.756,-2.756,-2.756,-2.756,-2.756,-2.756,-2.756,-2.756,-2.7725,-2.794,-2.8005,-2.8103,-2.8186,-2.8858,-2.9438,-2.975,-2.9793,-2.9881,-3.0038,-3.0208,-3.0435,-3.074,-3.1015,-3.1095,-3.119,-3.119,-3.119,-3.119,-3.119,-3.1151,-3.119,-3.119,-3.119,-3.119,-3.119,-3.119,-3.119,-3.119,-3.119,-3.1207,-3.1326,-3.1732,-3.3203,-3.4523,-3.5294,-3.5684,-3.5756,-3.58,-3.58,-3.5756,-3.5756,-3.5756,-3.5817,-3.5817,-3.5834,-3.5949,-3.6019,-3.5975,-3.5932,-3.5975,-3.5975,-3.5949,-3.5993,-3.6036,-3.6019,-3.5975,-3.5932,-3.5888,-3.5844,-2.6327,-2.6452,-2.6521,-2.6521,-2.6589,-2.7229,-2.7351,-2.7351,-2.8155,-2.8762,-2.9282,-2.9532,-3.0101,-3.0527,-3.0309,-3.0537,-3.0345,-2.9743,-2.9351,-2.8976,-2.856,-2.8129,-2.7743,-2.7578,-2.7509,-2.7473,-2.7575,-2.756,-2.756,-2.756,-2.756,-2.756,-2.756,-2.756,-2.756,-2.756,-2.756,-2.756,-2.756,-2.756,-2.756,-2.756,-2.756,-2.756,-2.756,-2.756,-2.756,-2.756,-2.756,-2.756,-2.756,-2.756,-2.756,-2.756,-2.756,-2.7675,-2.779,-2.7955,-2.8088,-2.8446,-2.8997,-2.9182,-2.9273,-2.9393,-2.9617,-2.9821,-2.9995,-3.0267,-3.0658,-3.0918,-3.0918,-3.0797,-3.0975,-3.0975,-3.0878,-3.0878,-3.1095,-3.119,-3.119,-3.119,-3.1095,-3.0958,-3.1151,-3.1151,-3.1185,-3.1354,-3.1833,-3.2239,-3.3203,-3.4421,-3.5402,-3.5639,-3.5667,-3.5622,-3.5639,-3.5667,-3.5667,-3.5667,-3.5728,-3.5711,-3.5756,-3.5844,-3.5888,-3.58,-3.58,-3.5888,-3.5844,-3.5817,-3.5844,-3.5888,-3.5888,-3.5844,-3.58,-3.5711,-3.5711,-2.6465,-2.6521,-2.6521,-2.6521,-2.6589,-2.7217,-2.7108,-2.6782,-2.7789,-2.8376,-2.857,-2.8776,-2.9268,-2.9813,-2.9652,-3.005,-3.0485,-2.9489,-2.9101,-2.9427,-2.8531,-2.7868,-2.7594,-2.7445,-2.7166,-2.6959,-2.7034,-2.724,-2.7408,-2.7291,-2.7342,-2.7342,-2.724,-2.7408,-2.756,-2.756,-2.756,-2.756,-2.756,-2.756,-2.756,-2.756,-2.756,-2.756,-2.756,-2.756,-2.756,-2.756,-2.756,-2.756,-2.756,-2.756,-2.756,-2.756,-2.756,-2.7625,-2.7725,-2.779,-2.784,-2.8073,-2.8365,-2.8605,-2.8748,-2.8795,-2.9044,-2.9257,-2.9467,-2.975,-2.9935,-3.0234,-3.0251,-3.0241,-3.0535,-3.0658,-3.0559,-3.0559,-3.0757,-3.0878,-3.0797,-3.0757,-3.0658,-3.0642,-3.0918,-3.1112,-3.1162,-3.1483,-3.2165,-3.2848,-3.3491,-3.4438,-3.5487,-3.5639,-3.5639,-3.5639,-3.5639,-3.5639,-3.5622,-3.5639,-3.5639,-3.5622,-3.5667,-3.5711,-3.5711,-3.5667,-3.5667,-3.5756,-3.5711,-3.5639,-3.5711,-3.5756,-3.5711,-3.5667,-3.5622,-3.5622,-3.5622,-2.6521,-2.6521,-2.6521,-2.6521,-2.6533,-2.6726,-2.6726,-2.6589,-2.696,-2.7404,-2.7802,-2.7999,-2.8454,-2.8967,-2.9296,-2.9546,-2.9799,-2.9836,-2.9583,-2.9011,-2.8308,-2.7726,-2.7327,-2.6995,-2.668,-2.6315,-2.6375,-2.6496,-2.6375,-2.6534,-2.6375,-2.6269,-2.6481,-2.6797,-2.7342,-2.756,-2.756,-2.756,-2.756,-2.756,-2.756,-2.756,-2.756,-2.756,-2.756,-2.756,-2.756,-2.756,-2.756,-2.756,-2.756,-2.756,-2.756,-2.756,-2.756,-2.756,-2.7675,-2.7725,-2.779,-2.794,-2.8088,-2.825,-2.8411,-2.8444,-2.8558,-2.8653,-2.8889,-2.9059,-2.912,-2.9438,-2.975,-2.9881,-3.0097,-3.0097,-3.0054,-3.0054,-3.0156,-3.0199,-3.0156,-3.014,-3.0038,-3.0054,-3.0284,-3.0767,-3.095,-3.1458,-3.2135,-3.2824,-3.3482,-3.4563,-3.5639,-3.5639,-3.5639,-3.5639,-3.5639,-3.5639,-3.5639,-3.5639,-3.5639,-3.5622,-3.5639,-3.5639,-3.5622,-3.5622,-3.5622,-3.5639,-3.5639,-3.5622,-3.5622,-3.5622,-3.5622,-3.5639,-3.5622,-3.5622,-3.5622,-2.6521,-2.6521,-2.6521,-2.6521,-2.6521,-2.6521,-2.6521,-2.6521,-2.6521,-2.6782,-2.7108,-2.7297,-2.7749,-2.826,-2.8481,-2.898,-2.9107,-2.8826,-2.9185,-2.8552,-2.8033,-2.7423,-2.6912,-2.644,-2.605,-2.5688,-2.5728,-2.5837,-2.5892,-2.5783,-2.5728,-2.5673,-2.5522,-2.6054,-2.6587,-2.6811,-2.6864,-2.6864,-2.693,-2.7137,-2.7255,-2.7408,-2.756,-2.756,-2.756,-2.756,-2.756,-2.756,-2.756,-2.756,-2.756,-2.756,-2.7575,-2.7575,-2.756,-2.756,-2.761,-2.7675,-2.7675,-2.779,-2.7989,-2.8201,-2.8266,-2.8201,-2.8152,-2.825,-2.8381,-2.8477,-2.8396,-2.8732,-2.9257,-2.9377,-2.9422,-2.9422,-2.9617,-2.9617,-2.9766,-2.981,-2.981,-2.975,-2.9572,-2.9572,-2.9637,-3.0226,-3.0631,-3.1358,-3.2122,-3.2844,-3.3599,-3.4655,-3.5577,-3.5577,-3.5577,-3.5577,-3.5622,-3.5639,-3.5639,-3.5639,-3.5639,-3.5639,-3.5639,-3.5639,-3.5639,-3.5639,-3.5639,-3.5639,-3.5639,-3.5622,-3.5622,-3.5622,-3.5622,-3.5639,-3.5639,-3.5639,-3.5639,-2.6452,-2.6465,-2.6521,-2.6521,-2.6521,-2.6521,-2.6521,-2.6521,-2.6521,-2.6521,-2.6521,-2.6714,-2.7095,-2.7497,-2.7268,-2.7696,-2.8441,-2.7762,-2.8182,-2.8375,-2.7651,-2.6992,-2.6489,-2.6054,-2.5543,-2.5283,-2.5203,-2.5231,-2.5632,-2.5231,-2.5175,-2.5231,-2.5007,-2.5231,-2.5398,-2.5563,-2.5783,-2.6068,-2.6375,-2.6549,-2.6707,-2.7137,-2.7188,-2.724,-2.7188,-2.7203,-2.7225,-2.7253,-2.7333,-2.7363,-2.7393,-2.7524,-2.7575,-2.7575,-2.7524,-2.7509,-2.7458,-2.761,-2.7625,-2.774,-2.779,-2.7955,-2.8005,-2.8005,-2.8005,-2.8069,-2.8103,-2.8088,-2.8039,-2.8301,-2.8606,-2.8654,-2.8701,-2.8889,-2.912,-2.9303,-2.9528,-2.9589,-2.9589,-2.9454,-2.9182,-2.9121,-2.92,-2.9655,-3.0352,-3.116,-3.2006,-3.3156,-3.3922,-3.4628,-3.5407,-3.5577,-3.5577,-3.5577,-3.5577,-3.5594,-3.5639,-3.5639,-3.5639,-3.5639,-3.5639,-3.5639,-3.5639,-3.5639,-3.5639,-3.5639,-3.5639,-3.5639,-3.5622,-3.5639,-3.5757,-3.5723,-3.5757,-3.5656,-3.5639,-2.5676,-2.5664,-2.6245,-2.6521,-2.6521,-2.6521,-2.6521,-2.6521,-2.6521,-2.6521,-2.6521,-2.6521,-2.6714,-2.685,-2.6794,-2.7108,-2.7175,-2.7255,-2.7335,-2.7288,-2.7235,-2.6516,-2.6015,-2.5606,-2.4971,-2.4413,-2.4234,-2.4394,-2.4234,-2.4176,-2.4176,-2.406,-2.4176,-2.4118,-2.4163,-2.4221,-2.4794,-2.5287,-2.5769,-2.5877,-2.6,-2.6254,-2.6428,-2.6428,-2.6375,-2.6375,-2.6453,-2.6418,-2.6433,-2.6371,-2.6361,-2.6549,-2.7575,-2.6878,-2.639,-2.6759,-2.7137,-2.7625,-2.7625,-2.7625,-2.7675,-2.7725,-2.7725,-2.779,-2.784,-2.7905,-2.7905,-2.7855,-2.779,-2.8008,-2.8204,-2.8253,-2.8301,-2.8431,-2.8669,-2.8779,-2.8967,-2.8967,-2.9013,-2.892,-2.8653,-2.8762,-2.8792,-2.9239,-2.9996,-3.0874,-3.1869,-3.3016,-3.405,-3.4745,-3.5253,-3.5441,-3.5532,-3.5532,-3.5549,-3.5566,-3.5594,-3.5639,-3.5639,-3.5639,-3.5594,-3.5594,-3.5639,-3.5639,-3.5639,-3.5639,-3.5639,-3.5639,-3.5639,-3.5876,-3.5977,-3.591,-3.5859,-3.5926,-3.5943,-2.5312,-2.5382,-2.6176,-2.6521,-2.6521,-2.6521,-2.6521,-2.6521,-2.6521,-2.6521,-2.6521,-2.6521,-2.6521,-2.6533,-2.6602,-2.6658,-2.6658,-2.685,-2.693,-2.696,-2.6886,-2.6181,-2.564,-2.5126,-2.4494,-2.3885,-2.3628,-2.378,-2.3569,-2.345,-2.345,-2.3424,-2.333,-2.333,-2.3437,-2.3543,-2.3826,-2.4323,-2.4768,-2.505,-2.5217,-2.5217,-2.5231,-2.5563,-2.5508,-2.5508,-2.5577,-2.5583,-2.5632,-2.5701,-2.5689,-2.5979,-2.6597,-2.5797,-2.6054,-2.6481,-2.6707,-2.7188,-2.7408,-2.7321,-2.7408,-2.7509,-2.756,-2.7625,-2.769,-2.774,-2.774,-2.774,-2.7675,-2.7675,-2.7825,-2.794,-2.7974,-2.8024,-2.8137,-2.8266,-2.8266,-2.8266,-2.825,-2.825,-2.8262,-2.8385,-2.8606,-2.9037,-2.9696,-3.0757,-3.1628,-3.2473,-3.3611,-3.4574,-3.5038,-3.5367,-3.5412,-3.5458,-3.5475,-3.552,-3.5566,-3.5594,-3.5639,-3.5594,-3.5594,-3.5594,-3.5594,-3.5594,-3.5639,-3.5639,-3.5594,-3.5639,-3.5673,-3.591,-3.6197,-3.6366,-3.6502,-3.6738,-3.6705,-2.5087,-2.517,-2.6013,-2.6314,-2.6396,-2.6452,-2.6521,-2.6521,-2.6521,-2.6521,-2.6521,-2.6521,-2.6521,-2.6521,-2.6521,-2.6521,-2.6521,-2.6658,-2.6726,-2.6714,-2.6531,-2.601,-2.5396,-2.4822,-2.4478,-2.3965,-2.3658,-2.3615,-2.3535,-2.339,-2.3258,-2.3125,-2.3138,-2.3198,-2.3198,-2.3185,-2.3365,-2.3531,-2.3767,-2.4002,-2.4163,-2.4118,-2.4073,-2.4964,-2.5119,-2.5106,-2.519,-2.5246,-2.5329,-2.5326,-2.5333,-2.5344,-2.5141,-2.4921,-2.5618,-2.6162,-2.6162,-2.6549,-2.693,-2.6945,-2.7203,-2.7408,-2.756,-2.761,-2.7625,-2.7675,-2.7675,-2.7675,-2.7625,-2.7625,-2.7725,-2.7825,-2.789,-2.794,-2.8005,-2.8054,-2.8118,-2.8118,-2.8103,-2.8103,-2.8069,-2.8202,-2.8713,-2.9176,-2.9758,-3.0752,-3.1649,-3.2392,-3.2955,-3.4086,-3.4593,-3.5008,-3.5102,-3.5102,-3.5383,-3.5429,-3.5475,-3.5549,-3.5487,-3.5549,-3.5475,-3.5503,-3.5594,-3.5594,-3.5594,-3.5594,-3.5594,-3.5594,-3.5645,-3.5842,-3.6197,-3.6738,-3.7094,-3.7466,-3.7263,-2.3401,-2.3717,-2.5016,-2.5606,-2.5676,-2.6245,-2.6452,-2.6521,-2.6521,-2.6521,-2.6521,-2.6521,-2.6521,-2.6521,-2.6521,-2.6521,-2.6521,-2.6521,-2.6533,-2.6589,-2.6485,-2.6079,-2.5658,-2.5356,-2.4862,-2.4192,-2.3864,-2.3712,-2.3435,-2.3261,-2.321,-2.3125,-2.3125,-2.3125,-2.3125,-2.3125,-2.3125,-2.3125,-2.3198,-2.3378,-2.3616,-2.3543,-2.3543,-2.3943,-2.4002,-2.406,-2.4105,-2.4092,-2.4079,-2.4021,-2.406,-2.4047,-2.4086,-2.4041,-2.4376,-2.4878,-2.5453,-2.5837,-2.6122,-2.639,-2.6774,-2.7255,-2.7509,-2.756,-2.761,-2.756,-2.756,-2.756,-2.756,-2.756,-2.7625,-2.7725,-2.779,-2.784,-2.789,-2.7905,-2.7955,-2.7955,-2.7955,-2.7955,-2.789,-2.8293,-2.8867,-2.9403,-2.9913,-3.0764,-3.1732,-3.2407,-3.2516,-3.3214,-3.3716,-3.4136,-3.448,-3.4642,-3.4961,-3.5071,-3.5008,-3.5102,-3.5102,-3.5228,-3.5337,-3.5274,-3.5195,-3.5441,-3.5503,-3.5503,-3.5503,-3.552,-3.5633,-3.5717,-3.6472,-3.7165,-3.7905,-3.8345,-3.7889,-2.2745,-2.2905,-2.4059,-2.4933,-2.5382,-2.5816,-2.6164,-2.6452,-2.6521,-2.6521,-2.6521,-2.6521,-2.6521,-2.6521,-2.6521,-2.6521,-2.6521,-2.6521,-2.6521,-2.6521,-2.6514,-2.6105,-2.5892,-2.5769,-2.5136,-2.4519,-2.4368,-2.4104,-2.3602,-2.3502,-2.3502,-2.3213,-2.309,-2.3125,-2.3125,-2.3125,-2.3125,-2.3125,-2.3125,-2.3198,-2.3271,-2.3198,-2.3138,-2.3318,-2.3318,-2.3318,-2.3318,-2.3378,-2.3437,-2.3497,-2.3641,-2.3595,-2.3628,-2.3569,-2.3806,-2.4144,-2.458,-2.4908,-2.5189,-2.5563,-2.6176,-2.6654,-2.6826,-2.6654,-2.7086,-2.7137,-2.7357,-2.7408,-2.756,-2.756,-2.7625,-2.769,-2.7675,-2.7725,-2.7725,-2.7725,-2.779,-2.779,-2.779,-2.7725,-2.7996,-2.8591,-2.9177,-2.9823,-3.0353,-3.0923,-3.1905,-3.2007,-3.216,-3.2382,-3.2895,-3.3251,-3.3598,-3.3903,-3.407,-3.4219,-3.4268,-3.4431,-3.4658,-3.4866,-3.4961,-3.4866,-3.4849,-3.5008,-3.5211,-3.5367,-3.5383,-3.5383,-3.5429,-3.5496,-3.6518,-3.7691,-3.8364,-3.8821,-3.8633,-2.236,-2.236,-2.3231,-2.4192,-2.5087,-2.5241,-2.5734,-2.6383,-2.6521,-2.6521,-2.6521,-2.6521,-2.6521,-2.6521,-2.6521,-2.6521,-2.6521,-2.6521,-2.6521,-2.6521,-2.6521,-2.6282,-2.6055,-2.5737,-2.5372,-2.5046,-2.4795,-2.4494,-2.4104,-2.3954,-2.3665,-2.324,-2.3115,-2.3125,-2.3078,-2.3125,-2.3125,-2.3125,-2.3125,-2.3125,-2.3125,-2.3125,-2.3125,-2.3125,-2.3125,-2.3125,-2.3125,-2.3138,-2.321,-2.333,-2.3437,-2.3378,-2.3378,-2.333,-2.3509,-2.3734,-2.3852,-2.4028,-2.4086,-2.458,-2.5175,-2.5618,-2.5673,-2.596,-2.6443,-2.6669,-2.693,-2.7137,-2.7291,-2.756,-2.7575,-2.7625,-2.7625,-2.7625,-2.7625,-2.7625,-2.7625,-2.7625,-2.7625,-2.764,-2.821,-2.8801,-2.9445,-3.0088,-3.0717,-3.1285,-3.1467,-3.1467,-3.1582,-3.1796,-3.216,-3.2422,-3.268,-3.2933,-3.3339,-3.3495,-3.3649,-3.3751,-3.3969,-3.4333,-3.4545,-3.4284,-3.4235,-3.4464,-3.4675,-3.493,-3.5135,-3.5182,-3.5245,-3.5245,-3.6286,-3.734,-3.7728,-3.8282,-3.904,-2.1272,-2.1492,-2.2285,-2.3243,-2.412,-2.4707,-2.5581,-2.6383,-2.6452,-2.6521,-2.6371,-2.6452,-2.6521,-2.6452,-2.6521,-2.6521,-2.6521,-2.6521,-2.6521,-2.6521,-2.6521,-2.6433,-2.6332,-2.6101,-2.59,-2.5561,-2.5106,-2.4743,-2.4434,-2.4178,-2.3942,-2.3704,-2.323,-2.3117,-2.314,-2.3165,-2.3192,-2.3265,-2.3263,-2.3238,-2.3115,-2.3103,-2.3138,-2.3125,-2.3125,-2.3125,-2.3125,-2.3125,-2.3138,-2.3138,-2.3198,-2.3198,-2.3198,-2.3138,-2.3258,-2.3378,-2.345,-2.345,-2.3662,-2.406,-2.4667,-2.5175,-2.5356,-2.5522,-2.5797,-2.596,-2.6176,-2.639,-2.6707,-2.7255,-2.7408,-2.7575,-2.761,-2.761,-2.761,-2.761,-2.761,-2.761,-2.761,-2.7865,-2.8299,-2.8876,-2.949,-3.0148,-3.0836,-3.13,-3.1467,-3.1467,-3.1467,-3.1524,-3.1567,-3.1739,-3.1951,-3.2477,-3.3039,-3.3024,-3.313,-3.3182,-3.3235,-3.3391,-3.3511,-3.3495,-3.3511,-3.3563,-3.4002,-3.4317,-3.4529,-3.4723,-3.4913,-3.506,-3.5991,-3.6851,-3.7191,-3.7761,-3.8535]}]]